[[{"header":{"parameterUnit":"m.s-1","parameterCategory":1,"la1":31.0,"la2":29.5877,"lo1":-88.7671,"lo2":-86.6584,"dy":0.0162,"dx":0.0185,"nx":115,"ny":88,"refTime":"2026-04-03T12:00:00:Z","depth":0,"parameterNumber":2,"parameterNumberName":"U-component_of_WINDS"},"data":[0.0,0.0,0.0,0.0,0.0,0.0,0.0,0.0,0.0,0.0,0.0,0.0,0.0,0.0,0.0,0.0,0.0,0.0,0.0,0.0,0.0,0.0,0.0,0.0,0.0,0.0,0.0,0.0,0.0,0.0,0.0,0.0,0.0,0.0,0.0,0.0,0.0,0.0,0.0,0.0,0.0,0.0,0.0,0.0,0.0,0.0,0.0,0.0,0.0,0.0,0.0,0.0,0.0,0.0,0.0,0.0,0.0,0.0,0.0,0.0,0.0,0.0,0.0,0.0,0.0,0.0,0.0,0.0,0.0,0.0,0.0,0.0,0.0,0.0,0.0,0.0,0.0,0.0,0.0,0.0,0.0,0.0,0.0,0.0,0.0,0.0,0.0,0.0,0.0,0.0,0.0,0.0,0.0,0.0,0.0,0.0,0.0,0.0,0.0,0.0,0.0,0.0,0.0,0.0,0.0,0.0,0.0,0.0,0.0,0.0,0.0,0.0,0.0,0.0,0.0,0.0,0.0,0.0,0.0,0.0,0.0,0.0,0.0,0.0,0.0,0.0,0.0,0.0,0.0,0.0,0.0,0.0,0.0,0.0,0.0,0.0,0.0,0.0,0.0,0.0,0.0,0.0,0.0,0.0,0.0,0.0,0.0,0.0,0.0,0.0,0.0,0.0,0.0,0.0,0.0,0.0,0.0,0.0,0.0,0.0,0.0,0.0,0.0,0.0,0.0,0.0,0.0,0.0,0.0,0.0,0.0,0.0,0.0,0.0,0.0,0.0,0.0,0.0,0.0,0.0,0.0,0.0,0.0,0.0,0.0,0.0,0.0,0.0,0.0,0.0,0.0,0.0,0.0,0.0,0.0,0.0,0.0,0.0,0.0,0.0,0.0,0.0,0.0,0.0,0.0,0.0,0.0,0.0,0.0,0.0,0.0,0.0,0.0,0.0,0.0,0.0,0.0,0.0,0.0,0.0,0.0,0.0,0.0,0.0,0.0,0.0,0.0,0.0,0.0,0.0,0.0,0.0,0.0,0.0,0.0,0.0,0.0,0.0,0.0,0.0,0.0,0.0,0.0,0.0,0.0,0.0,0.0,0.0,0.0,0.0,0.0,0.0,0.0,0.0,0.0,0.0,0.0,0.0,0.0,0.0,0.0,0.0,0.0,0.0,0.0,0.0,0.0,0.0,0.0,0.0,0.0,0.0,0.0,0.0,0.0,0.0,0.0,0.0,0.0,0.0,0.0,0.0,0.0,0.0,0.0,0.0,0.0,0.0,0.0,0.0,0.0,0.0,0.0,0.0,0.0,0.0,0.0,0.0,0.0,0.0,0.0,0.0,0.0,0.0,0.0,0.0,0.0,0.0,0.0,0.0,0.0,0.0,0.0,0.0,0.0,0.0,0.0,0.0,0.0,0.0,0.0,0.0,0.0,0.0,0.0,0.0,0.0,0.0,0.0,0.0,0.0,0.0,0.0,0.0,0.0,0.0,0.0,0.0,0.0,0.0,0.0,0.0,0.0,0.0,0.0,0.0,0.0,0.0,0.0,0.0,0.0,0.0,0.0,0.0,0.0,0.0,0.0,0.0,0.0,0.0,0.0,0.0,0.0,0.0,0.0,0.0,0.0,0.0,0.0,0.0,0.0,0.0,0.0,0.0,0.0,0.0,0.0,0.0,0.0,0.0,0.0,0.0,0.0,0.0,0.0,0.0,0.0,0.0,0.0,0.0,0.0,0.0,0.0,0.0,0.0,0.0,0.0,0.0,0.0,0.0,0.0,0.0,0.0,0.0,0.0,0.0,0.0,0.0,0.0,0.0,0.0,0.0,0.0,0.0,0.0,0.0,0.0,0.0,0.0,0.0,0.0,0.0,0.0,0.0,0.0,0.0,0.0,0.0,0.0,0.0,0.0,0.0,0.0,0.0,0.0,0.0,0.0,0.0,0.0,0.0,0.0,0.0,0.0,0.0,0.0,0.0,0.0,0.0,0.0,0.0,0.0,0.0,0.0,0.0,0.0,0.0,0.0,0.0,0.0,0.0,0.0,0.0,0.0,0.0,0.0,0.0,0.0,0.0,0.0,0.0,0.0,0.0,0.0,0.0,0.0,0.0,0.0,0.0,0.0,0.0,0.0,0.0,0.0,0.0,0.0,0.0,0.0,0.0,0.0,0.0,0.0,0.0,0.0,0.0,0.0,0.0,0.0,0.0,0.0,0.0,0.0,0.0,0.0,0.0,0.0,0.0,0.0,0.0,0.0,0.0,0.0,0.0,0.0,0.0,0.0,0.0,0.0,0.0,0.0,0.0,0.0,0.0,0.0,0.0,0.0,0.0,0.0,0.0,0.0,0.0,0.0,0.0,0.0,0.0,0.0,0.0,0.0,0.0,0.0,0.0,0.0,0.0,0.0,0.0,0.0,0.0,0.0,0.0,0.0,0.0,0.0,0.0,0.0,0.0,0.0,0.0,0.0,0.0,0.0,0.0,0.0,0.0,0.0,0.0,0.0,0.0,0.0,0.0,0.0,0.0,0.0,0.0,0.0,0.0,0.0,0.0,0.0,0.0,0.0,0.0,0.0,0.0,0.0,0.0,0.0,0.0,0.0,0.0,0.0,0.0,0.0,0.0,0.0,0.0,0.0,0.0,0.0,0.0,0.0,0.0,0.0,0.0,0.0,0.0,0.0,0.0,0.0,0.0,0.0,0.0,0.0,0.0,0.0,0.0,0.0,0.0,0.0,0.0,0.0,0.0,0.0,0.0,0.0,0.0,0.0,0.0,0.0,0.0,0.0,0.0,0.0,0.0,0.0,0.0,0.0,0.0,0.0,0.0,0.0,0.0,0.0,0.0,0.0,0.0,0.0,0.0,0.0,0.0,0.0,0.0,0.0,0.0,0.0,0.0,0.0,0.0,0.0,0.0,0.0,0.0,0.0,0.0,0.0,0.0,0.0,0.0,0.0,0.0,0.0,0.0,0.0,0.0,0.0,0.0,0.0,0.0,0.0,0.0,0.0,0.0,0.0,0.0,0.0,0.0,0.0,0.0,0.0,0.0,0.0,0.0,0.0,0.0,0.0,0.0,0.0,0.0,0.0,0.0,0.0,0.0,0.0,0.0,0.0,0.0,0.0,0.0,0.0,0.0,0.0,0.0,0.0,0.0,0.0,0.0,0.0,0.0,0.0,0.0,0.0,0.0,0.0,0.0,0.0,0.0,0.0,0.0,0.0,0.0,0.0,0.0,0.0,0.0,0.0,0.0,0.0,0.0,0.0,0.0,0.0,0.0,0.0,0.0,0.0,0.0,0.0,0.0,0.0,0.0,0.0,0.0,0.0,0.0,0.0,0.0,0.0,0.0,0.0,0.0,0.0,0.0,0.0,0.0,0.0,0.0,0.0,0.0,0.0,0.0,0.0,0.0,0.0,0.0,0.0,0.0,0.0,0.0,0.0,0.0,0.0,0.0,0.0,0.0,0.0,0.0,0.0,0.0,0.0,0.0,0.0,0.0,0.0,0.0,0.0,0.0,0.0,0.0,0.0,0.0,0.0,0.0,0.0,0.0,0.0,0.0,0.0,0.0,0.0,0.0,0.0,0.0,0.0,0.0,0.0,0.0,0.0,0.0,0.0,0.0,0.0,0.0,0.0,0.0,0.0,0.0,0.0,0.0,0.0,0.0,0.0,0.0,0.0,0.0,0.0,0.0,0.0,0.0,0.0,0.0,0.0,0.0,0.0,0.0,0.0,0.0,0.0,0.0,0.0,0.0,0.0,0.0,0.0,0.0,0.0,0.0,0.0,0.0,0.0,0.0,0.0,0.0,0.0,0.0,0.0,0.0,0.0,0.0,0.0,0.0,0.0,0.0,0.0,0.0,0.0,0.0,0.0,0.0,0.0,0.0,0.0,0.0,0.0,0.0,0.0,0.0,0.0,0.0,0.0,0.0,0.0,0.0,0.0,0.0,0.0,0.0,0.0,0.0,0.0,0.0,0.0,0.0,0.0,0.0,0.0,0.0,0.0,0.0,0.0,0.0,0.0,0.0,0.0,0.0,0.0,0.0,0.0,0.0,0.0,0.0,0.0,0.0,0.0,0.0,0.0,0.0,0.0,0.0,0.0,0.0,0.0,0.0,0.0,0.0,0.0,0.0,0.0,0.0,0.0,0.0,0.0,0.0,0.0,0.0,0.0,0.0,0.0,0.0,0.0,0.0,0.0,0.0,0.0,0.0,0.0,0.0,0.0,0.0,0.0,0.0,0.0,0.0,0.0,0.0,0.0,0.0,0.0,0.0,-2.2313,0.0,0.0,0.0,0.0,0.0,0.0,0.0,0.0,0.0,0.0,0.0,0.0,0.0,0.0,0.0,0.0,0.0,0.0,0.0,0.0,0.0,0.0,0.0,0.0,0.0,0.0,0.0,0.0,0.0,0.0,0.0,0.0,0.0,0.0,0.0,0.0,0.0,0.0,0.0,0.0,0.0,0.0,0.0,0.0,0.0,0.0,0.0,0.0,0.0,0.0,0.0,0.0,0.0,0.0,0.0,0.0,0.0,0.0,0.0,0.0,0.0,0.0,0.0,0.0,0.0,0.0,0.0,0.0,0.0,0.0,0.0,0.0,0.0,0.0,0.0,0.0,0.0,0.0,0.0,0.0,0.0,0.0,0.0,0.0,0.0,0.0,0.0,0.0,0.0,0.0,0.0,0.0,0.0,0.0,0.0,0.0,0.0,0.0,0.0,0.0,0.0,0.0,0.0,0.0,0.0,0.0,0.0,0.0,0.0,0.0,-2.2163,-2.1928,-2.1913,-2.1825,-2.1616,0.0,0.0,0.0,0.0,0.0,0.0,0.0,0.0,0.0,0.0,0.0,0.0,0.0,0.0,0.0,0.0,0.0,0.0,0.0,0.0,0.0,0.0,0.0,0.0,0.0,0.0,0.0,0.0,0.0,0.0,0.0,0.0,0.0,0.0,0.0,0.0,0.0,0.0,0.0,0.0,0.0,0.0,0.0,0.0,0.0,0.0,0.0,0.0,0.0,0.0,0.0,0.0,0.0,0.0,0.0,0.0,0.0,0.0,0.0,0.0,0.0,0.0,0.0,0.0,0.0,0.0,0.0,0.0,0.0,0.0,0.0,0.0,0.0,0.0,0.0,0.0,0.0,0.0,0.0,0.0,0.0,0.0,0.0,0.0,0.0,0.0,0.0,0.0,0.0,0.0,0.0,0.0,0.0,0.0,0.0,0.0,0.0,0.0,0.0,0.0,0.0,0.0,0.0,0.0,0.0,0.0,0.0,0.0,0.0,0.0,0.0,0.0,-2.1982,-2.1762,-2.1487,0.0,0.0,0.0,0.0,0.0,0.0,0.0,0.0,0.0,0.0,0.0,0.0,0.0,0.0,0.0,0.0,0.0,0.0,0.0,0.0,0.0,0.0,0.0,0.0,0.0,0.0,0.0,0.0,0.0,0.0,0.0,0.0,0.0,0.0,0.0,0.0,0.0,0.0,0.0,0.0,0.0,0.0,0.0,0.0,0.0,0.0,0.0,0.0,0.0,0.0,0.0,0.0,0.0,0.0,0.0,0.0,0.0,0.0,0.0,0.0,0.0,0.0,0.0,0.0,0.0,0.0,0.0,0.0,0.0,0.0,0.0,0.0,0.0,0.0,0.0,0.0,0.0,0.0,0.0,0.0,0.0,0.0,0.0,0.0,0.0,0.0,0.0,0.0,0.0,0.0,0.0,0.0,0.0,0.0,0.0,0.0,0.0,0.0,0.0,0.0,0.0,0.0,0.0,0.0,0.0,0.0,0.0,0.0,0.0,0.0,-2.2317,-2.3638,-2.3135,0.0,-2.2819,0.0,0.0,0.0,0.0,0.0,0.0,0.0,0.0,0.0,0.0,0.0,0.0,0.0,0.0,0.0,0.0,0.0,0.0,0.0,0.0,0.0,0.0,0.0,0.0,0.0,0.0,0.0,0.0,0.0,0.0,0.0,0.0,0.0,0.0,0.0,0.0,0.0,0.0,0.0,0.0,0.0,0.0,0.0,0.0,0.0,0.0,0.0,0.0,0.0,0.0,0.0,0.0,0.0,0.0,0.0,0.0,0.0,0.0,0.0,0.0,0.0,0.0,0.0,0.0,0.0,0.0,0.0,0.0,0.0,0.0,0.0,0.0,0.0,0.0,0.0,0.0,0.0,0.0,0.0,0.0,0.0,0.0,0.0,0.0,0.0,0.0,0.0,0.0,0.0,0.0,0.0,0.0,0.0,0.0,0.0,0.0,0.0,0.0,0.0,0.0,0.0,0.0,0.0,0.0,0.0,0.0,0.0,0.0,0.0,0.0,-2.2849,-2.2961,-2.2481,-2.2232,0.0,0.0,0.0,0.0,0.0,0.0,0.0,0.0,0.0,0.0,0.0,0.0,0.0,0.0,0.0,0.0,0.0,0.0,0.0,0.0,0.0,0.0,0.0,0.0,0.0,0.0,0.0,0.0,0.0,0.0,0.0,0.0,0.0,0.0,0.0,0.0,0.0,0.0,0.0,0.0,0.0,0.0,0.0,0.0,0.0,0.0,0.0,0.0,0.0,0.0,0.0,0.0,0.0,0.0,0.0,0.0,0.0,0.0,0.0,0.0,0.0,0.0,0.0,0.0,0.0,0.0,0.0,0.0,0.0,0.0,0.0,0.0,0.0,0.0,0.0,0.0,0.0,0.0,0.0,0.0,0.0,0.0,0.0,0.0,0.0,0.0,0.0,0.0,0.0,0.0,0.0,0.0,0.0,0.0,0.0,0.0,0.0,0.0,0.0,0.0,0.0,0.0,0.0,0.0,0.0,0.0,0.0,0.0,0.0,0.0,-2.2888,0.0,-2.2681,-2.2385,-2.1979,-2.144,0.0,0.0,0.0,0.0,0.0,0.0,0.0,0.0,0.0,0.0,0.0,0.0,0.0,0.0,0.0,0.0,0.0,0.0,0.0,0.0,0.0,0.0,0.0,0.0,0.0,0.0,0.0,0.0,0.0,0.0,0.0,0.0,0.0,0.0,0.0,0.0,0.0,0.0,0.0,0.0,0.0,0.0,0.0,0.0,0.0,0.0,0.0,0.0,0.0,0.0,0.0,0.0,0.0,0.0,0.0,0.0,0.0,0.0,0.0,0.0,0.0,0.0,0.0,0.0,0.0,0.0,0.0,0.0,0.0,0.0,0.0,0.0,0.0,0.0,0.0,0.0,0.0,0.0,0.0,0.0,0.0,0.0,0.0,0.0,0.0,0.0,0.0,0.0,0.0,0.0,0.0,0.0,0.0,0.0,0.0,0.0,0.0,0.0,0.0,0.0,0.0,0.0,0.0,0.0,0.0,0.0,0.0,0.0,0.0,-2.3246,-2.2738,-2.3539,-2.3541,-2.2652,0.0,0.0,0.0,0.0,0.0,0.0,0.0,0.0,0.0,0.0,0.0,0.0,0.0,0.0,0.0,0.0,0.0,0.0,0.0,0.0,0.0,0.0,0.0,0.0,0.0,0.0,0.0,0.0,0.0,0.0,0.0,0.0,0.0,0.0,0.0,0.0,0.0,0.0,0.0,0.0,0.0,0.0,0.0,0.0,0.0,0.0,0.0,0.0,0.0,0.0,0.0,0.0,0.0,0.0,0.0,0.0,0.0,0.0,0.0,0.0,0.0,0.0,0.0,0.0,0.0,0.0,0.0,0.0,0.0,0.0,0.0,0.0,0.0,0.0,0.0,0.0,0.0,0.0,0.0,0.0,0.0,0.0,0.0,0.0,0.0,0.0,0.0,0.0,0.0,0.0,0.0,0.0,0.0,0.0,0.0,0.0,0.0,0.0,0.0,0.0,0.0,0.0,0.0,0.0,0.0,0.0,0.0,0.0,0.0,-2.1661,-2.1808,-2.2862,-2.4717,-2.2841,-2.1814,0.0,0.0,0.0,0.0,0.0,0.0,0.0,0.0,0.0,0.0,0.0,0.0,0.0,0.0,0.0,0.0,0.0,0.0,0.0,0.0,0.0,0.0,0.0,0.0,0.0,0.0,0.0,0.0,0.0,0.0,0.0,0.0,0.0,0.0,0.0,0.0,0.0,0.0,0.0,0.0,0.0,0.0,0.0,0.0,0.0,0.0,0.0,0.0,0.0,0.0,0.0,0.0,0.0,0.0,0.0,0.0,0.0,0.0,0.0,0.0,0.0,0.0,0.0,0.0,0.0,0.0,0.0,0.0,0.0,0.0,0.0,0.0,0.0,0.0,0.0,0.0,0.0,0.0,0.0,0.0,0.0,0.0,0.0,0.0,0.0,0.0,0.0,0.0,0.0,0.0,0.0,0.0,0.0,0.0,0.0,0.0,0.0,0.0,0.0,0.0,0.0,0.0,0.0,0.0,0.0,0.0,0.0,0.0,0.0,-2.0985,0.0,-2.361,0.0,-2.2832,-2.147,0.0,0.0,0.0,0.0,0.0,0.0,0.0,0.0,0.0,0.0,0.0,0.0,0.0,0.0,0.0,0.0,0.0,0.0,0.0,0.0,0.0,0.0,0.0,0.0,0.0,0.0,0.0,0.0,0.0,0.0,0.0,0.0,0.0,0.0,0.0,0.0,0.0,0.0,0.0,0.0,0.0,0.0,0.0,0.0,0.0,0.0,0.0,0.0,0.0,0.0,0.0,0.0,0.0,0.0,0.0,0.0,0.0,0.0,0.0,0.0,0.0,0.0,0.0,0.0,0.0,0.0,0.0,0.0,0.0,0.0,0.0,0.0,0.0,0.0,0.0,0.0,0.0,0.0,0.0,0.0,0.0,0.0,0.0,0.0,0.0,0.0,0.0,0.0,0.0,0.0,0.0,0.0,0.0,0.0,0.0,0.0,0.0,0.0,0.0,0.0,0.0,0.0,0.0,0.0,0.0,0.0,0.0,0.0,-2.0996,-2.3445,-2.4762,-2.4866,-2.3699,-2.352,-2.1724,0.0,0.0,0.0,0.0,0.0,0.0,0.0,0.0,0.0,0.0,0.0,0.0,0.0,0.0,0.0,0.0,0.0,0.0,0.0,0.0,0.0,0.0,0.0,0.0,0.0,0.0,0.0,0.0,0.0,0.0,0.0,0.0,0.0,0.0,0.0,0.0,0.0,0.0,0.0,0.0,0.0,0.0,0.0,0.0,0.0,0.0,0.0,0.0,0.0,0.0,0.0,0.0,0.0,0.0,0.0,0.0,0.0,0.0,0.0,0.0,0.0,0.0,0.0,0.0,0.0,0.0,0.0,0.0,0.0,0.0,0.0,0.0,0.0,0.0,0.0,0.0,0.0,0.0,0.0,0.0,0.0,0.0,0.0,0.0,0.0,0.0,0.0,0.0,0.0,0.0,0.0,0.0,0.0,0.0,0.0,0.0,0.0,0.0,0.0,0.0,0.0,0.0,0.0,0.0,0.0,0.0,0.0,0.0,0.0,-2.2293,-2.355,-2.4687,-2.5525,-2.3026,-2.1665,0.0,0.0,0.0,0.0,0.0,0.0,0.0,0.0,0.0,0.0,0.0,0.0,0.0,0.0,0.0,0.0,0.0,0.0,0.0,0.0,0.0,0.0,0.0,0.0,0.0,0.0,0.0,0.0,0.0,0.0,0.0,0.0,0.0,0.0,0.0,0.0,0.0,0.0,0.0,0.0,0.0,0.0,0.0,0.0,0.0,0.0,0.0,0.0,0.0,0.0,0.0,0.0,0.0,0.0,0.0,0.0,0.0,0.0,0.0,0.0,0.0,0.0,0.0,0.0,0.0,0.0,0.0,0.0,0.0,0.0,0.0,0.0,0.0,0.0,0.0,0.0,0.0,0.0,0.0,0.0,0.0,0.0,0.0,0.0,0.0,0.0,0.0,0.0,0.0,0.0,0.0,0.0,0.0,0.0,0.0,0.0,0.0,0.0,0.0,0.0,0.0,0.0,0.0,0.0,0.0,0.0,0.0,0.0,0.0,-2.3946,-2.4911,-2.5595,-2.5869,-2.326,-2.1822,-2.1727,0.0,0.0,0.0,0.0,0.0,0.0,0.0,0.0,0.0,0.0,0.0,0.0,0.0,0.0,0.0,0.0,0.0,0.0,0.0,0.0,0.0,0.0,0.0,0.0,0.0,0.0,0.0,0.0,0.0,0.0,0.0,0.0,0.0,0.0,0.0,0.0,0.0,0.0,0.0,0.0,0.0,0.0,0.0,0.0,0.0,0.0,0.0,0.0,0.0,0.0,0.0,0.0,0.0,0.0,0.0,0.0,0.0,0.0,0.0,0.0,0.0,0.0,0.0,0.0,0.0,0.0,0.0,0.0,0.0,0.0,0.0,0.0,0.0,0.0,0.0,0.0,0.0,0.0,0.0,0.0,0.0,0.0,0.0,0.0,0.0,0.0,0.0,0.0,0.0,0.0,0.0,0.0,0.0,0.0,0.0,0.0,0.0,0.0,0.0,0.0,0.0,0.0,0.0,0.0,0.0,0.0,0.0,0.0,-2.763,-2.8397,-2.7576,-2.5119,-2.425,-2.2343,0.0,0.0,0.0,0.0,0.0,0.0,0.0,0.0,0.0,0.0,0.0,0.0,0.0,0.0,0.0,0.0,0.0,0.0,0.0,0.0,0.0,0.0,0.0,0.0,0.0,0.0,0.0,0.0,0.0,0.0,0.0,0.0,0.0,0.0,0.0,0.0,0.0,0.0,0.0,0.0,0.0,0.0,0.0,0.0,0.0,0.0,0.0,0.0,0.0,0.0,0.0,0.0,0.0,0.0,0.0,0.0,0.0,0.0,0.0,0.0,0.0,0.0,0.0,0.0,0.0,0.0,0.0,0.0,0.0,0.0,0.0,0.0,0.0,0.0,0.0,0.0,0.0,0.0,0.0,0.0,0.0,0.0,0.0,0.0,0.0,0.0,0.0,0.0,0.0,0.0,0.0,0.0,0.0,0.0,0.0,0.0,0.0,0.0,0.0,0.0,0.0,0.0,0.0,0.0,0.0,0.0,0.0,0.0,0.0,-2.8308,-3.0402,-3.0435,-2.8233,-2.58,-2.3826,0.0,0.0,0.0,0.0,0.0,0.0,0.0,0.0,0.0,0.0,0.0,0.0,0.0,0.0,0.0,0.0,0.0,0.0,0.0,0.0,0.0,0.0,0.0,0.0,0.0,0.0,0.0,0.0,0.0,0.0,0.0,0.0,0.0,0.0,0.0,0.0,0.0,0.0,0.0,0.0,0.0,0.0,0.0,0.0,0.0,0.0,0.0,0.0,0.0,0.0,0.0,0.0,0.0,0.0,0.0,0.0,0.0,0.0,0.0,0.0,0.0,0.0,0.0,0.0,0.0,0.0,0.0,0.0,0.0,0.0,0.0,0.0,0.0,0.0,0.0,0.0,0.0,0.0,0.0,0.0,0.0,0.0,0.0,0.0,0.0,0.0,0.0,0.0,0.0,0.0,0.0,0.0,0.0,0.0,0.0,0.0,0.0,0.0,0.0,0.0,0.0,0.0,0.0,0.0,0.0,0.0,0.0,0.0,-2.7679,-3.0208,-3.2273,-3.2311,-3.0116,-2.7612,-2.5102,0.0,0.0,0.0,0.0,0.0,0.0,0.0,0.0,0.0,0.0,0.0,0.0,0.0,0.0,0.0,0.0,0.0,0.0,0.0,0.0,0.0,0.0,0.0,0.0,0.0,0.0,0.0,0.0,0.0,0.0,0.0,0.0,0.0,0.0,0.0,0.0,0.0,0.0,0.0,0.0,0.0,0.0,0.0,0.0,0.0,0.0,0.0,0.0,0.0,0.0,0.0,0.0,0.0,0.0,0.0,0.0,0.0,0.0,0.0,0.0,0.0,0.0,0.0,0.0,0.0,0.0,0.0,0.0,0.0,0.0,0.0,0.0,0.0,0.0,0.0,0.0,0.0,0.0,0.0,0.0,0.0,0.0,0.0,0.0,0.0,0.0,0.0,0.0,0.0,0.0,0.0,0.0,0.0,0.0,0.0,0.0,0.0,0.0,0.0,0.0,0.0,0.0,0.0,0.0,0.0,0.0,0.0,0.0,-2.9307,-3.2332,-3.3735,-3.336,-3.1135,-2.924,-2.6117,0.0,0.0,0.0,0.0,0.0,0.0,0.0,0.0,0.0,0.0,0.0,0.0,0.0,0.0,0.0,0.0,0.0,0.0,0.0,0.0,0.0,0.0,0.0,0.0,0.0,0.0,0.0,0.0,0.0,0.0,0.0,0.0,0.0,0.0,0.0,0.0,0.0,0.0,0.0,0.0,0.0,0.0,0.0,0.0,0.0,0.0,0.0,0.0,0.0,0.0,0.0,0.0,0.0,0.0,0.0,0.0,0.0,0.0,0.0,0.0,0.0,0.0,0.0,0.0,0.0,0.0,0.0,0.0,0.0,0.0,0.0,0.0,0.0,0.0,0.0,0.0,0.0,0.0,0.0,0.0,0.0,0.0,0.0,0.0,0.0,0.0,0.0,0.0,0.0,0.0,0.0,0.0,0.0,0.0,0.0,0.0,0.0,0.0,0.0,0.0,0.0,0.0,0.0,0.0,0.0,0.0,0.0,0.0,-2.9983,-3.1675,-3.327,-3.3321,-3.1653,-2.9167,-2.6032,0.0,0.0,0.0,0.0,0.0,0.0,0.0,0.0,0.0,0.0,0.0,0.0,0.0,0.0,0.0,0.0,0.0,0.0,0.0,0.0,0.0,0.0,0.0,0.0,0.0,0.0,0.0,0.0,0.0,0.0,0.0,0.0,0.0,0.0,0.0,0.0,0.0,0.0,0.0,0.0,0.0,0.0,0.0,0.0,0.0,0.0,0.0,0.0,-1.825,0.0,0.0,0.0,0.0,0.0,0.0,0.0,0.0,0.0,0.0,0.0,0.0,0.0,0.0,0.0,0.0,0.0,0.0,0.0,0.0,0.0,0.0,0.0,0.0,0.0,0.0,0.0,0.0,0.0,0.0,0.0,0.0,0.0,0.0,0.0,0.0,0.0,0.0,0.0,0.0,0.0,0.0,0.0,0.0,0.0,0.0,0.0,0.0,0.0,0.0,0.0,0.0,0.0,0.0,0.0,0.0,0.0,0.0,0.0,-3.0632,-3.2216,-3.2992,-3.2772,-3.1526,-2.9356,-2.6428,0.0,0.0,0.0,0.0,0.0,0.0,0.0,0.0,0.0,0.0,0.0,0.0,0.0,0.0,0.0,0.0,0.0,0.0,0.0,0.0,0.0,0.0,0.0,0.0,0.0,0.0,0.0,0.0,0.0,0.0,0.0,0.0,0.0,0.0,0.0,0.0,0.0,0.0,0.0,0.0,0.0,0.0,0.0,0.0,0.0,0.0,0.0,0.0,0.0,0.0,0.0,0.0,0.0,0.0,0.0,0.0,0.0,0.0,0.0,0.0,0.0,0.0,0.0,0.0,0.0,0.0,0.0,0.0,0.0,0.0,0.0,0.0,0.0,0.0,0.0,0.0,0.0,0.0,0.0,0.0,0.0,0.0,0.0,0.0,0.0,0.0,0.0,0.0,0.0,0.0,0.0,0.0,0.0,0.0,0.0,0.0,0.0,0.0,0.0,0.0,0.0,0.0,0.0,0.0,0.0,0.0,0.0,-2.8798,-3.0802,-3.2768,-3.2549,-3.1956,-3.1095,-2.9381,-2.6764,-2.3158,0.0,0.0,0.0,0.0,0.0,0.0,0.0,0.0,0.0,0.0,0.0,0.0,0.0,0.0,0.0,0.0,0.0,0.0,0.0,0.0,0.0,0.0,0.0,0.0,0.0,0.0,0.0,0.0,0.0,0.0,0.0,0.0,0.0,0.0,0.0,0.0,0.0,0.0,-1.7997,-1.8677,0.0,0.0,0.0,0.0,0.0,0.0,0.0,0.0,-1.7444,0.0,0.0,0.0,0.0,0.0,0.0,0.0,0.0,0.0,0.0,0.0,0.0,0.0,0.0,0.0,0.0,0.0,0.0,0.0,0.0,0.0,0.0,0.0,0.0,0.0,0.0,0.0,0.0,0.0,0.0,0.0,0.0,0.0,0.0,0.0,0.0,0.0,0.0,0.0,0.0,0.0,0.0,0.0,0.0,0.0,0.0,0.0,0.0,0.0,0.0,0.0,0.0,0.0,0.0,0.0,0.0,-2.7792,-2.824,-2.952,-3.1764,-3.1555,-3.1139,-3.0481,-2.8589,-2.5945,-2.2643,0.0,0.0,0.0,0.0,0.0,0.0,0.0,0.0,0.0,0.0,0.0,0.0,0.0,0.0,0.0,0.0,0.0,0.0,0.0,0.0,0.0,0.0,0.0,0.0,0.0,0.0,0.0,0.0,0.0,0.0,0.0,0.0,0.0,0.0,0.0,0.0,0.0,0.0,0.0,-1.9977,-2.0263,0.0,0.0,0.0,0.0,0.0,0.0,0.0,0.0,-1.7462,0.0,0.0,0.0,0.0,0.0,0.0,0.0,0.0,0.0,0.0,0.0,0.0,0.0,0.0,0.0,0.0,0.0,0.0,0.0,0.0,0.0,0.0,0.0,0.0,0.0,0.0,0.0,0.0,0.0,0.0,0.0,0.0,0.0,0.0,0.0,0.0,0.0,0.0,0.0,0.0,0.0,0.0,0.0,0.0,0.0,0.0,0.0,0.0,0.0,0.0,0.0,0.0,0.0,0.0,0.0,-2.7013,-2.8213,-2.9636,-3.1281,-3.0802,-3.0187,-2.9595,-2.7528,-2.5109,0.0,0.0,0.0,0.0,0.0,0.0,0.0,0.0,0.0,0.0,0.0,0.0,0.0,0.0,0.0,0.0,0.0,0.0,0.0,0.0,0.0,0.0,0.0,0.0,0.0,0.0,0.0,0.0,0.0,0.0,0.0,0.0,0.0,0.0,0.0,0.0,0.0,0.0,0.0,0.0,-2.0241,-2.0266,-2.0351,0.0,0.0,0.0,0.0,0.0,0.0,-1.8042,-1.7422,0.0,0.0,0.0,0.0,0.0,0.0,0.0,0.0,0.0,0.0,0.0,0.0,0.0,0.0,0.0,0.0,0.0,0.0,0.0,0.0,0.0,0.0,0.0,0.0,0.0,0.0,0.0,0.0,0.0,0.0,0.0,0.0,0.0,0.0,0.0,0.0,0.0,0.0,0.0,0.0,0.0,0.0,0.0,0.0,0.0,0.0,0.0,0.0,0.0,0.0,0.0,0.0,0.0,0.0,0.0,-2.5907,-2.7825,-2.9463,-3.0817,-3.0177,-2.9453,-2.8762,-2.6917,-2.4745,0.0,0.0,0.0,0.0,0.0,0.0,0.0,0.0,0.0,0.0,0.0,0.0,0.0,0.0,0.0,0.0,0.0,0.0,0.0,0.0,0.0,0.0,0.0,0.0,0.0,0.0,0.0,0.0,0.0,0.0,0.0,0.0,0.0,0.0,0.0,0.0,0.0,0.0,0.0,0.0,0.0,-2.0465,-2.0767,-1.9221,0.0,0.0,0.0,0.0,-1.833,-1.8116,0.0,0.0,0.0,0.0,0.0,0.0,0.0,0.0,0.0,0.0,0.0,0.0,0.0,0.0,0.0,0.0,0.0,0.0,0.0,0.0,0.0,0.0,0.0,0.0,0.0,0.0,0.0,0.0,0.0,0.0,0.0,0.0,0.0,0.0,0.0,0.0,0.0,0.0,0.0,0.0,0.0,0.0,0.0,0.0,0.0,0.0,0.0,0.0,0.0,0.0,0.0,0.0,0.0,0.0,0.0,0.0,-2.4841,-2.6117,-2.7794,-2.9808,-2.9869,-2.9289,-2.8235,-2.7469,-2.536,0.0,0.0,0.0,0.0,0.0,0.0,0.0,0.0,0.0,0.0,0.0,0.0,0.0,0.0,0.0,0.0,0.0,0.0,0.0,0.0,0.0,0.0,0.0,0.0,0.0,0.0,0.0,0.0,0.0,0.0,0.0,0.0,0.0,0.0,0.0,0.0,0.0,0.0,0.0,0.0,0.0,-2.1901,-2.0946,-1.9304,-1.8525,0.0,0.0,-1.8423,-1.9357,-1.985,0.0,0.0,0.0,0.0,0.0,0.0,0.0,0.0,0.0,0.0,0.0,0.0,0.0,0.0,0.0,0.0,0.0,0.0,0.0,0.0,0.0,0.0,0.0,0.0,0.0,0.0,0.0,0.0,0.0,0.0,0.0,0.0,0.0,0.0,0.0,0.0,0.0,0.0,0.0,0.0,0.0,0.0,0.0,0.0,0.0,0.0,0.0,0.0,0.0,0.0,0.0,0.0,0.0,0.0,0.0,-2.3137,-2.4697,-2.6453,-2.8174,-2.9704,-2.9779,-2.9252,-2.8134,-2.6666,-2.4506,0.0,0.0,0.0,0.0,0.0,0.0,0.0,0.0,0.0,0.0,0.0,0.0,0.0,0.0,0.0,0.0,0.0,0.0,0.0,0.0,0.0,0.0,0.0,0.0,0.0,0.0,0.0,0.0,0.0,0.0,0.0,0.0,0.0,0.0,0.0,0.0,0.0,0.0,0.0,0.0,0.0,0.0,-2.1818,-2.0568,0.0,0.0,0.0,-1.8744,-1.9622,0.0,0.0,0.0,0.0,0.0,0.0,0.0,0.0,0.0,0.0,0.0,0.0,0.0,0.0,0.0,0.0,0.0,0.0,0.0,0.0,0.0,0.0,0.0,0.0,0.0,0.0,0.0,0.0,0.0,0.0,0.0,0.0,0.0,0.0,0.0,0.0,0.0,0.0,0.0,0.0,0.0,0.0,0.0,0.0,0.0,0.0,0.0,0.0,0.0,0.0,0.0,0.0,0.0,0.0,0.0,0.0,0.0,-2.4538,-2.6888,-2.8649,-2.9741,-2.9779,-2.9252,-2.8122,-2.6239,0.0,0.0,0.0,0.0,0.0,0.0,0.0,0.0,0.0,0.0,0.0,0.0,0.0,0.0,0.0,0.0,0.0,0.0,0.0,0.0,0.0,0.0,0.0,0.0,0.0,0.0,0.0,-1.191,0.0,0.0,0.0,0.0,0.0,0.0,0.0,0.0,0.0,0.0,0.0,0.0,0.0,0.0,-2.2015,-2.2464,-2.1521,-2.0828,0.0,0.0,-1.9064,-1.9258,-1.9073,-1.8565,0.0,0.0,0.0,0.0,0.0,0.0,0.0,0.0,0.0,0.0,0.0,0.0,0.0,0.0,0.0,0.0,0.0,0.0,0.0,0.0,0.0,0.0,0.0,0.0,0.0,0.0,0.0,0.0,0.0,0.0,0.0,0.0,0.0,0.0,0.0,0.0,0.0,0.0,0.0,0.0,0.0,0.0,0.0,0.0,0.0,0.0,0.0,0.0,0.0,0.0,0.0,0.0,0.0,0.0,0.0,-2.3985,-2.6676,-2.8662,-2.9741,-2.9779,-2.9252,-2.8134,-2.6989,-2.484,0.0,0.0,0.0,0.0,0.0,0.0,0.0,0.0,0.0,0.0,0.0,0.0,0.0,0.0,0.0,0.0,0.0,0.0,0.0,0.0,0.0,0.0,0.0,0.0,0.0,0.0,0.0,0.0,0.0,0.0,0.0,0.0,0.0,0.0,0.0,0.0,0.0,0.0,0.0,0.0,0.0,-2.2881,-2.2391,-2.1567,-2.1212,0.0,0.0,-1.9587,-1.8173,-2.0626,-2.1182,-1.6686,0.0,0.0,0.0,0.0,0.0,0.0,0.0,0.0,0.0,0.0,0.0,0.0,0.0,0.0,0.0,0.0,0.0,0.0,0.0,0.0,0.0,0.0,0.0,0.0,0.0,0.0,0.0,0.0,0.0,0.0,0.0,0.0,0.0,0.0,0.0,0.0,0.0,0.0,0.0,0.0,0.0,0.0,0.0,0.0,0.0,0.0,0.0,0.0,0.0,0.0,0.0,0.0,0.0,-2.2607,-2.3888,-2.6676,-2.8649,-2.9729,-2.9779,-2.9252,-2.8134,-2.7065,-2.4766,0.0,0.0,0.0,0.0,0.0,0.0,0.0,0.0,0.0,0.0,0.0,0.0,0.0,0.0,0.0,0.0,0.0,0.0,0.0,0.0,0.0,0.0,0.0,0.0,0.0,0.0,0.0,0.0,-1.3427,-1.3744,-1.3646,0.0,0.0,0.0,0.0,0.0,0.0,0.0,0.0,0.0,0.0,-2.2445,-2.3295,-2.2782,0.0,0.0,-2.1777,-2.0789,-2.103,-2.0535,-1.9579,-1.7976,-1.7002,0.0,0.0,0.0,0.0,0.0,0.0,0.0,0.0,0.0,0.0,0.0,0.0,0.0,0.0,0.0,0.0,0.0,0.0,0.0,0.0,0.0,0.0,0.0,0.0,0.0,0.0,0.0,0.0,0.0,0.0,0.0,0.0,0.0,0.0,0.0,0.0,0.0,0.0,0.0,0.0,0.0,0.0,0.0,0.0,0.0,0.0,0.0,0.0,0.0,0.0,0.0,0.0,-2.245,-2.3666,-2.6607,-2.8662,-2.9767,-2.9779,-2.9252,-2.8134,-2.7193,-2.4946,0.0,0.0,0.0,0.0,0.0,0.0,0.0,0.0,0.0,0.0,0.0,0.0,0.0,0.0,0.0,0.0,0.0,0.0,0.0,0.0,0.0,0.0,0.0,0.0,0.0,0.0,0.0,0.0,-1.4267,-1.445,-1.3878,0.0,0.0,0.0,0.0,0.0,0.0,0.0,0.0,0.0,0.0,-2.2228,-2.3596,-2.3341,-2.3053,-2.3201,-2.1758,-2.0867,-2.131,-1.9915,-1.8638,-1.8208,0.0,0.0,0.0,0.0,0.0,0.0,0.0,0.0,0.0,0.0,0.0,0.0,0.0,0.0,0.0,0.0,0.0,0.0,0.0,0.0,0.0,0.0,0.0,0.0,0.0,0.0,0.0,0.0,0.0,0.0,-1.6547,0.0,0.0,0.0,0.0,0.0,0.0,0.0,0.0,0.0,0.0,0.0,0.0,0.0,0.0,0.0,0.0,0.0,0.0,0.0,0.0,0.0,0.0,-2.1562,-2.3138,-2.6414,-2.8662,-2.9741,-2.9779,-2.9252,-2.816,-2.7557,-2.5552,-2.1896,0.0,0.0,0.0,0.0,0.0,0.0,0.0,0.0,0.0,0.0,0.0,0.0,0.0,0.0,0.0,0.0,0.0,0.0,0.0,0.0,0.0,0.0,0.0,0.0,0.0,0.0,-1.4838,-1.4406,-1.3873,0.0,0.0,0.0,0.0,0.0,0.0,0.0,0.0,0.0,0.0,-2.0206,-2.245,-2.3034,-2.2896,-2.2424,-2.1628,-2.0628,-1.9406,-1.7968,-1.8871,-1.9083,0.0,0.0,0.0,0.0,0.0,0.0,0.0,0.0,0.0,0.0,0.0,0.0,0.0,0.0,0.0,0.0,0.0,0.0,0.0,0.0,0.0,0.0,0.0,0.0,0.0,0.0,0.0,-2.1317,-2.0151,0.0,0.0,0.0,0.0,0.0,0.0,0.0,0.0,0.0,0.0,0.0,-2.4268,-2.5372,0.0,0.0,0.0,0.0,0.0,0.0,0.0,0.0,0.0,0.0,0.0,0.0,-2.2033,-2.3753,-2.6615,-2.8649,-2.9754,-2.9779,-2.9428,-2.8624,-2.7127,-2.4265,-1.9928,0.0,0.0,0.0,0.0,0.0,0.0,0.0,0.0,0.0,0.0,0.0,0.0,0.0,0.0,0.0,0.0,0.0,0.0,0.0,0.0,0.0,0.0,0.0,0.0,0.0,-1.5366,0.0,0.0,0.0,0.0,0.0,0.0,0.0,0.0,0.0,0.0,0.0,-1.6622,-1.8591,-1.9819,-2.1122,-2.2636,-2.2491,-2.2139,0.0,0.0,0.0,0.0,0.0,0.0,0.0,0.0,0.0,0.0,0.0,0.0,0.0,0.0,-1.6548,-1.3993,-1.3405,-1.3292,-1.3292,0.0,0.0,0.0,0.0,0.0,0.0,0.0,0.0,0.0,0.0,0.0,0.0,0.0,0.0,-2.4161,0.0,-2.2577,0.0,0.0,0.0,0.0,0.0,0.0,0.0,0.0,-2.6063,-2.7092,-2.7105,-2.8185,-2.7833,0.0,-2.6076,-2.4192,0.0,0.0,0.0,0.0,0.0,0.0,0.0,0.0,-2.2799,-2.433,-2.6992,-2.885,-2.9741,-2.9779,-2.9515,-2.8888,-2.6393,-2.3212,-1.9326,-1.7252,-1.591,0.0,0.0,0.0,0.0,0.0,0.0,0.0,0.0,0.0,0.0,0.0,0.0,0.0,0.0,0.0,0.0,0.0,0.0,0.0,0.0,0.0,0.0,0.0,-1.5276,0.0,0.0,0.0,0.0,0.0,0.0,0.0,0.0,0.0,-1.437,-1.5329,-1.6807,-1.8971,-1.9516,-2.0338,-2.218,0.0,0.0,0.0,0.0,0.0,0.0,0.0,-1.8291,-1.8048,-1.7532,-1.703,-1.6617,-1.7471,-1.8037,-1.7523,0.0,0.0,-1.5117,-1.4658,-1.4669,-1.4679,-1.545,-1.5998,-1.5611,-1.6041,-1.6457,0.0,0.0,0.0,0.0,0.0,0.0,0.0,0.0,-2.6235,-2.6386,0.0,-2.5686,0.0,0.0,0.0,0.0,0.0,0.0,0.0,0.0,-2.9767,-3.0821,-2.988,-2.9905,-2.9591,-2.9038,-2.9528,-2.8335,-2.5548,-2.192,0.0,0.0,0.0,0.0,0.0,0.0,-2.371,-2.4888,-2.7509,-2.9202,-2.9767,-2.9779,-2.9465,-2.8687,-2.5517,-2.2623,-2.0189,-1.8358,-1.6862,-1.5639,-1.4718,0.0,0.0,0.0,0.0,0.0,0.0,0.0,0.0,0.0,0.0,0.0,0.0,0.0,0.0,0.0,0.0,0.0,0.0,0.0,0.0,-1.4631,0.0,0.0,0.0,0.0,0.0,0.0,0.0,0.0,0.0,0.0,-1.4399,-1.616,-1.7791,-1.8554,0.0,0.0,0.0,0.0,-2.1036,-2.0642,-2.0212,-1.962,-1.8832,-1.8643,-1.8477,-1.8115,0.0,0.0,-1.7627,-1.8154,-1.8432,-1.7637,-1.7891,-1.8066,-1.7964,-1.7217,-1.6699,-1.6689,-1.6741,-1.6787,-1.6804,-1.7494,-1.8118,-2.6627,0.0,0.0,0.0,0.0,-2.7105,-2.8545,-3.0663,-3.0601,-3.0043,-2.9126,-2.8323,0.0,0.0,0.0,0.0,0.0,0.0,-2.7833,-2.8875,-3.0231,-3.1085,-3.1537,-3.1951,-3.1838,-3.1273,-3.1035,-2.9917,-2.7971,-2.6465,-2.3766,-2.005,0.0,0.0,0.0,0.0,-2.4883,-2.6059,-2.7934,-2.9176,-2.9779,-2.9779,-2.8649,-2.634,-2.5314,-2.3247,-2.0086,-1.8862,-1.7831,-1.688,-1.5756,0.0,0.0,0.0,0.0,0.0,0.0,0.0,0.0,0.0,0.0,0.0,0.0,0.0,0.0,0.0,0.0,0.0,0.0,0.0,-1.4408,-1.4285,-1.4107,0.0,0.0,0.0,0.0,0.0,0.0,0.0,0.0,0.0,-1.6415,-1.704,-1.7962,0.0,0.0,-1.978,-2.0832,-2.0581,-2.0222,-2.0105,0.0,0.0,0.0,-1.8997,-1.8666,-1.8887,-1.9268,-1.957,-1.9639,-1.9891,-1.9834,-1.9277,-1.9277,-1.9277,-1.8936,-1.8232,-1.7686,-1.7623,-1.7837,-1.8042,-1.8125,-1.9083,-1.9982,-2.8092,-2.7091,-2.7037,-2.7653,-2.8823,-2.9846,-3.1296,-3.3054,-3.3127,-3.2717,-3.1888,-3.1157,-2.9666,-2.7544,-2.6756,0.0,0.0,0.0,-2.9578,-3.0771,-3.1323,-3.1951,-3.2554,-3.2905,-3.2893,-3.2528,-3.1989,-3.1198,-3.0179,-2.9465,-2.7369,-2.4048,0.0,0.0,-2.2728,-2.4732,-2.6226,-2.7143,-2.8536,-2.944,-2.9779,-2.9193,-2.7496,-2.4646,-2.4398,-2.2988,-2.0272,-1.9346,-1.8549,-1.7891,-1.6655,-1.5441,0.0,0.0,0.0,0.0,0.0,0.0,0.0,0.0,0.0,0.0,0.0,-1.2639,-1.1279,0.0,0.0,0.0,-1.3597,-1.4355,-1.4532,-1.442,0.0,0.0,0.0,0.0,0.0,0.0,0.0,-1.598,-1.6693,-1.7353,-1.8047,-1.8281,-1.8774,-1.9758,-1.9571,-1.9624,-2.0494,0.0,-1.998,-2.0146,-2.0176,-2.0176,-2.0156,-1.9746,-1.9492,-1.9783,-2.0038,-2.0234,-2.0546,-2.0615,-2.0507,-2.0244,-2.0176,-2.0088,-1.9881,-1.9402,-1.8896,-1.8594,-1.8822,-1.9229,-1.9589,-2.0545,-2.14,-2.9078,-2.9307,-3.0625,-3.0801,-3.0377,-3.2696,-3.3465,-3.3202,-3.4309,-3.4512,-3.4035,-3.3972,-3.283,-3.0821,-2.9753,0.0,-3.0093,-3.1085,-3.1775,-3.2303,-3.283,-3.3124,-3.3124,-3.3124,-3.3124,-3.3068,-3.2528,-3.2265,-3.2139,-3.1198,-3.0168,-2.9001,-2.7017,-2.59,-2.5799,-2.6841,-2.7657,-2.8172,-2.9239,-2.9753,-2.965,-2.8256,-2.6235,-2.3594,-2.3136,-2.2198,-2.0624,-1.9752,-1.9125,-1.8588,-1.7389,-1.5976,-1.4406,0.0,0.0,0.0,0.0,0.0,0.0,0.0,0.0,0.0,0.0,0.0,0.0,0.0,0.0,0.0,-1.4372,0.0,-1.49,-1.4853,0.0,0.0,0.0,-1.4289,-1.4406,-1.5498,-1.6418,-1.6804,0.0,0.0,-1.9287,0.0,-2.001,-2.0019,-1.9658,-1.9705,-2.0488,-2.0253,-2.0117,-2.0527,-2.0605,-2.0605,-2.0566,-2.0527,-2.0498,-2.0517,-2.0615,-2.0595,-2.0605,-2.0615,-2.0605,-2.0586,-2.0634,-2.0731,-2.0702,-2.0767,-2.0581,-1.9869,-1.989,-2.0382,-2.1324,-2.1977,-2.2604,-3.0538,-3.1657,-3.2682,-3.2374,-3.1207,-3.1897,-3.3232,-3.4867,-3.5203,-3.5219,-3.5082,-3.4668,-3.3997,-3.3106,-3.283,-3.2566,-3.2315,-3.2554,-3.2742,-3.288,-3.3018,-3.3124,-3.3124,-3.3124,-3.3124,-3.3111,-3.2943,-3.2641,-3.2215,-3.1964,-3.1273,-3.0231,-2.9679,-2.8574,-2.6992,-2.7984,-2.8562,-2.8737,-2.9428,-2.9365,-2.8505,-2.7843,-2.6246,-2.3583,-2.3384,-2.2323,-2.0192,-1.9869,-1.9379,-1.8613,-1.7389,-1.6521,-1.6093,-1.4338,0.0,0.0,0.0,0.0,0.0,0.0,0.0,0.0,0.0,-1.3969,-1.1781,0.0,-1.4275,0.0,-1.4599,-1.5427,-1.5733,-1.5459,0.0,0.0,-1.5869,-1.5996,-1.6973,-1.7363,-1.7715,-1.81,-1.8987,-1.9611,-1.9756,-2.0401,-2.0878,-2.0869,-2.0537,-2.038,-2.0576,-2.0517,-2.0488,-2.0586,-2.0615,-2.0615,-2.0615,-2.0615,-2.0615,-2.0615,-2.0615,-2.0615,-2.0615,-2.0615,-2.0615,-2.0644,-2.1231,-2.1593,-2.1631,-2.2253,-2.2674,-2.2494,-2.1993,-2.1795,-2.2798,-2.3666,-2.4337,-3.0995,-3.1732,-3.2086,-3.2019,-3.1941,-3.3446,-3.4787,-3.5859,-3.5906,-3.5416,-3.4524,-3.3416,-3.3066,-3.3371,-3.3371,-3.3402,-3.3458,-3.3432,-3.3307,-3.3124,-3.3124,-3.3124,-3.3124,-3.3124,-3.3124,-3.3124,-3.3124,-3.2905,-3.2616,-3.2591,-3.229,-3.1712,-3.1461,-3.0583,-2.9176,-2.9252,-2.9315,-2.9315,-2.9114,-2.8478,-2.7389,-2.6502,-2.4967,-2.2889,-2.3041,-2.2103,-1.9969,-2.015,-1.9702,-1.8394,-1.75,-1.6836,-1.6445,-1.5332,-1.4473,0.0,0.0,0.0,0.0,0.0,0.0,0.0,0.0,0.0,0.0,0.0,-1.4864,-1.4684,-1.5644,-1.6475,-1.6894,-1.6875,-1.7019,-1.7496,-1.7529,-1.7715,-1.8208,-1.8623,-1.8945,-1.9143,-1.9971,-2.0469,-2.0518,-2.1103,-2.1523,-2.1523,-2.1309,-2.1084,-2.0898,-2.0859,-2.0791,-2.0635,-2.0615,-2.0615,-2.0615,-2.0615,-2.0615,-2.0615,-2.0615,-2.0615,-2.0615,-2.0615,-2.0615,-2.0644,-2.1039,-2.1517,-2.1924,-2.2403,-2.3036,-2.3902,-2.3745,-2.3588,-2.4072,-2.46,-2.5075,-3.0995,-3.1121,-3.0726,-3.1339,-3.2742,-3.5592,-3.6527,-3.5957,-3.597,-3.4956,-3.3241,-3.1632,-3.1597,-3.2794,-3.2782,-3.3225,-3.3966,-3.3935,-3.3646,-3.3194,-3.3149,-3.3124,-3.3124,-3.3124,-3.3124,-3.3124,-3.3124,-3.3043,-3.2955,-3.2955,-3.2935,-3.2742,-3.2114,-3.156,-3.116,-3.0125,-2.9585,-2.9585,-2.8597,-2.7522,-2.6295,-2.4927,-2.3464,-2.2009,-2.2297,-2.1668,-1.9938,-2.0375,-1.9885,-1.8203,-1.7686,-1.7171,-1.6467,-1.6222,-1.5762,0.0,-1.4921,0.0,0.0,0.0,0.0,0.0,0.0,0.0,0.0,-1.5693,-1.5967,-1.632,-1.7142,-1.7773,-1.8135,-1.8471,-1.8724,-1.8841,-1.9219,-1.9336,-1.9085,-1.9679,-2.0166,-2.0176,-2.08,-2.1278,-2.1278,-2.1699,-2.1973,-2.1973,-2.2021,-2.1894,-2.1453,-2.1259,-2.1025,-2.0732,-2.0644,-2.0615,-2.0615,-2.0615,-2.0615,-2.0615,-2.0615,-2.0634,-2.0818,-2.0828,-2.0828,-2.1011,-2.1308,-2.1603,-2.2253,-2.2542,-2.3257,-2.4898,-2.5158,-2.5111,-2.5194,-2.5229,-2.5476,-3.1604,-3.269,-3.2587,-3.3101,-3.403,-3.4645,-3.4434,-3.365,-3.3662,-3.3213,-3.2497,-3.2146,-3.2529,-3.3327,-3.3327,-3.377,-3.4492,-3.4098,-3.3847,-3.3721,-3.3294,-3.3124,-3.3124,-3.3124,-3.3124,-3.3124,-3.3124,-3.283,-3.2378,-3.2378,-3.1926,-3.1057,-3.0033,-2.9715,-3.0027,0.0,0.0,0.0,-2.8227,-2.7145,-2.5189,-2.4513,-2.3464,-2.1967,-2.1617,0.0,-1.9534,-1.9843,-1.9596,-1.8551,-1.8115,0.0,0.0,0.0,0.0,0.0,0.0,0.0,0.0,0.0,0.0,0.0,-1.6894,-1.6476,-1.6056,-1.7217,-1.7876,-1.7695,-1.8428,-1.8965,-1.9043,-1.9111,-1.9443,-2.0117,-2.0312,-2.0557,-2.1172,-2.1406,-2.1514,-2.1514,-2.166,-2.1768,-2.1787,-2.2129,-2.2393,-2.2402,-2.2685,-2.2672,-2.2282,-2.1648,-2.1181,-2.1064,-2.081,-2.0635,-2.0615,-2.0615,-2.0615,-2.0615,-2.0615,-2.0895,-2.1479,-2.1697,-2.2038,-2.2638,-2.3599,-2.4084,-2.4348,-2.5063,-2.5534,-2.6129,-2.6211,-2.6233,-2.6211,-2.6211,-2.6267,-3.1334,0.0,-3.2045,-3.2292,0.0,-3.2675,-3.2277,-3.1704,-3.2606,-3.2391,-3.1276,-3.0618,-3.1287,-3.2912,-3.29,-3.372,-3.5069,-3.4781,-3.4412,-3.3897,-3.3608,-3.3332,-3.3124,-3.3124,-3.3124,-3.3124,-3.3124,-3.278,-3.2227,-3.2202,-3.1759,-3.1009,-2.9876,-2.9352,-2.93,-2.7985,-2.7574,-2.8084,-2.7012,-2.5953,-2.4819,-2.4038,-2.3183,-2.2229,0.0,0.0,0.0,0.0,0.0,0.0,0.0,0.0,0.0,0.0,0.0,-1.765,-1.7451,-1.7227,-1.7019,-1.7598,-1.8164,-1.8603,-1.9033,-1.8828,-1.7778,-1.8643,-1.9365,-1.9563,-1.9972,-2.0342,-2.0547,-2.0566,-2.0752,-2.1202,-2.1251,-2.1456,-2.1797,-2.1936,-2.1936,-2.1914,-2.207,-2.2187,-2.2197,-2.2559,-2.276,-2.2779,-2.2955,-2.3013,-2.2779,-2.2233,-2.1717,-2.1278,-2.1025,-2.083,-2.0654,-2.0615,-2.0615,-2.0644,-2.0962,-2.1221,-2.1298,-2.1697,-2.2027,-2.2188,-2.2861,-2.3635,-2.4217,-2.5075,-2.5908,-2.6349,-2.6487,-2.6487,-2.6487,-2.6487,-2.6487,-3.0898,-3.0898,-3.0898,-3.0898,-3.0898,-3.0898,-3.0586,-3.0199,0.0,0.0,0.0,-2.8804,-2.966,-3.1927,-3.218,-3.3406,-3.526,-3.5453,-3.4956,-3.4048,-3.3947,-3.3608,-3.3136,-3.3124,-3.3124,-3.3124,-3.3124,-3.2767,-3.2227,-3.2114,-3.1664,-3.0934,-2.9785,-2.8886,-2.8139,-2.687,-2.6625,-2.7389,-2.5734,-2.4702,-2.45,-2.3594,-2.2896,-2.2519,-2.2879,-2.233,-2.0791,-2.1113,-2.0481,-1.857,-1.8457,-1.8457,-1.8457,-1.8389,-1.8691,-1.9434,-1.9549,-1.9385,-1.9085,-1.9718,-2.0039,-1.9766,-2.0732,-2.0869,-1.9717,-2.0019,-2.0557,-2.1249,-2.1307,-2.1484,-2.1846,-2.1885,-2.1914,-2.1982,-2.2002,-2.2021,-2.21,-2.21,-2.2148,-2.2148,-2.2432,-2.2627,-2.2637,-2.2867,-2.3101,-2.3091,-2.3081,-2.3101,-2.3042,-2.2691,-2.2178,-2.1502,-2.1367,-2.1221,-2.0928,-2.0889,-2.0811,-2.0781,-2.1334,-2.1619,-2.1395,-2.1745,-2.2038,-2.2215,-2.2328,-2.322,-2.3963,-2.485,-2.5511,-2.6349,-2.6487,-2.6487,-2.6487,-2.6487,-2.6487,-3.0898,-3.0898,-3.0898,-3.0898,-3.0898,-3.0898,-3.042,-2.9685,-2.955,-2.9148,-2.8548,-2.8398,-2.9154,-3.0618,-3.1785,-3.3109,-3.4595,-3.5216,-3.5157,0.0,-3.4123,-3.3608,-3.3136,-3.3124,-3.3124,-3.3124,-3.3124,-3.2767,-3.2215,-3.1738,-3.0749,-2.9246,-2.7718,-2.6443,-2.5464,-2.5147,-2.5115,-2.5241,-2.4957,-2.4339,-2.3387,-2.3178,-2.2896,-2.2529,-2.2225,-2.1814,-2.1172,-2.1194,-2.0899,-2.0282,-2.0253,-2.0243,-2.0233,-1.9844,-1.9863,-2.037,-2.0419,-2.0518,-2.0791,-2.0947,-2.1191,-2.1494,-2.1699,-2.1553,-2.0995,-2.1357,-2.166,-2.1797,-2.1807,-2.1807,-2.1885,-2.1924,-2.207,-2.2363,-2.2422,-2.2549,-2.2828,-2.2867,-2.2857,-2.2857,-2.2964,-2.2994,-2.2974,-2.3042,-2.3101,-2.3101,-2.3101,-2.3101,-2.3042,-2.274,-2.2344,-2.1924,-2.1787,-2.1768,-2.1621,-2.173,-2.1494,-2.1191,-2.1322,-2.197,-2.2735,-2.3167,-2.3785,-2.5241,-2.5384,-2.5702,-2.597,-2.6164,-2.6389,-2.6587,-2.6575,-2.6587,-2.6587,-2.6562,-2.6549,-3.0898,-3.0898,-3.0898,-3.0898,-3.0898,-3.0898,-3.0527,-2.9893,-2.9453,-2.8896,-2.832,-2.8301,-2.9049,-3.0369,-3.1673,-3.3055,-3.4471,-3.5503,-3.5646,-3.5061,-3.3884,-3.3073,-3.256,-3.2242,-3.2052,-3.2096,-3.2797,-3.278,-3.2227,-3.1951,-3.084,-2.8892,-2.6685,-2.501,-2.3963,-2.3887,-2.3877,-2.3887,-2.3877,-2.3637,-2.3135,-2.3101,-2.3013,-2.2799,-2.2441,-2.2139,-2.1892,-2.1699,-2.1387,-2.0947,-2.0918,-2.0928,-2.0918,-2.0703,-2.082,-2.124,-2.1319,-2.1367,-2.1572,-2.1756,-2.2119,-2.2519,-2.2568,-2.2448,-2.2243,-2.2194,-2.2324,-2.2539,-2.2568,-2.2526,-2.2559,-2.2568,-2.2646,-2.2789,-2.2818,-2.2886,-2.3052,-2.3101,-2.3101,-2.3101,-2.3101,-2.3101,-2.3101,-2.3101,-2.3101,-2.3101,-2.3101,-2.3101,-2.3101,-2.2935,-2.2662,-2.2324,-2.2227,-2.2109,-2.1953,-2.1936,-2.1797,-2.1602,-2.2552,-2.3192,-2.3733,-2.4223,-2.5284,-2.5689,-2.6202,-2.6541,-2.6601,-2.7046,-2.716,-2.7002,-2.7216,-2.7266,-2.7077,-2.7118,-2.7165,-3.0898,-3.0898,-3.0898,-3.0898,-3.0898,-3.0898,-3.0625,-3.0185,-2.9853,-2.9228,-2.8486,-2.834,-2.89,-2.9911,-3.1276,-3.2443,-3.3613,-3.521,-3.5466,-3.4548,-3.3502,-3.2545,-3.1654,-3.1117,-3.1005,-3.1279,-3.2196,-3.2432,-3.198,-3.1831,-3.0519,-2.8129,-2.5743,-2.4074,-2.3135,-2.3101,-2.3101,-2.3101,-2.3101,-2.3101,-2.3101,-2.3101,-2.3101,-2.3071,-2.2789,-2.2656,-2.2637,-2.2334,-2.1973,-2.1512,-2.1483,-2.1523,-2.1473,-2.1483,-2.1678,-2.2109,-2.2178,-2.2168,-2.2178,-2.2428,-2.2793,-2.3062,-2.3101,-2.313,-2.3208,-2.2998,-2.2881,-2.3062,-2.3062,-2.3071,-2.3052,-2.3071,-2.3101,-2.3101,-2.3101,-2.3081,-2.3101,-2.3101,-2.3101,-2.3101,-2.3101,-2.3101,-2.3101,-2.3101,-2.3101,-2.3101,-2.3101,-2.3101,-2.3101,-2.3101,-2.2945,-2.273,-2.2646,-2.2559,-2.2227,-2.2197,-2.2158,-2.2112,-2.348,-2.4136,-2.4277,-2.544,-2.6389,-2.6127,-2.6528,-2.6978,-2.7027,-2.7508,-2.7798,-2.757,-2.7745,-2.7896,-2.7582,-2.7745,-2.7833,-3.0898,-3.0898,-3.0898,-3.0898,-3.0898,-3.0898,-3.0635,-3.0234,-3.0146,-2.9658,-2.8896,-2.8457,-2.8408,-2.8644,-2.9922,-3.0669,-3.103,-3.3415,-3.3639,-3.2248,-3.2979,-3.2299,-3.0355,-3.0126,-3.0514,-3.1104,-3.1368,-3.1464,-3.1301,-3.0739,-2.8904,-2.5934,-2.4478,-2.3649,-2.3149,-2.3101,-2.3101,-2.3101,-2.3101,-2.3101,-2.3101,-2.3101,-2.3101,-2.3091,-2.3062,-2.3033,-2.3003,-2.3003,-2.2779,-2.2441,-2.234,-2.2383,-2.2393,-2.2383,-2.2578,-2.2916,-2.2964,-2.2974,-2.2974,-2.3023,-2.3062,-2.3091,-2.314,-2.334,-2.3682,-2.3691,-2.3496,-2.3237,-2.312,-2.313,-2.3101,-2.3101,-2.3101,-2.3101,-2.3101,-2.3101,-2.3101,-2.3101,-2.3101,-2.3101,-2.3101,-2.3101,-2.3101,-2.3101,-2.3101,-2.3101,-2.3101,-2.3101,-2.3101,-2.3091,-2.3091,-2.3033,-2.3023,-2.2994,-2.2906,-2.2974,-2.276,-2.2605,-2.3494,-2.4405,-2.5047,-2.5904,-2.6788,-2.7603,-2.7817,-2.7965,-2.8002,-2.8085,-2.8123,-2.8097,-2.8122,-2.8122,-2.8034,-2.816,-2.8109,-3.0898,-3.0898,-3.0898,-3.0898,-3.0898,-3.0898,-3.0781,-3.0586,-3.0322,-2.999,-2.9609,-2.8965,-2.8525,-2.8408,-2.9713,-3.0328,-3.0473,-3.2303,-3.2742,-3.1906,-3.1512,-3.0712,-2.9877,-2.9187,-2.9495,-3.0503,-3.0963,-3.1178,-3.0861,-2.9307,-2.7617,-2.6243,-2.4666,-2.3701,-2.3516,-2.3227,-2.3101,-2.3101,-2.3101,-2.3101,-2.3101,-2.3101,-2.3101,-2.3101,-2.3101,-2.3101,-2.3101,-2.3101,-2.3013,-2.2857,-2.2838,-2.2838,-2.2881,-2.2838,-2.2906,-2.3081,-2.3101,-2.3208,-2.3506,-2.3525,-2.3623,-2.3867,-2.3851,-2.3984,-2.4131,-2.416,-2.4082,-2.3861,-2.3627,-2.3525,-2.3496,-2.3247,-2.3101,-2.3101,-2.3101,-2.3101,-2.3101,-2.3101,-2.3101,-2.3101,-2.3101,-2.3101,-2.3101,-2.3101,-2.3101,-2.3101,-2.3101,-2.3101,-2.3101,-2.3101,-2.3101,-2.3101,-2.3101,-2.3101,-2.3101,-2.3101,-2.3003,-2.3189,-2.4409,-2.5669,-2.5952,-2.7438,-2.8658,-2.9026,-2.8938,-2.8938,-2.9126,-2.9076,-2.9026,-2.88,-2.8624,-2.8674,-2.9026,-2.9101,-2.9101,-3.0898,-3.0898,-3.0898,-3.0898,-3.0898,-3.0898,-3.0898,-3.0859,-3.0527,-3.0312,-3.0117,-2.9424,-2.8867,-2.8638,-2.9426,-2.9765,-2.9911,-3.1122,-3.1531,-3.1192,-3.0227,-2.9619,-2.9136,-2.8313,-2.8608,-2.9833,-3.0079,-3.0181,-2.9954,-2.7846,-2.6511,-2.6167,-2.4884,-2.4023,-2.3779,-2.3457,-2.3208,-2.3101,-2.3101,-2.3101,-2.3101,-2.3101,-2.3101,-2.3101,-2.3101,-2.3101,-2.3101,-2.3101,-2.3101,-2.3091,-2.3101,-2.3101,-2.3101,-2.3101,-2.3101,-2.3101,-2.3101,-2.3286,-2.376,-2.3789,-2.3975,-2.4355,-2.4424,-2.4473,-2.456,-2.46,-2.459,-2.4551,-2.4219,-2.3935,-2.376,-2.3354,-2.311,-2.3101,-2.3101,-2.3101,-2.3101,-2.3101,-2.3101,-2.3101,-2.3101,-2.3101,-2.3101,-2.3101,-2.3101,-2.3101,-2.3101,-2.3101,-2.3101,-2.3101,-2.3101,-2.3101,-2.3101,-2.3101,-2.3101,-2.3101,-2.3101,-2.3604,-2.4861,-2.6315,-2.6648,-2.841,-2.9728,-2.9427,-2.9498,-2.9509,-2.9412,-2.9539,-2.946,-2.9251,-2.9126,-2.9252,-2.9553,-2.9741,-2.9754,-3.0898,-3.0898,-3.0898,-3.0898,-3.0898,-3.0898,-3.0898,-3.0889,-3.085,-3.0605,-3.0205,-2.9746,-2.9297,-2.8877,-2.8657,-2.8451,-2.8601,-2.9807,-2.9765,-2.89,-2.9671,-2.9352,-2.7793,-2.73,-2.806,-2.965,-2.8694,-2.8023,-2.7872,-2.6494,-2.5536,-2.523,-2.5018,-2.4626,-2.3955,-2.3769,-2.3545,-2.3179,-2.311,-2.3101,-2.3101,-2.3101,-2.3101,-2.3101,-2.3101,-2.3101,-2.3101,-2.3101,-2.3101,-2.3101,-2.3101,-2.3101,-2.311,-2.312,-2.3159,-2.314,-2.313,-2.3325,-2.3769,-2.3867,-2.4043,-2.4385,-2.4492,-2.46,-2.4922,-2.4932,-2.4959,-2.5047,-2.4531,-2.415,-2.3818,-2.3354,-2.3101,-2.3101,-2.3101,-2.3101,-2.3101,-2.3101,-2.3101,-2.3101,-2.3101,-2.3101,-2.3101,-2.3101,-2.3101,-2.3101,-2.3101,-2.3101,-2.3101,-2.3101,-2.3101,-2.3101,-2.3101,-2.3101,-2.3101,-2.3101,-2.3101,-2.3724,-2.5062,-2.6565,-2.7261,-2.8091,-2.9079,-2.9611,-2.9157,-2.9067,-2.9365,-2.9392,-2.9211,-2.9178,-2.9526,-2.9741,-2.9767,-2.9779,-2.9779,-3.0898,-3.0898,-3.0898,-3.0898,-3.0898,-3.0898,-3.0898,-3.0898,-3.0898,-3.081,-3.0586,-3.0166,-2.9736,-2.9307,-2.8887,-2.8545,-2.8354,-2.8794,-2.8741,-2.8398,-2.8804,-2.8661,-2.809,-2.7637,-2.8026,-2.8915,-2.8374,-2.7814,-2.7468,-2.6332,-2.5615,-2.5478,-2.5205,-2.4893,-2.456,-2.4062,-2.3701,-2.3545,-2.3247,-2.3101,-2.3101,-2.3101,-2.3101,-2.3101,-2.3101,-2.3101,-2.3101,-2.3101,-2.3101,-2.3101,-2.3101,-2.3227,-2.3545,-2.3809,-2.391,-2.3955,-2.3919,-2.4141,-2.4531,-2.4656,-2.4795,-2.5185,-2.499,-2.4853,-2.5028,-2.4824,-2.4648,-2.458,-2.4268,-2.3926,-2.3769,-2.3354,-2.3101,-2.3101,-2.3101,-2.3101,-2.3101,-2.3101,-2.3101,-2.3101,-2.3101,-2.3101,-2.3101,-2.3101,-2.3101,-2.3101,-2.3101,-2.3101,-2.3101,-2.3101,-2.3101,-2.3101,-2.3101,-2.3101,-2.3101,-2.3101,-2.3343,-2.4307,-2.5515,-2.6666,-2.7533,-2.8633,-2.9663,-2.9753,-2.9157,-2.8949,-2.9404,-2.9573,-2.9326,-2.9443,-2.9779,-2.9779,-2.9779,-2.9779,-2.9779,-3.0898,-3.0898,-3.0898,-3.0898,-3.0898,-3.0898,-3.0898,-3.0898,-3.0898,-3.0898,-3.081,-3.04,-3.0029,-2.9697,-2.918,-2.8779,-2.8496,-2.8359,-2.8291,-2.8301,-2.8301,-2.8301,-2.8232,-2.7861,-2.8153,-2.8801,-2.8436,-2.7838,-2.6986,-2.61,-2.5732,-2.5654,-2.542,-2.5205,-2.5037,-2.4529,-2.4102,-2.3799,-2.3486,-2.3257,-2.313,-2.3101,-2.3101,-2.3101,-2.3101,-2.3101,-2.3101,-2.3101,-2.3101,-2.3101,-2.3101,-2.3296,-2.376,-2.4189,-2.4424,-2.4414,-2.4277,-2.4404,-2.4803,-2.4783,-2.4834,-2.5244,-2.5039,-2.4853,-2.4834,-2.459,-2.4385,-2.4189,-2.3984,-2.376,-2.3555,-2.3257,-2.3101,-2.3101,-2.3101,-2.3101,-2.3101,-2.3101,-2.3101,-2.3101,-2.3101,-2.3101,-2.3101,-2.3101,-2.3101,-2.3101,-2.3101,-2.3101,-2.3101,-2.3101,-2.3101,-2.3101,-2.3101,-2.3343,-2.3637,-2.3844,-2.3387,-2.4178,-2.5714,-2.6871,-2.7867,-2.9,-2.9714,-2.9714,-2.9585,-2.9378,-2.9365,-2.9585,-2.9702,-2.9779,-2.9779,-2.9779,-2.9779,-2.9779,-2.9779,-3.0898,-3.0898,-3.0898,-3.0898,-3.0898,-3.0898,-3.0898,-3.0898,-3.0898,-3.0898,-3.083,-3.042,-3.0234,-3.001,-2.9394,-2.8955,-2.8799,-2.8506,-2.833,-2.8301,-2.8301,-2.8301,-2.8271,-2.792,-2.8199,-2.9113,-2.8473,-2.7268,-2.5898,-2.5732,-2.5684,-2.5684,-2.5654,-2.5478,-2.5088,-2.5037,-2.4646,-2.4043,-2.3809,-2.3555,-2.3159,-2.311,-2.3101,-2.3101,-2.3101,-2.3101,-2.3101,-2.3101,-2.3101,-2.3101,-2.3101,-2.334,-2.3809,-2.4209,-2.4434,-2.4414,-2.4072,-2.4062,-2.4336,-2.4141,-2.418,-2.4463,-2.4443,-2.4414,-2.4404,-2.4326,-2.4141,-2.3848,-2.374,-2.3603,-2.3218,-2.312,-2.3101,-2.3101,-2.3101,-2.3101,-2.3101,-2.3101,-2.3101,-2.3101,-2.3101,-2.3101,-2.3101,-2.3101,-2.3101,-2.3101,-2.3101,-2.3101,-2.3101,-2.3101,-2.3101,-2.3101,-2.3135,-2.3299,-2.4049,-2.4702,-2.4039,-2.3877,-2.563,-2.7087,-2.7919,-2.8922,-2.9624,-2.974,-2.9404,-2.9197,-2.9236,-2.9443,-2.9702,-2.9779,-2.9779,-2.9779,-2.9779,-2.9779,-2.9779,-3.0898,-3.0898,-3.0898,-3.0898,-3.0898,-3.0898,-3.0898,-3.0898,-3.0898,-3.0898,-3.0869,-3.0742,-3.0508,-3.0205,-2.9893,-2.9473,-2.8926,-2.8769,-2.8564,-2.834,-2.8301,-2.8301,-2.8271,-2.8164,-2.7993,-2.7751,-2.7232,-2.6537,-2.5859,-2.5693,-2.5684,-2.5684,-2.5684,-2.5615,-2.5508,-2.5225,-2.493,-2.4695,-2.4082,-2.3711,-2.3555,-2.3247,-2.3101,-2.3101,-2.3101,-2.3101,-2.3101,-2.3101,-2.3101,-2.3101,-2.3101,-2.3413,-2.4082,-2.4346,-2.4551,-2.4775,-2.4463,-2.4258,-2.4365,-2.4287,-2.4219,-2.4326,-2.415,-2.4004,-2.3945,-2.3721,-2.3481,-2.3315,-2.3296,-2.3218,-2.313,-2.3101,-2.311,-2.3101,-2.3101,-2.3101,-2.3101,-2.3101,-2.3101,-2.3101,-2.3101,-2.3101,-2.3101,-2.3101,-2.3101,-2.3101,-2.3101,-2.3101,-2.3101,-2.3101,-2.3101,-2.3101,-2.3135,-2.3387,-2.4221,-2.4999,-2.4999,-2.5083,-2.6449,-2.736,-2.8119,-2.8843,-2.9495,-2.9702,-2.9326,-2.9197,-2.9236,-2.9404,-2.9702,-2.9779,-2.9779,-2.9779,-2.9779,-2.9779,-2.9779,-3.0898,-3.0898,-3.0898,-3.0898,-3.0898,-3.0898,-3.0898,-3.0898,-3.0898,-3.0898,-3.0898,-3.0889,-3.0732,-3.0459,-3.0273,-2.9902,-2.9385,-2.9092,-2.8779,-2.8516,-2.834,-2.8301,-2.8301,-2.8301,-2.7949,-2.7334,-2.6992,-2.6553,-2.5996,-2.5977,-2.5898,-2.5713,-2.5684,-2.5674,-2.5674,-2.5469,-2.5264,-2.5019,-2.4587,-2.4189,-2.3965,-2.3603,-2.3369,-2.3315,-2.3179,-2.3101,-2.3101,-2.3101,-2.3101,-2.313,-2.3237,-2.3652,-2.415,-2.4316,-2.4541,-2.4668,-2.4443,-2.417,-2.417,-2.3994,-2.3945,-2.3896,-2.3701,-2.3555,-2.3506,-2.3208,-2.311,-2.3101,-2.311,-2.3159,-2.333,-2.3169,-2.3227,-2.3549,-2.3276,-2.313,-2.3101,-2.3101,-2.3101,-2.3101,-2.3101,-2.3101,-2.3101,-2.3101,-2.3101,-2.3101,-2.3101,-2.3101,-2.3101,-2.3101,-2.3091,-2.3135,-2.3091,-2.3594,-2.4392,-2.5136,-2.5839,-2.6573,-2.7522,-2.7976,-2.8438,-2.9118,-2.9779,-2.9779,-2.9534,-2.9534,-2.9573,-2.9611,-2.9779,-2.9779,-2.9779,-2.9779,-2.9779,-2.9779,-2.9779,-3.0898,-3.0898,-3.0898,-3.0898,-3.0898,-3.0898,-3.0898,-3.0898,-3.0898,-3.0898,-3.0898,-3.0898,-3.0879,-3.0771,-3.0459,-3.0215,-3.0039,-2.9355,-2.8955,-2.8779,-2.8506,-2.8301,-2.8301,-2.8301,-2.8027,-2.7656,-2.764,-2.7219,-2.6445,-2.6348,-2.6182,-2.5859,-2.5732,-2.5684,-2.5674,-2.5723,-2.5508,-2.5205,-2.5096,-2.4795,-2.4443,-2.4043,-2.3818,-2.3818,-2.3452,-2.3276,-2.3296,-2.3305,-2.3208,-2.3159,-2.3467,-2.3682,-2.3848,-2.416,-2.4268,-2.4336,-2.3994,-2.3799,-2.3672,-2.3477,-2.3257,-2.3369,-2.3315,-2.3149,-2.3325,-2.3383,-2.3335,-2.3315,-2.3296,-2.3437,-2.3662,-2.3545,-2.3617,-2.4085,-2.3682,-2.3247,-2.3149,-2.314,-2.3101,-2.3101,-2.3101,-2.3101,-2.3101,-2.3101,-2.3101,-2.3101,-2.3101,-2.3101,-2.3101,-2.3091,-2.3135,-2.3299,-2.3507,-2.4264,-2.5189,-2.613,-2.6778,-2.7319,-2.8227,-2.8648,-2.8806,-2.9404,-2.9779,-2.9779,-2.9779,-2.9779,-2.9779,-2.9779,-2.9779,-2.9779,-2.9779,-2.9779,-2.9779,-2.9779,-2.9779,-3.0898,-3.0898,-3.0898,-3.0898,-3.0898,-3.0898,-3.0898,-3.0898,-3.0898,-3.0898,-3.0898,-3.0898,-3.0898,-3.0879,-3.0762,-3.0537,-3.0146,-2.9648,-2.9189,-2.8887,-2.8486,-2.831,-2.8301,-2.8291,-2.8076,-2.7787,-2.7748,-2.7383,-2.6855,-2.6592,-2.6348,-2.6211,-2.5859,-2.5693,-2.5684,-2.5684,-2.5645,-2.5527,-2.5215,-2.5086,-2.4863,-2.4473,-2.4258,-2.4238,-2.4121,-2.4053,-2.4072,-2.4082,-2.3705,-2.3149,-2.3188,-2.3467,-2.3769,-2.3682,-2.375,-2.3916,-2.3623,-2.334,-2.3286,-2.3208,-2.3301,-2.3574,-2.3613,-2.376,-2.4062,-2.4072,-2.4082,-2.4082,-2.4036,-2.4102,-2.4199,-2.416,-2.4248,-2.4277,-2.3965,-2.3643,-2.3574,-2.334,-2.3101,-2.3101,-2.312,-2.313,-2.3101,-2.3101,-2.3101,-2.3101,-2.3101,-2.3101,-2.3101,-2.3343,-2.3464,-2.4125,-2.4585,-2.5263,-2.6099,-2.7075,-2.7735,-2.8056,-2.8727,-2.9365,-2.9443,-2.9611,-2.9779,-2.9779,-2.9779,-2.9779,-2.9779,-2.9779,-2.9779,-2.9779,-2.9779,-2.9779,-2.9779,-2.9779,-2.9779,-3.0898,-3.0898,-3.0898,-3.0898,-3.0898,-3.0898,-3.0898,-3.0898,-3.0898,-3.0898,-3.0898,-3.0898,-3.0898,-3.0898,-3.0889,-3.0752,-3.0449,-3.0039,-2.96,-2.915,-2.8584,-2.832,-2.8301,-2.8291,-2.8154,-2.7959,-2.792,-2.7685,-2.7324,-2.7031,-2.6748,-2.6396,-2.6143,-2.5928,-2.5684,-2.5684,-2.5684,-2.5635,-2.5469,-2.5352,-2.5312,-2.4922,-2.4717,-2.4639,-2.4541,-2.4424,-2.4414,-2.4414,-2.416,-2.3779,-2.3647,-2.3799,-2.3994,-2.3828,-2.3799,-2.4033,-2.3809,-2.3647,-2.3627,-2.3627,-2.3779,-2.3994,-2.4053,-2.417,-2.4336,-2.4424,-2.4424,-2.4385,-2.4424,-2.4502,-2.4687,-2.4853,-2.4863,-2.4717,-2.4473,-2.4258,-2.4092,-2.3812,-2.3559,-2.3442,-2.3408,-2.333,-2.3149,-2.311,-2.311,-2.3101,-2.3101,-2.3101,-2.3135,-2.3517,-2.4079,-2.485,-2.5557,-2.6213,-2.683,-2.7735,-2.8398,-2.8767,-2.9015,-2.974,-2.9779,-2.9779,-2.9779,-2.9779,-2.9779,-2.9779,-2.9779,-2.9779,-2.9779,-2.9779,-2.9779,-2.9779,-2.9779,-2.9779,-2.9779,-3.0898,-3.0898,-3.0898,-3.0898,-3.0898,-3.0898,-3.0898,-3.0898,-3.0898,-3.0898,-3.0898,-3.0898,-3.0898,-3.0898,-3.0898,-3.0879,-3.084,-3.0342,-2.9932,-2.9404,-2.8818,-2.8418,-2.8418,-2.833,-2.8281,-2.8232,-2.8281,-2.8066,-2.7754,-2.7656,-2.7297,-2.6758,-2.6533,-2.6211,-2.5967,-2.5801,-2.5732,-2.5684,-2.5645,-2.5606,-2.5557,-2.5322,-2.5146,-2.5098,-2.4873,-2.4707,-2.4678,-2.4639,-2.4534,-2.456,-2.4473,-2.4355,-2.4385,-2.4394,-2.4385,-2.4365,-2.4316,-2.4307,-2.4365,-2.4287,-2.4404,-2.4453,-2.4492,-2.4531,-2.4639,-2.4707,-2.4707,-2.4727,-2.457,-2.4824,-2.5098,-2.5488,-2.5449,-2.5205,-2.5107,-2.4932,-2.4648,-2.4426,-2.4268,-2.3935,-2.3857,-2.3652,-2.3383,-2.3218,-2.3257,-2.3569,-2.3599,-2.3787,-2.3983,-2.4374,-2.507,-2.5867,-2.649,-2.7128,-2.7735,-2.8347,-2.8897,-2.9365,-2.9443,-2.9779,-2.9779,-2.9779,-2.9779,-2.9779,-2.9779,-2.9779,-2.9779,-2.9779,-2.9779,-2.9779,-2.9779,-2.9779,-2.9779,-2.9779,-2.9779,-3.0898,-3.0898,-3.0898,-3.0898,-3.0898,-3.0898,-3.0898,-3.0898,-3.0898,-3.0898,-3.0898,-3.0898,-3.0898,-3.0898,-3.0898,-3.0898,-3.084,-3.042,-2.998,-2.9587,-2.9053,-2.8799,-2.8691,-2.8467,-2.8301,-2.8301,-2.8301,-2.8232,-2.8096,-2.7832,-2.765,-2.7425,-2.6982,-2.667,-2.6309,-2.6191,-2.6055,-2.5752,-2.5693,-2.5684,-2.5684,-2.5596,-2.5547,-2.5537,-2.5401,-2.5382,-2.5401,-2.5401,-2.5401,-2.5293,-2.4844,-2.4531,-2.4521,-2.4502,-2.4512,-2.4521,-2.4482,-2.4453,-2.4443,-2.4512,-2.458,-2.4893,-2.4951,-2.5078,-2.5382,-2.5343,-2.5362,-2.5401,-2.5411,-2.5382,-2.5479,-2.5654,-2.5654,-2.5557,-2.5537,-2.5518,-2.5304,-2.4844,-2.4426,-2.4326,-2.4287,-2.4238,-2.4131,-2.4053,-2.4062,-2.4075,-2.4283,-2.4601,-2.4968,-2.5326,-2.6216,-2.7105,-2.7853,-2.85,-2.8956,-2.942,-2.9683,-3.0024,-3.0065,-2.9967,-2.9967,-2.9892,-2.993,-2.9867,-2.9779,-2.9779,-2.9779,-2.9779,-2.9779,-2.9779,-2.9779,-2.9779,-2.9779,-2.9779,-2.9779,-3.0898,-3.0898,-3.0898,-3.0898,-3.0898,-3.0898,-3.0898,-3.0898,-3.0898,-3.0898,-3.0898,-3.0898,-3.0898,-3.0898,-3.0898,-3.0898,-3.0781,-3.041,-3.0088,-2.9746,-2.9258,-2.8926,-2.8838,-2.8525,-2.8301,-2.8301,-2.8301,-2.8301,-2.8223,-2.8066,-2.7924,-2.7728,-2.7432,-2.71,-2.668,-2.6504,-2.6279,-2.6055,-2.5781,-2.5684,-2.5684,-2.5684,-2.5684,-2.5684,-2.5684,-2.5684,-2.5664,-2.5664,-2.5674,-2.5567,-2.5245,-2.4982,-2.5029,-2.4992,-2.5029,-2.5039,-2.4982,-2.4982,-2.5001,-2.5001,-2.5099,-2.5342,-2.5381,-2.5508,-2.5625,-2.5684,-2.5684,-2.5684,-2.5664,-2.5674,-2.5684,-2.5684,-2.5684,-2.5684,-2.5684,-2.5684,-2.5606,-2.5255,-2.4922,-2.4805,-2.4717,-2.458,-2.4521,-2.4551,-2.4463,-2.4309,-2.4408,-2.4774,-2.5868,-2.6387,-2.7538,-2.8479,-2.9282,-2.9914,-3.0313,-3.0551,-3.0533,-3.0731,-3.0756,-3.0545,-3.0357,-3.0244,-3.0118,-2.9967,-2.9779,-2.9779,-2.9779,-2.9779,-2.9779,-2.9779,-2.9779,-2.9779,-2.9804,-2.9842,-2.9817,-3.0898,-3.0898,-3.0898,-3.0898,-3.0898,-3.0898,-3.0898,-3.0898,-3.0898,-3.0898,-3.0898,-3.0898,-3.0898,-3.0898,-3.0898,-3.0898,-3.0791,-3.0576,-3.0332,-3.0225,-2.9463,-2.915,-2.8965,-2.8603,-2.8301,-2.8301,-2.8301,-2.8301,-2.8301,-2.8271,-2.8086,-2.7812,-2.7826,-2.7529,-2.7119,-2.6787,-2.6543,-2.6328,-2.6045,-2.5762,-2.5703,-2.5684,-2.5684,-2.5684,-2.5684,-2.5684,-2.5684,-2.5684,-2.5684,-2.5684,-2.5684,-2.5684,-2.5684,-2.5684,-2.5684,-2.5654,-2.5577,-2.5538,-2.5518,-2.5577,-2.5606,-2.5684,-2.5674,-2.5664,-2.5684,-2.5684,-2.5684,-2.5684,-2.5684,-2.5684,-2.5684,-2.5684,-2.5684,-2.5684,-2.5684,-2.5684,-2.5684,-2.5684,-2.5478,-2.5264,-2.5166,-2.5068,-2.4902,-2.4844,-2.4707,-2.4656,-2.4775,-2.5253,-2.643,-2.7591,-2.8821,-2.9653,-3.0413,-3.058,-3.0904,-3.106,-3.1135,-3.121,-3.1298,-3.1097,-3.0809,-3.0733,-3.0545,-2.998,-2.9779,-2.9829,-2.9817,-2.9779,-2.9779,-2.9779,-2.9817,-2.9854,-2.988,-2.9905,-2.9993,-3.0898,-3.0898,-3.0898,-3.0898,-3.0898,-3.0898,-3.0898,-3.0898,-3.0898,-3.0898,-3.0898,-3.0898,-3.0898,-3.0898,-3.0898,-3.0898,-3.0859,-3.0732,-3.0723,-3.0576,-2.9883,-2.9463,-2.9268,-2.8701,-2.835,-2.8301,-2.8301,-2.8301,-2.8301,-2.8281,-2.8223,-2.8184,-2.8154,-2.793,-2.7646,-2.7483,-2.7021,-2.6611,-2.6357,-2.6143,-2.582,-2.5703,-2.5684,-2.5684,-2.5684,-2.5684,-2.5684,-2.5684,-2.5684,-2.5684,-2.5684,-2.5684,-2.5684,-2.5684,-2.5684,-2.5684,-2.5684,-2.5684,-2.5684,-2.5684,-2.5684,-2.5684,-2.5684,-2.5684,-2.5684,-2.5684,-2.5684,-2.5703,-2.5713,-2.5713,-2.5684,-2.5752,-2.5723,-2.5713,-2.5693,-2.5713,-2.5713,-2.5684,-2.5664,-2.5547,-2.5557,-2.5508,-2.5294,-2.5177,-2.5157,-2.5451,-2.5913,-2.6744,-2.7976,-2.9124,-3.0264,-3.0906,-3.1394,-3.1354,-3.1311,-3.1386,-3.1461,-3.1549,-3.1599,-3.1549,-3.1348,-3.1286,-3.0984,-3.0444,-3.008,-3.003,-2.998,-2.9955,-3.0005,-3.0156,-3.008,-2.9993,-3.0231,-3.0482,-3.067,-3.0898,-3.0898,-3.0898,-3.0898,-3.0898,-3.0898,-3.0898,-3.0898,-3.0898,-3.0898,-3.0898,-3.0898,-3.0898,-3.0898,-3.0898,-3.0898,-3.0898,-3.0898,-3.0898,-3.0723,-3.0225,-2.9756,-2.956,-2.8896,-2.8525,-2.8359,-2.8301,-2.8301,-2.8301,-2.8301,-2.8301,-2.8291,-2.8301,-2.8184,-2.8022,-2.7787,-2.7523,-2.7041,-2.6807,-2.6504,-2.6084,-2.5898,-2.5713,-2.5693,-2.5693,-2.5684,-2.5684,-2.5684,-2.5684,-2.5684,-2.5684,-2.5684,-2.5684,-2.5693,-2.5693,-2.5703,-2.5693,-2.5684,-2.5684,-2.5684,-2.5684,-2.5684,-2.5693,-2.5684,-2.5684,-2.5684,-2.5732,-2.5752,-2.6006,-2.6074,-2.6094,-2.6074,-2.6182,-2.621,-2.6005,-2.5859,-2.5957,-2.5859,-2.582,-2.5742,-2.5674,-2.5645,-2.5635,-2.5586,-2.5645,-2.6197,-2.6945,-2.8085,-2.9326,-3.0209,-3.1139,-3.1864,-3.2227,-3.2152,-3.2043,-3.1989,-3.1989,-3.2026,-3.2026,-3.1976,-3.1888,-3.1838,-3.1474,-3.0959,-3.067,-3.0633,-3.0633,-3.0771,-3.067,-3.057,-3.0645,-3.0733,-3.0884,-3.1072,-3.1235,-3.0898,-3.0898,-3.0898,-3.0898,-3.0898,-3.0898,-3.0898,-3.0898,-3.0898,-3.0898,-3.0898,-3.0898,-3.0898,-3.0898,-3.0898,-3.0898,-3.0898,-3.0898,-3.0898,-3.0791,-3.0391,-2.999,-2.9668,-2.917,-2.874,-2.8516,-2.832,-2.8301,-2.8301,-2.8301,-2.8301,-2.8301,-2.8301,-2.8301,-2.8193,-2.8031,-2.7855,-2.7611,-2.7353,-2.6943,-2.6533,-2.6201,-2.5947,-2.5908,-2.5918,-2.5889,-2.5918,-2.5732,-2.5693,-2.5723,-2.5771,-2.5801,-2.5723,-2.5771,-2.583,-2.581,-2.5742,-2.5693,-2.5684,-2.5684,-2.5732,-2.5869,-2.584,-2.5869,-2.5986,-2.6083,-2.6025,-2.6015,-2.6269,-2.6514,-2.6514,-2.6504,-2.666,-2.6738,-2.6426,-2.6103,-2.6318,-2.6299,-2.6103,-2.6025,-2.5849,-2.5781,-2.5771,-2.583,-2.583,-2.6524,-2.7315,-2.8541,-2.9727,-3.0496,-3.1432,-3.2445,-3.2948,-3.2948,-3.286,-3.2784,-3.2734,-3.2684,-3.2684,-3.2634,-3.2491,-3.239,-3.1989,-3.17,-3.1775,-3.1738,-3.1675,-3.1399,-3.1135,-3.106,-3.1286,-3.1436,-3.1512,-3.1599,-3.1738,-3.0898,-3.0898,-3.0898,-3.0898,-3.0898,-3.0898,-3.0898,-3.0898,-3.0898,-3.0898,-3.0898,-3.0898,-3.0898,-3.0898,-3.0898,-3.0898,-3.0898,-3.0898,-3.0898,-3.082,-3.0469,-3.0205,-2.998,-2.9268,-2.8984,-2.875,-2.8467,-2.832,-2.8301,-2.8301,-2.8301,-2.8301,-2.8301,-2.8301,-2.8281,-2.8174,-2.8027,-2.7734,-2.7617,-2.7363,-2.7002,-2.6836,-2.6787,-2.6699,-2.6504,-2.6299,-2.626,-2.6015,-2.583,-2.5869,-2.6152,-2.6103,-2.583,-2.6123,-2.6269,-2.6201,-2.5996,-2.5693,-2.5771,-2.584,-2.5966,-2.625,-2.6309,-2.6514,-2.6611,-2.6709,-2.6719,-2.6865,-2.6924,-2.6943,-2.6943,-2.6934,-2.6982,-2.6992,-2.6904,-2.6787,-2.6894,-2.668,-2.6484,-2.6396,-2.6309,-2.6084,-2.5967,-2.5976,-2.6062,-2.6849,-2.7778,-2.8958,-3.0135,-3.0956,-3.1677,-3.2698,-3.3124,-3.3124,-3.3124,-3.3124,-3.3162,-3.3149,-3.3111,-3.3086,-3.2935,-3.2754,-3.291,-3.2709,-3.2747,-3.2441,-3.2039,-3.1725,-3.1499,-3.1574,-3.1813,-3.1964,-3.2064,-3.2152,-3.224,-3.0898,-3.0898,-3.0898,-3.0898,-3.0898,-3.0898,-3.0898,-3.0898,-3.0898,-3.0898,-3.0898,-3.0898,-3.0898,-3.0898,-3.0898,-3.0898,-3.0898,-3.0898,-3.0898,-3.0898,-3.0654,-3.0449,-3.0166,-2.9805,-2.9492,-2.8975,-2.873,-2.8506,-2.8408,-2.832,-2.8301,-2.8301,-2.8301,-2.8301,-2.8301,-2.8301,-2.8193,-2.7998,-2.7855,-2.7578,-2.7373,-2.7168,-2.7021,-2.7021,-2.6836,-2.6758,-2.6689,-2.6611,-2.6415,-2.6494,-2.6689,-2.666,-2.6493,-2.6641,-2.6738,-2.6728,-2.6592,-2.6484,-2.6484,-2.6405,-2.6553,-2.666,-2.6758,-2.6816,-2.6982,-2.7041,-2.7051,-2.7002,-2.7246,-2.7363,-2.7383,-2.7383,-2.7549,-2.7559,-2.7344,-2.7324,-2.7275,-2.7051,-2.6875,-2.6797,-2.6709,-2.6514,-2.6269,-2.6094,-2.6328,-2.6985,-2.7783,-2.879,-3.0204,-3.1468,-3.2196,-3.2884,-3.3124,-3.3124,-3.3124,-3.3124,-3.3212,-3.3212,-3.3174,-3.3136,-3.3124,-3.3099,-3.3124,-3.3124,-3.2986,-3.2654,-3.2303,-3.229,-3.2319,-3.2315,-3.2353,-3.2453,-3.2541,-3.2654,-3.2742,-3.0898,-3.0898,-3.0898,-3.0898,-3.0898,-3.0898,-3.0898,-3.0898,-3.0898,-3.0898,-3.0898,-3.0898,-3.0898,-3.0898,-3.0898,-3.0898,-3.0898,-3.0898,-3.0898,-3.0898,-3.0859,-3.0684,-3.043,-3.0215,-2.9834,-2.9219,-2.915,-2.8965,-2.8769,-2.8633,-2.8594,-2.832,-2.8301,-2.8301,-2.8301,-2.8301,-2.8252,-2.8223,-2.7988,-2.7904,-2.7826,-2.7529,-2.7412,-2.7334,-2.7246,-2.7178,-2.7168,-2.7002,-2.6973,-2.6973,-2.7109,-2.71,-2.6973,-2.706,-2.7168,-2.7178,-2.7119,-2.7207,-2.7178,-2.7139,-2.7109,-2.7168,-2.7314,-2.7412,-2.7393,-2.7334,-2.7344,-2.7441,-2.7637,-2.7793,-2.7822,-2.7822,-2.792,-2.791,-2.7754,-2.7734,-2.7685,-2.7519,-2.7344,-2.7217,-2.7139,-2.7041,-2.6758,-2.6377,-2.6566,-2.714,-2.7904,-2.8813,-3.0274,-3.197,-3.2556,-3.3181,-3.337,-3.3395,-3.3407,-3.337,-3.34,-3.34,-3.3332,-3.3307,-3.3382,-3.3262,-3.3124,-3.3124,-3.3212,-3.3011,-3.2679,-3.2935,-3.3111,-3.291,-3.2742,-3.2935,-3.3048,-3.3124,-3.3124,-3.0898,-3.0898,-3.0898,-3.0898,-3.0898,-3.0898,-3.0898,-3.0898,-3.0898,-3.0898,-3.0898,-3.0898,-3.0898,-3.0898,-3.0898,-3.0898,-3.0898,-3.0898,-3.0898,-3.0898,-3.0879,-3.084,-3.0664,-3.043,-3.0166,-2.9961,-2.9687,-2.9502,-2.9489,-2.9258,-2.8906,-2.8418,-2.8437,-2.835,-2.832,-2.834,-2.8301,-2.8291,-2.8174,-2.8184,-2.8184,-2.8115,-2.8096,-2.8037,-2.7822,-2.7669,-2.765,-2.7334,-2.7178,-2.7197,-2.7451,-2.749,-2.7344,-2.749,-2.7607,-2.7627,-2.7627,-2.7744,-2.7822,-2.7549,-2.7334,-2.7598,-2.7871,-2.8027,-2.7978,-2.8125,-2.8174,-2.8057,-2.8086,-2.8144,-2.8193,-2.8252,-2.8213,-2.8154,-2.8057,-2.8057,-2.8047,-2.8086,-2.79,-2.7695,-2.7568,-2.749,-2.8011,-2.7804,-2.779,-2.8355,-2.9672,-3.0599,-3.1262,-3.265,-3.299,-3.3407,-3.3709,-3.3834,-3.3909,-3.3947,-3.4048,-3.4022,-3.396,-3.3897,-3.3872,-3.3621,-3.347,-3.3407,-3.352,-3.3294,-3.3224,-3.3432,-3.3508,-3.325,-3.3124,-3.3124,-3.3124,-3.3124,-3.3124,-3.0898,-3.0898,-3.0898,-3.0898,-3.0898,-3.0898,-3.0898,-3.0898,-3.0898,-3.0898,-3.0898,-3.0898,-3.0898,-3.0898,-3.0898,-3.0898,-3.0898,-3.0898,-3.0898,-3.0898,-3.0898,-3.0898,-3.0791,-3.0693,-3.0488,-3.0244,-3.0,-2.9775,-2.9616,-2.9724,-2.9528,-2.9092,-2.8848,-2.8701,-2.8633,-2.8457,-2.834,-2.831,-2.8301,-2.8301,-2.8301,-2.8301,-2.8301,-2.8262,-2.8203,-2.8057,-2.8027,-2.79,-2.7832,-2.7822,-2.7949,-2.7851,-2.7754,-2.7939,-2.7998,-2.8018,-2.8008,-2.8115,-2.8223,-2.7969,-2.791,-2.7978,-2.8203,-2.8301,-2.8301,-2.8301,-2.8301,-2.8281,-2.8301,-2.8301,-2.8291,-2.8281,-2.8281,-2.8291,-2.8301,-2.8301,-2.8301,-2.8301,-2.8252,-2.7969,-2.7978,-2.7998,-2.8729,-2.9425,-2.9495,-2.9708,-3.11,-3.2301,-3.2875,-3.3261,-3.3587,-3.3872,-3.4186,-3.4349,-3.4437,-3.4587,-3.4718,-3.4655,-3.46,-3.4442,-3.4367,-3.4342,-3.4236,-3.4098,-3.3985,-3.3972,-3.3985,-3.406,-3.3909,-3.3533,-3.33,-3.3124,-3.3124,-3.3237,-3.3312,-3.0898,-3.0898,-3.0898,-3.0898,-3.0898,-3.0898,-3.0898,-3.0898,-3.0898,-3.0898,-3.0898,-3.0898,-3.0898,-3.0898,-3.0898,-3.0898,-3.0898,-3.0898,-3.0898,-3.0898,-3.0898,-3.0898,-3.0898,-3.084,-3.0693,-3.0439,-3.0381,-3.0234,-3.0068,-2.998,-2.999,-2.9863,-2.9531,-2.9316,-2.9014,-2.8711,-2.8486,-2.8467,-2.834,-2.8301,-2.8301,-2.8301,-2.8301,-2.8301,-2.8262,-2.8252,-2.8242,-2.8184,-2.8203,-2.8203,-2.8252,-2.8271,-2.8281,-2.8291,-2.8301,-2.8301,-2.8301,-2.8301,-2.8301,-2.8291,-2.8291,-2.8252,-2.8262,-2.8301,-2.8301,-2.8301,-2.8301,-2.8301,-2.8301,-2.8301,-2.831,-2.8301,-2.8301,-2.8301,-2.8301,-2.8301,-2.8301,-2.8301,-2.8301,-2.8213,-2.8455,-2.8883,-2.9159,-3.0118,-3.1812,-3.2025,-3.3031,-3.3865,-3.3952,-3.426,-3.4287,-3.4562,-3.4763,-3.4843,-3.4931,-3.5253,-3.5479,-3.5429,-3.5303,-3.5006,-3.4919,-3.4893,-3.4731,-3.4455,-3.443,-3.463,-3.4593,-3.4487,-3.4161,-3.3796,-3.3671,-3.3646,-3.3771,-3.3909,-3.3822,-3.0898,-3.0898,-3.0898,-3.0898,-3.0898,-3.0898,-3.0898,-3.0898,-3.0898,-3.0898,-3.0898,-3.0898,-3.0898,-3.0898,-3.0898,-3.0898,-3.0898,-3.0898,-3.0898,-3.0898,-3.0898,-3.0898,-3.0898,-3.0869,-3.084,-3.0879,-3.0791,-3.0723,-3.0742,-3.0635,-3.0693,-3.0615,-3.0244,-2.9863,-2.9541,-2.9121,-2.8916,-2.8848,-2.8545,-2.8408,-2.8369,-2.835,-2.8301,-2.8301,-2.8301,-2.8301,-2.8301,-2.8301,-2.8301,-2.8301,-2.8301,-2.8301,-2.8301,-2.8301,-2.8301,-2.8301,-2.8301,-2.8301,-2.8301,-2.8301,-2.834,-2.831,-2.8301,-2.8301,-2.8301,-2.8301,-2.8301,-2.8301,-2.835,-2.8359,-2.834,-2.8369,-2.8437,-2.8486,-2.8525,-2.8545,-2.8584,-2.8594,-2.8652,-2.8643,-2.9359,-2.9974,-2.9984,-3.0742,-3.3315,-3.4583,-3.5288,-3.544,-3.513,-3.5135,-3.5144,-3.5228,-3.5403,-3.5454,-3.5604,-3.5981,-3.6216,-3.6119,-3.5956,-3.5667,-3.5382,-3.5328,-3.5127,-3.4843,-3.5002,-3.5253,-3.5039,-3.4776,-3.4726,-3.4713,-3.45,-3.4462,-3.4575,-3.4525,-3.4336,-3.0898,-3.0898,-3.0898,-3.0898,-3.0898,-3.0898,-3.0898,-3.0898,-3.0898,-3.0898,-3.0898,-3.0898,-3.0898,-3.0898,-3.0898,-3.0898,-3.0898,-3.0898,-3.0898,-3.0898,-3.0898,-3.0898,-3.0898,-3.0898,-3.0898,-3.0898,-3.0898,-3.0898,-3.0859,-3.0898,-3.0898,-3.081,-3.0674,-3.0264,-2.9736,-2.9385,-2.9355,-2.9277,-2.8984,-2.8721,-2.8682,-2.8486,-2.833,-2.834,-2.833,-2.832,-2.8301,-2.8301,-2.8301,-2.8301,-2.8301,-2.8301,-2.8301,-2.8301,-2.8301,-2.8301,-2.8301,-2.8301,-2.8389,-2.8467,-2.8555,-2.8437,-2.8369,-2.8389,-2.831,-2.8301,-2.8301,-2.8408,-2.8603,-2.8672,-2.8721,-2.9023,-2.916,-2.9199,-2.9219,-2.9219,-2.9238,-2.9219,-2.9228,-2.915,-2.9565,-3.0905,-3.1398,-3.1388,-3.3474,-3.4754,-3.526,-3.5707,-3.5605,-3.5831,-3.6003,-3.5968,-3.6091,-3.6069,-3.6182,-3.6342,-3.6392,-3.6304,-3.6279,-3.6216,-3.5968,-3.5742,-3.5755,-3.5655,-3.5742,-3.5805,-3.5629,-3.5529,-3.5742,-3.5755,-3.5341,-3.5002,-3.4926,-3.4813,-3.458,-3.0898,-3.0898,-3.0898,-3.0898,-3.0898,-3.0898,-3.0898,-3.0898,-3.0898,-3.0898,-3.0898,-3.0898,-3.0898,-3.0898,-3.0898,-3.0898,-3.0898,-3.0898,-3.0898,-3.0898,-3.0898,-3.0898,-3.0898,-3.0898,-3.0898,-3.0898,-3.0898,-3.0898,-3.0898,-3.0898,-3.0898,-3.0898,-3.0889,-3.0586,-3.0146,-2.9951,-2.9795,-2.9678,-2.9404,-2.915,-2.9082,-2.8926,-2.8701,-2.8594,-2.8516,-2.8467,-2.835,-2.8301,-2.8301,-2.831,-2.8301,-2.8301,-2.8301,-2.8301,-2.8301,-2.8301,-2.8301,-2.8369,-2.8564,-2.8711,-2.8799,-2.8848,-2.874,-2.873,-2.873,-2.8828,-2.8818,-2.8896,-2.9004,-2.9082,-2.9209,-2.9607,-2.9665,-2.9685,-2.9619,-2.9609,-2.959,-2.956,-2.9607,-2.9548,-3.0209,-3.1549,-3.2597,-3.2848,-3.3461,-3.4321,-3.5049,-3.5404,-3.5815,-3.615,-3.6426,-3.6556,-3.6493,-3.6417,-3.6367,-3.6367,-3.6405,-3.6417,-3.6493,-3.6581,-3.638,-3.6141,-3.6317,-3.6417,-3.6254,-3.6166,-3.6292,-3.6355,-3.6254,-3.6128,-3.5889,-3.5542,-3.5303,-3.5203,-3.5127,-3.0879,-3.0889,-3.0898,-3.0898,-3.0898,-3.0898,-3.0898,-3.0898,-3.0898,-3.0898,-3.0898,-3.0898,-3.0898,-3.0898,-3.0898,-3.0898,-3.0898,-3.0898,-3.0898,-3.0898,-3.0898,-3.0898,-3.0898,-3.0898,-3.0898,-3.0898,-3.0898,-3.0898,-3.0898,-3.0898,-3.0898,-3.0898,-3.0898,-3.0762,-3.0596,-3.041,-3.0244,-3.0117,-2.9824,-2.9619,-2.9541,-2.9463,-2.9199,-2.9033,-2.8935,-2.8789,-2.8623,-2.8467,-2.8408,-2.8359,-2.831,-2.8301,-2.8301,-2.8301,-2.8301,-2.833,-2.8359,-2.8584,-2.8887,-2.9033,-2.9248,-2.9434,-2.958,-2.959,-2.9453,-2.9336,-2.9287,-2.9346,-2.9473,-2.9541,-2.9704,-2.9783,-2.9851,-2.9851,-2.9785,-2.9775,-2.9766,-2.9756,-2.9766,-3.0139,-3.1074,-3.209,-3.2792,-3.3239,-3.3334,-3.3498,-3.4009,-3.4039,-3.4593,-3.5893,-3.6245,-3.6883,-3.6795,-3.6644,-3.6644,-3.6807,-3.6883,-3.6985,-3.6883,-3.6883,-3.6669,-3.6568,-3.6644,-3.6656,-3.648,-3.6417,-3.6417,-3.6417,-3.6392,-3.6267,-3.6141,-3.6091,-3.5805,-3.5943,-3.6003,-3.0586,-3.0879,-3.0898,-3.0898,-3.0898,-3.0898,-3.0898,-3.0898,-3.0898,-3.0898,-3.0898,-3.0898,-3.0898,-3.0898,-3.0898,-3.0898,-3.0898,-3.0898,-3.0898,-3.0898,-3.0898,-3.0898,-3.0898,-3.0898,-3.0898,-3.0898,-3.0898,-3.0898,-3.0898,-3.0898,-3.0898,-3.0898,-3.0898,-3.0898,-3.085,-3.0752,-3.0684,-3.0547,-3.0215,-3.0078,-2.9932,-2.9805,-2.958,-2.9443,-2.9385,-2.9238,-2.9111,-2.8848,-2.8769,-2.874,-2.8447,-2.832,-2.8301,-2.831,-2.8359,-2.8711,-2.8789,-2.8926,-2.9336,-2.9648,-2.9863,-3.0039,-3.0264,-3.0106,-2.988,-2.9658,-2.9678,-2.9785,-2.9932,-3.001,-3.0098,-3.0166,-3.0291,-3.0273,-3.0264,-3.0264,-3.0264,-3.0264,-3.0321,-3.0529,-3.1472,-3.2121,-3.2887,-3.3204,-3.3291,-3.3106,-3.3052,-3.3078,-3.3711,-3.5147,-3.6026,-3.6664,-3.7249,-3.7161,-3.7362,-3.755,-3.7563,-3.7575,-3.7387,-3.7287,-3.7324,-3.7224,-3.7048,-3.691,-3.687,-3.6644,-3.6417,-3.6505,-3.6769,-3.6505,-3.6367,-3.6392,-3.6417,-3.6455,-3.6443,-3.0361,-3.0635,-3.082,-3.0898,-3.0898,-3.0898,-3.0898,-3.0898,-3.0898,-3.0898,-3.0898,-3.0898,-3.0898,-3.0898,-3.0898,-3.0898,-3.0898,-3.0898,-3.0898,-3.0898,-3.0898,-3.0898,-3.0898,-3.0898,-3.0898,-3.0898,-3.0898,-3.0898,-3.0898,-3.0898,-3.0898,-3.0898,-3.0898,-3.0898,-3.0879,-3.0859,-3.0869,-3.0781,-3.0635,-3.0498,-3.0342,-3.0185,-3.0059,-2.9844,-2.9824,-2.9766,-2.96,-2.9277,-2.9209,-2.918,-2.8867,-2.8809,-2.8818,-2.8828,-2.8857,-2.917,-2.9189,-2.9414,-2.9756,-2.999,-3.0244,-3.0478,-3.0713,-3.0566,-3.0381,-3.0225,-3.0205,-3.0244,-3.0371,-3.0488,-3.0596,-3.0684,-3.0771,-3.0859,-3.0859,-3.0859,-3.0859,-3.0859,-3.0908,-3.1005,-3.1494,-3.2153,-3.2671,-3.3024,-3.3138,-3.2884,-3.2842,-3.2991,-3.3785,-3.516,-3.5854,-3.6313,-3.7209,-3.7826,-3.804,-3.8153,-3.8052,-3.7952,-3.7801,-3.7776,-3.7927,-3.7839,-3.7575,-3.7412,-3.7299,-3.7111,-3.7008,-3.7096,-3.7186,-3.6935,-3.6872,-3.7048,-3.6983,-3.6644,-3.6581,-3.0127,-3.0264,-3.0703,-3.0898,-3.0898,-3.0898,-3.0898,-3.0898,-3.0898,-3.0898,-3.0898,-3.0898,-3.0898,-3.0898,-3.0898,-3.0898,-3.0898,-3.0898,-3.0898,-3.0898,-3.0898,-3.0898,-3.0898,-3.0898,-3.0898,-3.0898,-3.0898,-3.0898,-3.0898,-3.0898,-3.0898,-3.0898,-3.0898,-3.0898,-3.0898,-3.0898,-3.0898,-3.0869,-3.084,-3.0771,-3.081,-3.0791,-3.0703,-3.0332,-3.0215,-3.0127,-2.988,-2.9714,-2.9619,-2.9619,-2.9541,-2.9538,-2.9453,-2.9443,-2.9538,-2.9655,-2.9609,-2.9873,-3.0127,-3.0332,-3.0508,-3.0713,-3.0889,-3.082,-3.0684,-3.0615,-3.0586,-3.0576,-3.0684,-3.0703,-3.0771,-3.0791,-3.0859,-3.0898,-3.0898,-3.0898,-3.0898,-3.0898,-3.0947,-3.1005,-3.115,-3.1734,-3.2001,-3.2277,-3.2153,-3.2256,-3.2313,-3.2432,-3.3279,-3.4651,-3.5852,-3.6296,-3.7599,-3.8479,-3.8517,-3.8567,-3.8404,-3.8278,-3.8253,-3.8341,-3.8567,-3.8379,-3.8078,-3.7852,-3.7626,-3.7776,-3.7764,-3.7713,-3.7651,-3.7663,-3.7663,-3.7852,-3.7626,-3.7136,-3.6973,-2.9609,-3.0234,-3.0703,-3.0898,-3.0898,-3.0898,-3.0898,-3.0898,-3.0898,-3.0898,-3.0898,-3.0898,-3.0898,-3.0898,-3.0898,-3.0898,-3.0898,-3.0898,-3.0898,-3.0898,-3.0898,-3.0898,-3.0898,-3.0898,-3.0898,-3.0898,-3.0898,-3.0898,-3.0898,-3.0898,-3.0898,-3.0898,-3.0898,-3.0898,-3.0898,-3.0898,-3.0898,-3.0898,-3.0898,-3.0898,-3.0898,-3.0889,-3.0791,-3.0703,-3.0664,-3.0635,-3.0391,-3.0195,-3.0107,-3.0019,-2.9707,-2.9646,-2.957,-2.9646,-2.9756,-2.9961,-3.0049,-3.0283,-3.0508,-3.0644,-3.0752,-3.0801,-3.0898,-3.0898,-3.0879,-3.0898,-3.0898,-3.0898,-3.0898,-3.0898,-3.0898,-3.0898,-3.0898,-3.0898,-3.0898,-3.0898,-3.0898,-3.0898,-3.0898,-3.0898,-3.0898,-3.1112,-3.1392,-3.1383,-3.1218,-3.1218,-3.1208,-3.1459,-3.2041,-3.3322,-3.5922,-3.6837,-3.8438,-3.9193,-3.9004,-3.9044,-3.8906,-3.9007,-3.9069,-3.9145,-3.9195,-3.8919,-3.8592,-3.8178,-3.7952,-3.8216,-3.8291,-3.8027,-3.8002,-3.8216,-3.8278,-3.8391,-3.8278,-3.7877,-3.7751,-2.9199,-2.9697,-3.0322,-3.0703,-3.0869,-3.0898,-3.0898,-3.0898,-3.0898,-3.0898,-3.0898,-3.0898,-3.0898,-3.0898,-3.0898,-3.0898,-3.0898,-3.0898,-3.0898,-3.0898,-3.0898,-3.0898,-3.0898,-3.0898,-3.0898,-3.0898,-3.0898,-3.0898,-3.0898,-3.0898,-3.0898,-3.0898,-3.0898,-3.0898,-3.0898,-3.0898,-3.0898,-3.0898,-3.0898,-3.0898,-3.0898,-3.0889,-3.0889,-3.0898,-3.0898,-3.0898,-3.083,-3.0615,-3.0566,-3.0488,-3.0303,-3.0234,-3.0234,-3.0301,-3.0312,-3.0439,-3.0537,-3.0605,-3.081,-3.0898,-3.0898,-3.0898,-3.0898,-3.0898,-3.0898,-3.0898,-3.0898,-3.0898,-3.0898,-3.0898,-3.0898,-3.0898,-3.0898,-3.0898,-3.0898,-3.0898,-3.0898,-3.0898,-3.0898,-3.0898,-3.0898,-3.0947,-3.117,-3.117,-3.1005,-3.1005,-3.0957,-3.1441,-3.1883,-3.193,-3.457,-3.6661,-3.7873,-3.8635,-3.8334,-3.8803,-3.9484,-3.9622,-3.9697,-3.9597,-3.9433,-3.9333,-3.9107,-3.8793,-3.8668,-3.8843,-3.8818,-3.8592,-3.8718,-3.8994,-3.8944,-3.8881,-3.8718,-3.863,-3.8617,-2.8906,-2.9111,-2.9873,-3.0469,-3.085,-3.0898,-3.0898,-3.0898,-3.0898,-3.0898,-3.0898,-3.0898,-3.0898,-3.0898,-3.0898,-3.0898,-3.0898,-3.0898,-3.0898,-3.0898,-3.0898,-3.0898,-3.0898,-3.0898,-3.0898,-3.0898,-3.0898,-3.0898,-3.0898,-3.0898,-3.0898,-3.0898,-3.0898,-3.0898,-3.0898,-3.0898,-3.0898,-3.0898,-3.0898,-3.0898,-3.0898,-3.0898,-3.0898,-3.0898,-3.0898,-3.0898,-3.0889,-3.0889,-3.0879,-3.084,-3.0771,-3.0732,-3.0713,-3.0684,-3.0723,-3.0791,-3.0781,-3.082,-3.0898,-3.0898,-3.0898,-3.0898,-3.0898,-3.0898,-3.0898,-3.0898,-3.0898,-3.0898,-3.0898,-3.0898,-3.0898,-3.0898,-3.0898,-3.0898,-3.0898,-3.0898,-3.0898,-3.0898,-3.0898,-3.0898,-3.0898,-3.0898,-3.0898,-3.0898,-3.0908,-3.0908,-3.119,-3.1825,-3.214,-3.193,-3.2975,-3.4736,-3.6054,-3.6649,-3.7465,-3.8348,-3.9245,-3.9697,-3.9697,-3.9697,-3.9659,-3.9534,-3.9496,-3.9559,-3.9509,-3.9396,-3.9433,-3.9333,-3.9521,-3.9546,-3.9433,-3.9258,-3.9308,-3.927,-3.9446,-2.8818,-2.9492,-2.999,-3.0459,-3.0859,-3.0898,-3.0898,-3.0898,-3.0898,-3.0898,-3.0898,-3.0898,-3.0898,-3.0898,-3.0898,-3.0898,-3.0898,-3.0898,-3.0898,-3.0898,-3.0898,-3.0898,-3.0898,-3.0898,-3.0898,-3.0898,-3.0898,-3.0898,-3.0898,-3.0898,-3.0898,-3.0898,-3.0898,-3.0898,-3.0898,-3.0898,-3.0898,-3.0898,-3.0898,-3.0898,-3.0898,-3.0898,-3.0898,-3.0898,-3.0898,-3.0898,-3.0898,-3.0898,-3.0889,-3.0889,-3.0898,-3.0898,-3.0898,-3.0898,-3.0898,-3.0898,-3.0898,-3.0898,-3.0898,-3.0898,-3.0898,-3.0898,-3.0898,-3.0898,-3.0898,-3.0898,-3.0898,-3.0898,-3.0898,-3.0898,-3.0898,-3.0898,-3.0898,-3.0898,-3.0898,-3.0898,-3.0898,-3.0898,-3.0898,-3.0898,-3.0898,-3.0898,-3.0898,-3.0928,-3.0986,-3.1006,-3.1064,-3.161,-3.1728,-3.1686,-3.178,-3.3203,-3.4724,-3.5999,-3.7252,-3.7849,-3.8635,-3.9245,-3.9697,-3.9697,-3.9697,-3.9697,-3.9697,-3.9697,-3.9697,-3.9609,-3.9685,-3.9697,-3.9685,-3.9634,-3.9659,-3.9634,-3.9697,-3.9697,-3.9697]},{"header":{"parameterUnit":"m.s-1","parameterCategory":1,"la1":31.0,"la2":29.5877,"lo1":-88.7671,"lo2":-86.6584,"dy":0.0162,"dx":0.0185,"nx":115,"ny":88,"refTime":"2026-04-03T12:00:00:Z","depth":0,"parameterNumber":3,"parameterNumberName":"V-component_of_WINDS"},"data":[0.0,0.0,0.0,0.0,0.0,0.0,0.0,0.0,0.0,0.0,0.0,0.0,0.0,0.0,0.0,0.0,0.0,0.0,0.0,0.0,0.0,0.0,0.0,0.0,0.0,0.0,0.0,0.0,0.0,0.0,0.0,0.0,0.0,0.0,0.0,0.0,0.0,0.0,0.0,0.0,0.0,0.0,0.0,0.0,0.0,0.0,0.0,0.0,0.0,0.0,0.0,0.0,0.0,0.0,0.0,0.0,0.0,0.0,0.0,0.0,0.0,0.0,0.0,0.0,0.0,0.0,0.0,0.0,0.0,0.0,0.0,0.0,0.0,0.0,0.0,0.0,0.0,0.0,0.0,0.0,0.0,0.0,0.0,0.0,0.0,0.0,0.0,0.0,0.0,0.0,0.0,0.0,0.0,0.0,0.0,0.0,0.0,0.0,0.0,0.0,0.0,0.0,0.0,0.0,0.0,0.0,0.0,0.0,0.0,0.0,0.0,0.0,0.0,0.0,0.0,0.0,0.0,0.0,0.0,0.0,0.0,0.0,0.0,0.0,0.0,0.0,0.0,0.0,0.0,0.0,0.0,0.0,0.0,0.0,0.0,0.0,0.0,0.0,0.0,0.0,0.0,0.0,0.0,0.0,0.0,0.0,0.0,0.0,0.0,0.0,0.0,0.0,0.0,0.0,0.0,0.0,0.0,0.0,0.0,0.0,0.0,0.0,0.0,0.0,0.0,0.0,0.0,0.0,0.0,0.0,0.0,0.0,0.0,0.0,0.0,0.0,0.0,0.0,0.0,0.0,0.0,0.0,0.0,0.0,0.0,0.0,0.0,0.0,0.0,0.0,0.0,0.0,0.0,0.0,0.0,0.0,0.0,0.0,0.0,0.0,0.0,0.0,0.0,0.0,0.0,0.0,0.0,0.0,0.0,0.0,0.0,0.0,0.0,0.0,0.0,0.0,0.0,0.0,0.0,0.0,0.0,0.0,0.0,0.0,0.0,0.0,0.0,0.0,0.0,0.0,0.0,0.0,0.0,0.0,0.0,0.0,0.0,0.0,0.0,0.0,0.0,0.0,0.0,0.0,0.0,0.0,0.0,0.0,0.0,0.0,0.0,0.0,0.0,0.0,0.0,0.0,0.0,0.0,0.0,0.0,0.0,0.0,0.0,0.0,0.0,0.0,0.0,0.0,0.0,0.0,0.0,0.0,0.0,0.0,0.0,0.0,0.0,0.0,0.0,0.0,0.0,0.0,0.0,0.0,0.0,0.0,0.0,0.0,0.0,0.0,0.0,0.0,0.0,0.0,0.0,0.0,0.0,0.0,0.0,0.0,0.0,0.0,0.0,0.0,0.0,0.0,0.0,0.0,0.0,0.0,0.0,0.0,0.0,0.0,0.0,0.0,0.0,0.0,0.0,0.0,0.0,0.0,0.0,0.0,0.0,0.0,0.0,0.0,0.0,0.0,0.0,0.0,0.0,0.0,0.0,0.0,0.0,0.0,0.0,0.0,0.0,0.0,0.0,0.0,0.0,0.0,0.0,0.0,0.0,0.0,0.0,0.0,0.0,0.0,0.0,0.0,0.0,0.0,0.0,0.0,0.0,0.0,0.0,0.0,0.0,0.0,0.0,0.0,0.0,0.0,0.0,0.0,0.0,0.0,0.0,0.0,0.0,0.0,0.0,0.0,0.0,0.0,0.0,0.0,0.0,0.0,0.0,0.0,0.0,0.0,0.0,0.0,0.0,0.0,0.0,0.0,0.0,0.0,0.0,0.0,0.0,0.0,0.0,0.0,0.0,0.0,0.0,0.0,0.0,0.0,0.0,0.0,0.0,0.0,0.0,0.0,0.0,0.0,0.0,0.0,0.0,0.0,0.0,0.0,0.0,0.0,0.0,0.0,0.0,0.0,0.0,0.0,0.0,0.0,0.0,0.0,0.0,0.0,0.0,0.0,0.0,0.0,0.0,0.0,0.0,0.0,0.0,0.0,0.0,0.0,0.0,0.0,0.0,0.0,0.0,0.0,0.0,0.0,0.0,0.0,0.0,0.0,0.0,0.0,0.0,0.0,0.0,0.0,0.0,0.0,0.0,0.0,0.0,0.0,0.0,0.0,0.0,0.0,0.0,0.0,0.0,0.0,0.0,0.0,0.0,0.0,0.0,0.0,0.0,0.0,0.0,0.0,0.0,0.0,0.0,0.0,0.0,0.0,0.0,0.0,0.0,0.0,0.0,0.0,0.0,0.0,0.0,0.0,0.0,0.0,0.0,0.0,0.0,0.0,0.0,0.0,0.0,0.0,0.0,0.0,0.0,0.0,0.0,0.0,0.0,0.0,0.0,0.0,0.0,0.0,0.0,0.0,0.0,0.0,0.0,0.0,0.0,0.0,0.0,0.0,0.0,0.0,0.0,0.0,0.0,0.0,0.0,0.0,0.0,0.0,0.0,0.0,0.0,0.0,0.0,0.0,0.0,0.0,0.0,0.0,0.0,0.0,0.0,0.0,0.0,0.0,0.0,0.0,0.0,0.0,0.0,0.0,0.0,0.0,0.0,0.0,0.0,0.0,0.0,0.0,0.0,0.0,0.0,0.0,0.0,0.0,0.0,0.0,0.0,0.0,0.0,0.0,0.0,0.0,0.0,0.0,0.0,0.0,0.0,0.0,0.0,0.0,0.0,0.0,0.0,0.0,0.0,0.0,0.0,0.0,0.0,0.0,0.0,0.0,0.0,0.0,0.0,0.0,0.0,0.0,0.0,0.0,0.0,0.0,0.0,0.0,0.0,0.0,0.0,0.0,0.0,0.0,0.0,0.0,0.0,0.0,0.0,0.0,0.0,0.0,0.0,0.0,0.0,0.0,0.0,0.0,0.0,0.0,0.0,0.0,0.0,0.0,0.0,0.0,0.0,0.0,0.0,0.0,0.0,0.0,0.0,0.0,0.0,0.0,0.0,0.0,0.0,0.0,0.0,0.0,0.0,0.0,0.0,0.0,0.0,0.0,0.0,0.0,0.0,0.0,0.0,0.0,0.0,0.0,0.0,0.0,0.0,0.0,0.0,0.0,0.0,0.0,0.0,0.0,0.0,0.0,0.0,0.0,0.0,0.0,0.0,0.0,0.0,0.0,0.0,0.0,0.0,0.0,0.0,0.0,0.0,0.0,0.0,0.0,0.0,0.0,0.0,0.0,0.0,0.0,0.0,0.0,0.0,0.0,0.0,0.0,0.0,0.0,0.0,0.0,0.0,0.0,0.0,0.0,0.0,0.0,0.0,0.0,0.0,0.0,0.0,0.0,0.0,0.0,0.0,0.0,0.0,0.0,0.0,0.0,0.0,0.0,0.0,0.0,0.0,0.0,0.0,0.0,0.0,0.0,0.0,0.0,0.0,0.0,0.0,0.0,0.0,0.0,0.0,0.0,0.0,0.0,0.0,0.0,0.0,0.0,0.0,0.0,0.0,0.0,0.0,0.0,0.0,0.0,0.0,0.0,0.0,0.0,0.0,0.0,0.0,0.0,0.0,0.0,0.0,0.0,0.0,0.0,0.0,0.0,0.0,0.0,0.0,0.0,0.0,0.0,0.0,0.0,0.0,0.0,0.0,0.0,0.0,0.0,0.0,0.0,0.0,0.0,0.0,0.0,0.0,0.0,0.0,0.0,0.0,0.0,0.0,0.0,0.0,0.0,0.0,0.0,0.0,0.0,0.0,0.0,0.0,0.0,0.0,0.0,0.0,0.0,0.0,0.0,0.0,0.0,0.0,0.0,0.0,0.0,0.0,0.0,0.0,0.0,0.0,0.0,0.0,0.0,0.0,0.0,0.0,0.0,0.0,0.0,0.0,0.0,0.0,0.0,0.0,0.0,0.0,0.0,0.0,0.0,0.0,0.0,0.0,0.0,0.0,0.0,0.0,0.0,0.0,0.0,0.0,0.0,0.0,0.0,0.0,0.0,0.0,0.0,0.0,0.0,0.0,0.0,0.0,0.0,0.0,0.0,0.0,0.0,0.0,0.0,0.0,0.0,0.0,0.0,0.0,0.0,0.0,0.0,0.0,0.0,0.0,0.0,0.0,0.0,0.0,0.0,0.0,0.0,0.0,0.0,0.0,0.0,0.0,0.0,0.0,0.0,0.0,0.0,0.0,0.0,0.0,0.0,0.0,0.0,0.0,0.0,0.0,0.0,0.0,0.0,0.0,0.0,0.0,0.0,0.0,0.0,0.0,0.0,0.0,0.0,0.0,0.0,0.0,0.0,0.0,0.0,0.0,0.0,0.0,0.0,0.0,0.0,1.2915,0.0,0.0,0.0,0.0,0.0,0.0,0.0,0.0,0.0,0.0,0.0,0.0,0.0,0.0,0.0,0.0,0.0,0.0,0.0,0.0,0.0,0.0,0.0,0.0,0.0,0.0,0.0,0.0,0.0,0.0,0.0,0.0,0.0,0.0,0.0,0.0,0.0,0.0,0.0,0.0,0.0,0.0,0.0,0.0,0.0,0.0,0.0,0.0,0.0,0.0,0.0,0.0,0.0,0.0,0.0,0.0,0.0,0.0,0.0,0.0,0.0,0.0,0.0,0.0,0.0,0.0,0.0,0.0,0.0,0.0,0.0,0.0,0.0,0.0,0.0,0.0,0.0,0.0,0.0,0.0,0.0,0.0,0.0,0.0,0.0,0.0,0.0,0.0,0.0,0.0,0.0,0.0,0.0,0.0,0.0,0.0,0.0,0.0,0.0,0.0,0.0,0.0,0.0,0.0,0.0,0.0,0.0,0.0,0.0,0.0,1.3055,1.3372,1.3396,1.3539,1.3871,0.0,0.0,0.0,0.0,0.0,0.0,0.0,0.0,0.0,0.0,0.0,0.0,0.0,0.0,0.0,0.0,0.0,0.0,0.0,0.0,0.0,0.0,0.0,0.0,0.0,0.0,0.0,0.0,0.0,0.0,0.0,0.0,0.0,0.0,0.0,0.0,0.0,0.0,0.0,0.0,0.0,0.0,0.0,0.0,0.0,0.0,0.0,0.0,0.0,0.0,0.0,0.0,0.0,0.0,0.0,0.0,0.0,0.0,0.0,0.0,0.0,0.0,0.0,0.0,0.0,0.0,0.0,0.0,0.0,0.0,0.0,0.0,0.0,0.0,0.0,0.0,0.0,0.0,0.0,0.0,0.0,0.0,0.0,0.0,0.0,0.0,0.0,0.0,0.0,0.0,0.0,0.0,0.0,0.0,0.0,0.0,0.0,0.0,0.0,0.0,0.0,0.0,0.0,0.0,0.0,0.0,0.0,0.0,0.0,0.0,0.0,0.0,1.4275,1.4609,1.5045,0.0,0.0,0.0,0.0,0.0,0.0,0.0,0.0,0.0,0.0,0.0,0.0,0.0,0.0,0.0,0.0,0.0,0.0,0.0,0.0,0.0,0.0,0.0,0.0,0.0,0.0,0.0,0.0,0.0,0.0,0.0,0.0,0.0,0.0,0.0,0.0,0.0,0.0,0.0,0.0,0.0,0.0,0.0,0.0,0.0,0.0,0.0,0.0,0.0,0.0,0.0,0.0,0.0,0.0,0.0,0.0,0.0,0.0,0.0,0.0,0.0,0.0,0.0,0.0,0.0,0.0,0.0,0.0,0.0,0.0,0.0,0.0,0.0,0.0,0.0,0.0,0.0,0.0,0.0,0.0,0.0,0.0,0.0,0.0,0.0,0.0,0.0,0.0,0.0,0.0,0.0,0.0,0.0,0.0,0.0,0.0,0.0,0.0,0.0,0.0,0.0,0.0,0.0,0.0,0.0,0.0,0.0,0.0,0.0,0.0,1.4115,1.495,1.5752,0.0,1.6239,0.0,0.0,0.0,0.0,0.0,0.0,0.0,0.0,0.0,0.0,0.0,0.0,0.0,0.0,0.0,0.0,0.0,0.0,0.0,0.0,0.0,0.0,0.0,0.0,0.0,0.0,0.0,0.0,0.0,0.0,0.0,0.0,0.0,0.0,0.0,0.0,0.0,0.0,0.0,0.0,0.0,0.0,0.0,0.0,0.0,0.0,0.0,0.0,0.0,0.0,0.0,0.0,0.0,0.0,0.0,0.0,0.0,0.0,0.0,0.0,0.0,0.0,0.0,0.0,0.0,0.0,0.0,0.0,0.0,0.0,0.0,0.0,0.0,0.0,0.0,0.0,0.0,0.0,0.0,0.0,0.0,0.0,0.0,0.0,0.0,0.0,0.0,0.0,0.0,0.0,0.0,0.0,0.0,0.0,0.0,0.0,0.0,0.0,0.0,0.0,0.0,0.0,0.0,0.0,0.0,0.0,0.0,0.0,0.0,0.0,1.5267,1.6378,1.7095,1.7448,0.0,0.0,0.0,0.0,0.0,0.0,0.0,0.0,0.0,0.0,0.0,0.0,0.0,0.0,0.0,0.0,0.0,0.0,0.0,0.0,0.0,0.0,0.0,0.0,0.0,0.0,0.0,0.0,0.0,0.0,0.0,0.0,0.0,0.0,0.0,0.0,0.0,0.0,0.0,0.0,0.0,0.0,0.0,0.0,0.0,0.0,0.0,0.0,0.0,0.0,0.0,0.0,0.0,0.0,0.0,0.0,0.0,0.0,0.0,0.0,0.0,0.0,0.0,0.0,0.0,0.0,0.0,0.0,0.0,0.0,0.0,0.0,0.0,0.0,0.0,0.0,0.0,0.0,0.0,0.0,0.0,0.0,0.0,0.0,0.0,0.0,0.0,0.0,0.0,0.0,0.0,0.0,0.0,0.0,0.0,0.0,0.0,0.0,0.0,0.0,0.0,0.0,0.0,0.0,0.0,0.0,0.0,0.0,0.0,0.0,1.5767,0.0,1.792,1.8412,1.8442,1.799,0.0,0.0,0.0,0.0,0.0,0.0,0.0,0.0,0.0,0.0,0.0,0.0,0.0,0.0,0.0,0.0,0.0,0.0,0.0,0.0,0.0,0.0,0.0,0.0,0.0,0.0,0.0,0.0,0.0,0.0,0.0,0.0,0.0,0.0,0.0,0.0,0.0,0.0,0.0,0.0,0.0,0.0,0.0,0.0,0.0,0.0,0.0,0.0,0.0,0.0,0.0,0.0,0.0,0.0,0.0,0.0,0.0,0.0,0.0,0.0,0.0,0.0,0.0,0.0,0.0,0.0,0.0,0.0,0.0,0.0,0.0,0.0,0.0,0.0,0.0,0.0,0.0,0.0,0.0,0.0,0.0,0.0,0.0,0.0,0.0,0.0,0.0,0.0,0.0,0.0,0.0,0.0,0.0,0.0,0.0,0.0,0.0,0.0,0.0,0.0,0.0,0.0,0.0,0.0,0.0,0.0,0.0,0.0,0.0,1.728,1.8006,1.9621,1.971,1.9007,0.0,0.0,0.0,0.0,0.0,0.0,0.0,0.0,0.0,0.0,0.0,0.0,0.0,0.0,0.0,0.0,0.0,0.0,0.0,0.0,0.0,0.0,0.0,0.0,0.0,0.0,0.0,0.0,0.0,0.0,0.0,0.0,0.0,0.0,0.0,0.0,0.0,0.0,0.0,0.0,0.0,0.0,0.0,0.0,0.0,0.0,0.0,0.0,0.0,0.0,0.0,0.0,0.0,0.0,0.0,0.0,0.0,0.0,0.0,0.0,0.0,0.0,0.0,0.0,0.0,0.0,0.0,0.0,0.0,0.0,0.0,0.0,0.0,0.0,0.0,0.0,0.0,0.0,0.0,0.0,0.0,0.0,0.0,0.0,0.0,0.0,0.0,0.0,0.0,0.0,0.0,0.0,0.0,0.0,0.0,0.0,0.0,0.0,0.0,0.0,0.0,0.0,0.0,0.0,0.0,0.0,0.0,0.0,0.0,1.6847,1.7542,1.8846,2.074,1.9208,1.8304,0.0,0.0,0.0,0.0,0.0,0.0,0.0,0.0,0.0,0.0,0.0,0.0,0.0,0.0,0.0,0.0,0.0,0.0,0.0,0.0,0.0,0.0,0.0,0.0,0.0,0.0,0.0,0.0,0.0,0.0,0.0,0.0,0.0,0.0,0.0,0.0,0.0,0.0,0.0,0.0,0.0,0.0,0.0,0.0,0.0,0.0,0.0,0.0,0.0,0.0,0.0,0.0,0.0,0.0,0.0,0.0,0.0,0.0,0.0,0.0,0.0,0.0,0.0,0.0,0.0,0.0,0.0,0.0,0.0,0.0,0.0,0.0,0.0,0.0,0.0,0.0,0.0,0.0,0.0,0.0,0.0,0.0,0.0,0.0,0.0,0.0,0.0,0.0,0.0,0.0,0.0,0.0,0.0,0.0,0.0,0.0,0.0,0.0,0.0,0.0,0.0,0.0,0.0,0.0,0.0,0.0,0.0,0.0,0.0,1.753,0.0,1.9811,0.0,1.9158,1.8016,0.0,0.0,0.0,0.0,0.0,0.0,0.0,0.0,0.0,0.0,0.0,0.0,0.0,0.0,0.0,0.0,0.0,0.0,0.0,0.0,0.0,0.0,0.0,0.0,0.0,0.0,0.0,0.0,0.0,0.0,0.0,0.0,0.0,0.0,0.0,0.0,0.0,0.0,0.0,0.0,0.0,0.0,0.0,0.0,0.0,0.0,0.0,0.0,0.0,0.0,0.0,0.0,0.0,0.0,0.0,0.0,0.0,0.0,0.0,0.0,0.0,0.0,0.0,0.0,0.0,0.0,0.0,0.0,0.0,0.0,0.0,0.0,0.0,0.0,0.0,0.0,0.0,0.0,0.0,0.0,0.0,0.0,0.0,0.0,0.0,0.0,0.0,0.0,0.0,0.0,0.0,0.0,0.0,0.0,0.0,0.0,0.0,0.0,0.0,0.0,0.0,0.0,0.0,0.0,0.0,0.0,0.0,0.0,1.7578,1.9673,2.0778,2.0865,1.9886,1.9736,1.8229,0.0,0.0,0.0,0.0,0.0,0.0,0.0,0.0,0.0,0.0,0.0,0.0,0.0,0.0,0.0,0.0,0.0,0.0,0.0,0.0,0.0,0.0,0.0,0.0,0.0,0.0,0.0,0.0,0.0,0.0,0.0,0.0,0.0,0.0,0.0,0.0,0.0,0.0,0.0,0.0,0.0,0.0,0.0,0.0,0.0,0.0,0.0,0.0,0.0,0.0,0.0,0.0,0.0,0.0,0.0,0.0,0.0,0.0,0.0,0.0,0.0,0.0,0.0,0.0,0.0,0.0,0.0,0.0,0.0,0.0,0.0,0.0,0.0,0.0,0.0,0.0,0.0,0.0,0.0,0.0,0.0,0.0,0.0,0.0,0.0,0.0,0.0,0.0,0.0,0.0,0.0,0.0,0.0,0.0,0.0,0.0,0.0,0.0,0.0,0.0,0.0,0.0,0.0,0.0,0.0,0.0,0.0,0.0,0.0,1.8706,1.9761,2.0715,2.1418,1.9321,1.8179,0.0,0.0,0.0,0.0,0.0,0.0,0.0,0.0,0.0,0.0,0.0,0.0,0.0,0.0,0.0,0.0,0.0,0.0,0.0,0.0,0.0,0.0,0.0,0.0,0.0,0.0,0.0,0.0,0.0,0.0,0.0,0.0,0.0,0.0,0.0,0.0,0.0,0.0,0.0,0.0,0.0,0.0,0.0,0.0,0.0,0.0,0.0,0.0,0.0,0.0,0.0,0.0,0.0,0.0,0.0,0.0,0.0,0.0,0.0,0.0,0.0,0.0,0.0,0.0,0.0,0.0,0.0,0.0,0.0,0.0,0.0,0.0,0.0,0.0,0.0,0.0,0.0,0.0,0.0,0.0,0.0,0.0,0.0,0.0,0.0,0.0,0.0,0.0,0.0,0.0,0.0,0.0,0.0,0.0,0.0,0.0,0.0,0.0,0.0,0.0,0.0,0.0,0.0,0.0,0.0,0.0,0.0,0.0,0.0,2.0048,2.0903,2.1668,2.2339,2.0131,1.8928,1.8887,0.0,0.0,0.0,0.0,0.0,0.0,0.0,0.0,0.0,0.0,0.0,0.0,0.0,0.0,0.0,0.0,0.0,0.0,0.0,0.0,0.0,0.0,0.0,0.0,0.0,0.0,0.0,0.0,0.0,0.0,0.0,0.0,0.0,0.0,0.0,0.0,0.0,0.0,0.0,0.0,0.0,0.0,0.0,0.0,0.0,0.0,0.0,0.0,0.0,0.0,0.0,0.0,0.0,0.0,0.0,0.0,0.0,0.0,0.0,0.0,0.0,0.0,0.0,0.0,0.0,0.0,0.0,0.0,0.0,0.0,0.0,0.0,0.0,0.0,0.0,0.0,0.0,0.0,0.0,0.0,0.0,0.0,0.0,0.0,0.0,0.0,0.0,0.0,0.0,0.0,0.0,0.0,0.0,0.0,0.0,0.0,0.0,0.0,0.0,0.0,0.0,0.0,0.0,0.0,0.0,0.0,0.0,0.0,2.3133,2.3828,2.3709,2.2716,2.193,2.034,0.0,0.0,0.0,0.0,0.0,0.0,0.0,0.0,0.0,0.0,0.0,0.0,0.0,0.0,0.0,0.0,0.0,0.0,0.0,0.0,0.0,0.0,0.0,0.0,0.0,0.0,0.0,0.0,0.0,0.0,0.0,0.0,0.0,0.0,0.0,0.0,0.0,0.0,0.0,0.0,0.0,0.0,0.0,0.0,0.0,0.0,0.0,0.0,0.0,0.0,0.0,0.0,0.0,0.0,0.0,0.0,0.0,0.0,0.0,0.0,0.0,0.0,0.0,0.0,0.0,0.0,0.0,0.0,0.0,0.0,0.0,0.0,0.0,0.0,0.0,0.0,0.0,0.0,0.0,0.0,0.0,0.0,0.0,0.0,0.0,0.0,0.0,0.0,0.0,0.0,0.0,0.0,0.0,0.0,0.0,0.0,0.0,0.0,0.0,0.0,0.0,0.0,0.0,0.0,0.0,0.0,0.0,0.0,0.0,2.3753,2.5511,2.6166,2.5533,2.3332,2.1642,0.0,0.0,0.0,0.0,0.0,0.0,0.0,0.0,0.0,0.0,0.0,0.0,0.0,0.0,0.0,0.0,0.0,0.0,0.0,0.0,0.0,0.0,0.0,0.0,0.0,0.0,0.0,0.0,0.0,0.0,0.0,0.0,0.0,0.0,0.0,0.0,0.0,0.0,0.0,0.0,0.0,0.0,0.0,0.0,0.0,0.0,0.0,0.0,0.0,0.0,0.0,0.0,0.0,0.0,0.0,0.0,0.0,0.0,0.0,0.0,0.0,0.0,0.0,0.0,0.0,0.0,0.0,0.0,0.0,0.0,0.0,0.0,0.0,0.0,0.0,0.0,0.0,0.0,0.0,0.0,0.0,0.0,0.0,0.0,0.0,0.0,0.0,0.0,0.0,0.0,0.0,0.0,0.0,0.0,0.0,0.0,0.0,0.0,0.0,0.0,0.0,0.0,0.0,0.0,0.0,0.0,0.0,0.0,2.3226,2.5347,2.708,2.8087,2.8331,2.5918,2.3769,0.0,0.0,0.0,0.0,0.0,0.0,0.0,0.0,0.0,0.0,0.0,0.0,0.0,0.0,0.0,0.0,0.0,0.0,0.0,0.0,0.0,0.0,0.0,0.0,0.0,0.0,0.0,0.0,0.0,0.0,0.0,0.0,0.0,0.0,0.0,0.0,0.0,0.0,0.0,0.0,0.0,0.0,0.0,0.0,0.0,0.0,0.0,0.0,0.0,0.0,0.0,0.0,0.0,0.0,0.0,0.0,0.0,0.0,0.0,0.0,0.0,0.0,0.0,0.0,0.0,0.0,0.0,0.0,0.0,0.0,0.0,0.0,0.0,0.0,0.0,0.0,0.0,0.0,0.0,0.0,0.0,0.0,0.0,0.0,0.0,0.0,0.0,0.0,0.0,0.0,0.0,0.0,0.0,0.0,0.0,0.0,0.0,0.0,0.0,0.0,0.0,0.0,0.0,0.0,0.0,0.0,0.0,0.0,2.4537,2.713,2.8496,2.9645,3.0596,2.8734,2.6004,0.0,0.0,0.0,0.0,0.0,0.0,0.0,0.0,0.0,0.0,0.0,0.0,0.0,0.0,0.0,0.0,0.0,0.0,0.0,0.0,0.0,0.0,0.0,0.0,0.0,0.0,0.0,0.0,0.0,0.0,0.0,0.0,0.0,0.0,0.0,0.0,0.0,0.0,0.0,0.0,0.0,0.0,0.0,0.0,0.0,0.0,0.0,0.0,0.0,0.0,0.0,0.0,0.0,0.0,0.0,0.0,0.0,0.0,0.0,0.0,0.0,0.0,0.0,0.0,0.0,0.0,0.0,0.0,0.0,0.0,0.0,0.0,0.0,0.0,0.0,0.0,0.0,0.0,0.0,0.0,0.0,0.0,0.0,0.0,0.0,0.0,0.0,0.0,0.0,0.0,0.0,0.0,0.0,0.0,0.0,0.0,0.0,0.0,0.0,0.0,0.0,0.0,0.0,0.0,0.0,0.0,0.0,0.0,2.5159,2.6637,2.9305,3.0937,3.1378,2.8475,2.6089,0.0,0.0,0.0,0.0,0.0,0.0,0.0,0.0,0.0,0.0,0.0,0.0,0.0,0.0,0.0,0.0,0.0,0.0,0.0,0.0,0.0,0.0,0.0,0.0,0.0,0.0,0.0,0.0,0.0,0.0,0.0,0.0,0.0,0.0,0.0,0.0,0.0,0.0,0.0,0.0,0.0,0.0,0.0,0.0,0.0,0.0,0.0,0.0,1.2958,0.0,0.0,0.0,0.0,0.0,0.0,0.0,0.0,0.0,0.0,0.0,0.0,0.0,0.0,0.0,0.0,0.0,0.0,0.0,0.0,0.0,0.0,0.0,0.0,0.0,0.0,0.0,0.0,0.0,0.0,0.0,0.0,0.0,0.0,0.0,0.0,0.0,0.0,0.0,0.0,0.0,0.0,0.0,0.0,0.0,0.0,0.0,0.0,0.0,0.0,0.0,0.0,0.0,0.0,0.0,0.0,0.0,0.0,0.0,2.6922,2.8315,3.0631,3.2135,3.2575,3.0135,2.7668,0.0,0.0,0.0,0.0,0.0,0.0,0.0,0.0,0.0,0.0,0.0,0.0,0.0,0.0,0.0,0.0,0.0,0.0,0.0,0.0,0.0,0.0,0.0,0.0,0.0,0.0,0.0,0.0,0.0,0.0,0.0,0.0,0.0,0.0,0.0,0.0,0.0,0.0,0.0,0.0,0.0,0.0,0.0,0.0,0.0,0.0,0.0,0.0,0.0,0.0,0.0,0.0,0.0,0.0,0.0,0.0,0.0,0.0,0.0,0.0,0.0,0.0,0.0,0.0,0.0,0.0,0.0,0.0,0.0,0.0,0.0,0.0,0.0,0.0,0.0,0.0,0.0,0.0,0.0,0.0,0.0,0.0,0.0,0.0,0.0,0.0,0.0,0.0,0.0,0.0,0.0,0.0,0.0,0.0,0.0,0.0,0.0,0.0,0.0,0.0,0.0,0.0,0.0,0.0,0.0,0.0,0.0,2.6044,2.8598,3.0557,3.2056,3.3164,3.3786,3.2205,2.9595,2.6061,0.0,0.0,0.0,0.0,0.0,0.0,0.0,0.0,0.0,0.0,0.0,0.0,0.0,0.0,0.0,0.0,0.0,0.0,0.0,0.0,0.0,0.0,0.0,0.0,0.0,0.0,0.0,0.0,0.0,0.0,0.0,0.0,0.0,0.0,0.0,0.0,0.0,0.0,1.5135,1.656,0.0,0.0,0.0,0.0,0.0,0.0,0.0,0.0,1.5536,0.0,0.0,0.0,0.0,0.0,0.0,0.0,0.0,0.0,0.0,0.0,0.0,0.0,0.0,0.0,0.0,0.0,0.0,0.0,0.0,0.0,0.0,0.0,0.0,0.0,0.0,0.0,0.0,0.0,0.0,0.0,0.0,0.0,0.0,0.0,0.0,0.0,0.0,0.0,0.0,0.0,0.0,0.0,0.0,0.0,0.0,0.0,0.0,0.0,0.0,0.0,0.0,0.0,0.0,0.0,0.0,2.5467,2.6162,2.8136,3.1488,3.3035,3.3613,3.3264,3.2599,3.0444,2.6688,0.0,0.0,0.0,0.0,0.0,0.0,0.0,0.0,0.0,0.0,0.0,0.0,0.0,0.0,0.0,0.0,0.0,0.0,0.0,0.0,0.0,0.0,0.0,0.0,0.0,0.0,0.0,0.0,0.0,0.0,0.0,0.0,0.0,0.0,0.0,0.0,0.0,0.0,0.0,1.7713,1.8649,0.0,0.0,0.0,0.0,0.0,0.0,0.0,0.0,1.5896,0.0,0.0,0.0,0.0,0.0,0.0,0.0,0.0,0.0,0.0,0.0,0.0,0.0,0.0,0.0,0.0,0.0,0.0,0.0,0.0,0.0,0.0,0.0,0.0,0.0,0.0,0.0,0.0,0.0,0.0,0.0,0.0,0.0,0.0,0.0,0.0,0.0,0.0,0.0,0.0,0.0,0.0,0.0,0.0,0.0,0.0,0.0,0.0,0.0,0.0,0.0,0.0,0.0,0.0,0.0,2.5301,2.7968,3.0489,3.2891,3.4134,3.4497,3.3821,3.2303,2.9924,0.0,0.0,0.0,0.0,0.0,0.0,0.0,0.0,0.0,0.0,0.0,0.0,0.0,0.0,0.0,0.0,0.0,0.0,0.0,0.0,0.0,0.0,0.0,0.0,0.0,0.0,0.0,0.0,0.0,0.0,0.0,0.0,0.0,0.0,0.0,0.0,0.0,0.0,0.0,0.0,1.8875,1.9614,1.961,0.0,0.0,0.0,0.0,0.0,0.0,1.7614,1.727,0.0,0.0,0.0,0.0,0.0,0.0,0.0,0.0,0.0,0.0,0.0,0.0,0.0,0.0,0.0,0.0,0.0,0.0,0.0,0.0,0.0,0.0,0.0,0.0,0.0,0.0,0.0,0.0,0.0,0.0,0.0,0.0,0.0,0.0,0.0,0.0,0.0,0.0,0.0,0.0,0.0,0.0,0.0,0.0,0.0,0.0,0.0,0.0,0.0,0.0,0.0,0.0,0.0,0.0,0.0,2.4963,2.9385,3.2579,3.4225,3.51,3.51,3.4277,3.2078,2.949,0.0,0.0,0.0,0.0,0.0,0.0,0.0,0.0,0.0,0.0,0.0,0.0,0.0,0.0,0.0,0.0,0.0,0.0,0.0,0.0,0.0,0.0,0.0,0.0,0.0,0.0,0.0,0.0,0.0,0.0,0.0,0.0,0.0,0.0,0.0,0.0,0.0,0.0,0.0,0.0,0.0,2.069,2.0858,2.0612,0.0,0.0,0.0,0.0,1.8899,1.9427,0.0,0.0,0.0,0.0,0.0,0.0,0.0,0.0,0.0,0.0,0.0,0.0,0.0,0.0,0.0,0.0,0.0,0.0,0.0,0.0,0.0,0.0,0.0,0.0,0.0,0.0,0.0,0.0,0.0,0.0,0.0,0.0,0.0,0.0,0.0,0.0,0.0,0.0,0.0,0.0,0.0,0.0,0.0,0.0,0.0,0.0,0.0,0.0,0.0,0.0,0.0,0.0,0.0,0.0,0.0,0.0,2.578,2.8626,3.1763,3.5133,3.5439,3.4906,3.3649,3.2736,3.0223,0.0,0.0,0.0,0.0,0.0,0.0,0.0,0.0,0.0,0.0,0.0,0.0,0.0,0.0,0.0,0.0,0.0,0.0,0.0,0.0,0.0,0.0,0.0,0.0,0.0,0.0,0.0,0.0,0.0,0.0,0.0,0.0,0.0,0.0,0.0,0.0,0.0,0.0,0.0,0.0,0.0,2.2045,2.1038,2.1252,2.1499,0.0,0.0,2.138,2.131,2.1997,0.0,0.0,0.0,0.0,0.0,0.0,0.0,0.0,0.0,0.0,0.0,0.0,0.0,0.0,0.0,0.0,0.0,0.0,0.0,0.0,0.0,0.0,0.0,0.0,0.0,0.0,0.0,0.0,0.0,0.0,0.0,0.0,0.0,0.0,0.0,0.0,0.0,0.0,0.0,0.0,0.0,0.0,0.0,0.0,0.0,0.0,0.0,0.0,0.0,0.0,0.0,0.0,0.0,0.0,0.0,2.3596,2.6026,2.99,3.3061,3.54,3.5489,3.4861,3.3529,3.1779,2.9205,0.0,0.0,0.0,0.0,0.0,0.0,0.0,0.0,0.0,0.0,0.0,0.0,0.0,0.0,0.0,0.0,0.0,0.0,0.0,0.0,0.0,0.0,0.0,0.0,0.0,0.0,0.0,0.0,0.0,0.0,0.0,0.0,0.0,0.0,0.0,0.0,0.0,0.0,0.0,0.0,0.0,0.0,2.1961,2.2743,0.0,0.0,0.0,2.3147,2.2822,0.0,0.0,0.0,0.0,0.0,0.0,0.0,0.0,0.0,0.0,0.0,0.0,0.0,0.0,0.0,0.0,0.0,0.0,0.0,0.0,0.0,0.0,0.0,0.0,0.0,0.0,0.0,0.0,0.0,0.0,0.0,0.0,0.0,0.0,0.0,0.0,0.0,0.0,0.0,0.0,0.0,0.0,0.0,0.0,0.0,0.0,0.0,0.0,0.0,0.0,0.0,0.0,0.0,0.0,0.0,0.0,0.0,2.6256,3.0999,3.4143,3.5444,3.5489,3.4861,3.3514,3.127,0.0,0.0,0.0,0.0,0.0,0.0,0.0,0.0,0.0,0.0,0.0,0.0,0.0,0.0,0.0,0.0,0.0,0.0,0.0,0.0,0.0,0.0,0.0,0.0,0.0,0.0,0.0,1.212,0.0,0.0,0.0,0.0,0.0,0.0,0.0,0.0,0.0,0.0,0.0,0.0,0.0,0.0,2.2698,2.3161,2.4432,2.5379,0.0,0.0,2.4958,2.476,2.5368,2.4748,0.0,0.0,0.0,0.0,0.0,0.0,0.0,0.0,0.0,0.0,0.0,0.0,0.0,0.0,0.0,0.0,0.0,0.0,0.0,0.0,0.0,0.0,0.0,0.0,0.0,0.0,0.0,0.0,0.0,0.0,0.0,0.0,0.0,0.0,0.0,0.0,0.0,0.0,0.0,0.0,0.0,0.0,0.0,0.0,0.0,0.0,0.0,0.0,0.0,0.0,0.0,0.0,0.0,0.0,0.0,2.6814,3.1233,3.4158,3.5444,3.5489,3.4861,3.3529,3.2093,2.9537,0.0,0.0,0.0,0.0,0.0,0.0,0.0,0.0,0.0,0.0,0.0,0.0,0.0,0.0,0.0,0.0,0.0,0.0,0.0,0.0,0.0,0.0,0.0,0.0,0.0,0.0,0.0,0.0,0.0,0.0,0.0,0.0,0.0,0.0,0.0,0.0,0.0,0.0,0.0,0.0,0.0,2.4006,2.4596,2.6163,2.752,0.0,0.0,2.6713,2.7718,2.7621,2.6451,2.3556,0.0,0.0,0.0,0.0,0.0,0.0,0.0,0.0,0.0,0.0,0.0,0.0,0.0,0.0,0.0,0.0,0.0,0.0,0.0,0.0,0.0,0.0,0.0,0.0,0.0,0.0,0.0,0.0,0.0,0.0,0.0,0.0,0.0,0.0,0.0,0.0,0.0,0.0,0.0,0.0,0.0,0.0,0.0,0.0,0.0,0.0,0.0,0.0,0.0,0.0,0.0,0.0,0.0,2.5218,2.6823,3.1233,3.4143,3.5429,3.5489,3.4861,3.3529,3.2183,2.9778,0.0,0.0,0.0,0.0,0.0,0.0,0.0,0.0,0.0,0.0,0.0,0.0,0.0,0.0,0.0,0.0,0.0,0.0,0.0,0.0,0.0,0.0,0.0,0.0,0.0,0.0,0.0,0.0,1.5861,1.595,1.5802,0.0,0.0,0.0,0.0,0.0,0.0,0.0,0.0,0.0,0.0,2.4335,2.5702,2.6852,0.0,0.0,2.7748,2.7278,2.7782,2.725,2.616,2.4237,2.282,0.0,0.0,0.0,0.0,0.0,0.0,0.0,0.0,0.0,0.0,0.0,0.0,0.0,0.0,0.0,0.0,0.0,0.0,0.0,0.0,0.0,0.0,0.0,0.0,0.0,0.0,0.0,0.0,0.0,0.0,0.0,0.0,0.0,0.0,0.0,0.0,0.0,0.0,0.0,0.0,0.0,0.0,0.0,0.0,0.0,0.0,0.0,0.0,0.0,0.0,0.0,0.0,2.5487,2.7045,3.1291,3.4158,3.5474,3.5489,3.4861,3.3529,3.2407,3.0262,0.0,0.0,0.0,0.0,0.0,0.0,0.0,0.0,0.0,0.0,0.0,0.0,0.0,0.0,0.0,0.0,0.0,0.0,0.0,0.0,0.0,0.0,0.0,0.0,0.0,0.0,0.0,0.0,1.7423,1.7145,1.6503,0.0,0.0,0.0,0.0,0.0,0.0,0.0,0.0,0.0,0.0,2.4796,2.6612,2.7633,2.8404,2.9037,2.8356,2.788,2.828,2.7537,2.6434,2.5061,0.0,0.0,0.0,0.0,0.0,0.0,0.0,0.0,0.0,0.0,0.0,0.0,0.0,0.0,0.0,0.0,0.0,0.0,0.0,0.0,0.0,0.0,0.0,0.0,0.0,0.0,0.0,0.0,0.0,0.0,1.972,0.0,0.0,0.0,0.0,0.0,0.0,0.0,0.0,0.0,0.0,0.0,0.0,0.0,0.0,0.0,0.0,0.0,0.0,0.0,0.0,0.0,0.0,2.5583,2.7575,3.148,3.4158,3.5444,3.5489,3.4861,3.3559,3.2841,3.1205,2.8472,0.0,0.0,0.0,0.0,0.0,0.0,0.0,0.0,0.0,0.0,0.0,0.0,0.0,0.0,0.0,0.0,0.0,0.0,0.0,0.0,0.0,0.0,0.0,0.0,0.0,0.0,1.7762,1.713,1.6533,0.0,0.0,0.0,0.0,0.0,0.0,0.0,0.0,0.0,0.0,2.371,2.5487,2.733,2.8656,2.969,3.0251,2.9188,2.8704,2.9831,2.8989,2.7766,0.0,0.0,0.0,0.0,0.0,0.0,0.0,0.0,0.0,0.0,0.0,0.0,0.0,0.0,0.0,0.0,0.0,0.0,0.0,0.0,0.0,0.0,0.0,0.0,0.0,0.0,0.0,2.5405,2.3962,0.0,0.0,0.0,0.0,0.0,0.0,0.0,0.0,0.0,0.0,0.0,2.8921,3.0238,0.0,0.0,0.0,0.0,0.0,0.0,0.0,0.0,0.0,0.0,0.0,0.0,2.6258,2.8308,3.1719,3.4143,3.5459,3.5489,3.507,3.4189,3.3499,3.148,2.7937,0.0,0.0,0.0,0.0,0.0,0.0,0.0,0.0,0.0,0.0,0.0,0.0,0.0,0.0,0.0,0.0,0.0,0.0,0.0,0.0,0.0,0.0,0.0,0.0,0.0,1.9447,0.0,0.0,0.0,0.0,0.0,0.0,0.0,0.0,0.0,0.0,0.0,2.1908,2.4065,2.6004,2.7589,2.8713,2.9982,3.0894,0.0,0.0,0.0,0.0,0.0,0.0,0.0,0.0,0.0,0.0,0.0,0.0,0.0,0.0,2.7608,2.3173,2.161,2.0966,2.0966,0.0,0.0,0.0,0.0,0.0,0.0,0.0,0.0,0.0,0.0,0.0,0.0,0.0,0.0,2.873,0.0,2.6847,0.0,0.0,0.0,0.0,0.0,0.0,0.0,0.0,3.1061,3.2287,3.2302,3.3589,3.317,0.0,3.1076,2.8831,0.0,0.0,0.0,0.0,0.0,0.0,0.0,0.0,2.7171,2.8996,3.2168,3.4382,3.5444,3.5489,3.5175,3.4503,3.3858,3.2023,2.8923,2.7543,2.571,0.0,0.0,0.0,0.0,0.0,0.0,0.0,0.0,0.0,0.0,0.0,0.0,0.0,0.0,0.0,0.0,0.0,0.0,0.0,0.0,0.0,0.0,0.0,2.055,0.0,0.0,0.0,0.0,0.0,0.0,0.0,0.0,0.0,2.171,2.2619,2.4115,2.6413,2.7679,2.8844,3.0043,0.0,0.0,0.0,0.0,0.0,0.0,0.0,2.8573,2.9095,2.8679,2.8343,2.8565,3.026,3.1241,3.0275,0.0,0.0,2.6184,2.4823,2.4293,2.431,2.4846,2.5355,2.5664,2.65,2.7389,0.0,0.0,0.0,0.0,0.0,0.0,0.0,0.0,3.211,3.1376,0.0,3.0612,0.0,0.0,0.0,0.0,0.0,0.0,0.0,0.0,3.5474,3.6731,3.5609,3.5639,3.5265,3.4683,3.519,3.3769,3.0447,2.6123,0.0,0.0,0.0,0.0,0.0,0.0,2.8319,2.9726,3.2856,3.4801,3.5474,3.5489,3.5192,3.4569,3.3939,3.2917,3.1462,3.0553,2.8626,2.5395,2.3783,0.0,0.0,0.0,0.0,0.0,0.0,0.0,0.0,0.0,0.0,0.0,0.0,0.0,0.0,0.0,0.0,0.0,0.0,0.0,0.0,2.0464,0.0,0.0,0.0,0.0,0.0,0.0,0.0,0.0,0.0,0.0,2.3383,2.4531,2.6377,2.8914,0.0,0.0,0.0,0.0,3.1114,3.2401,3.1957,3.1705,3.2293,3.229,3.2002,3.1376,0.0,0.0,3.0531,3.1444,3.2005,3.0548,3.0987,3.1292,3.1193,2.982,2.8924,2.8907,2.8922,2.9076,2.9179,2.9998,3.0991,4.0228,0.0,0.0,0.0,0.0,3.5085,3.5967,3.7446,3.6712,3.5804,3.4711,3.3754,0.0,0.0,0.0,0.0,0.0,0.0,3.317,3.4412,3.6028,3.7045,3.7584,3.8078,3.7943,3.727,3.6985,3.5654,3.3335,3.1539,2.8323,2.3842,0.0,0.0,0.0,0.0,2.9654,3.0987,3.329,3.4848,3.5489,3.5489,3.5458,3.5274,3.5082,3.4547,3.3594,3.2343,3.0729,2.8728,2.5965,0.0,0.0,0.0,0.0,0.0,0.0,0.0,0.0,0.0,0.0,0.0,0.0,0.0,0.0,0.0,0.0,0.0,0.0,0.0,2.1614,2.1532,2.1415,0.0,0.0,0.0,0.0,0.0,0.0,0.0,0.0,0.0,2.7937,2.8429,2.924,0.0,0.0,3.2043,3.2233,3.2856,3.3489,3.3878,0.0,0.0,0.0,3.2987,3.2412,3.2713,3.3372,3.3897,3.4015,3.4366,3.4353,3.3389,3.3389,3.3389,3.2797,3.1579,3.0632,3.0601,3.0973,3.1328,3.1393,3.1759,3.2055,4.5618,4.2627,3.9339,3.8501,3.922,3.8546,3.9169,4.0637,3.992,3.899,3.8003,3.7214,3.5355,3.2826,3.1958,0.0,0.0,0.0,3.525,3.6671,3.733,3.8078,3.8796,3.9215,3.92,3.8766,3.8123,3.718,3.6046,3.5115,3.2617,2.8596,0.0,0.0,2.7026,2.9475,3.1255,3.2347,3.4008,3.5085,3.5489,3.5493,3.5672,3.6029,3.5749,3.5398,3.4935,3.3508,3.2209,3.0987,2.8204,2.5698,0.0,0.0,0.0,0.0,0.0,0.0,0.0,0.0,0.0,0.0,0.0,1.7638,1.5489,0.0,0.0,0.0,2.0254,2.221,2.3714,2.3416,0.0,0.0,0.0,0.0,0.0,0.0,0.0,2.6399,2.8339,3.0057,3.1258,3.1664,3.2032,3.256,3.3059,3.3481,3.369,0.0,3.4607,3.4895,3.4945,3.4945,3.4912,3.4201,3.3761,3.418,3.4619,3.5047,3.5498,3.5616,3.543,3.5064,3.4945,3.4793,3.4349,3.352,3.273,3.2205,3.2682,3.3056,3.2844,3.3039,3.3191,5.0238,4.9629,4.3839,4.2104,4.3082,4.1474,4.1511,4.2592,4.1806,4.113,4.0561,4.0487,3.9125,3.6731,3.5537,0.0,3.5863,3.7045,3.7868,3.8497,3.9125,3.9388,3.9388,3.9388,3.9388,3.9409,3.8766,3.8452,3.8302,3.718,3.5953,3.4638,3.2198,3.0866,3.0746,3.1988,3.2961,3.3574,3.4846,3.5537,3.5572,3.5523,3.5862,3.668,3.5883,3.5438,3.5453,3.404,3.2959,3.2276,3.0194,2.774,2.5015,0.0,0.0,0.0,0.0,0.0,0.0,0.0,0.0,0.0,0.0,0.0,0.0,0.0,0.0,0.0,2.2778,0.0,2.5678,2.5727,0.0,0.0,0.0,2.4812,2.5015,2.6843,2.8365,2.9179,0.0,0.0,3.3406,0.0,3.4658,3.4675,3.4049,3.4044,3.5397,3.4991,3.4844,3.5464,3.56,3.56,3.5532,3.5464,3.5414,3.5447,3.5616,3.5583,3.56,3.5616,3.56,3.5566,3.556,3.5459,3.5498,3.5256,3.5026,3.3564,3.3936,3.4259,3.3634,3.3842,3.399,5.1329,5.0416,4.7664,4.5808,4.4671,4.4205,4.3407,4.2485,4.2233,4.2066,4.1901,4.1407,4.0516,3.9454,3.9125,3.8811,3.8512,3.8796,3.902,3.9185,3.9349,3.9388,3.9388,3.9388,3.9388,3.9373,3.926,3.8901,3.8392,3.8093,3.727,3.6028,3.537,3.4053,3.2168,3.335,3.4114,3.4247,3.507,3.5782,3.6322,3.5798,3.5878,3.6664,3.4996,3.4292,3.471,3.2904,3.2013,3.2239,3.0194,2.8688,2.7943,2.4897,0.0,0.0,0.0,0.0,0.0,0.0,0.0,0.0,0.0,2.1459,1.8316,0.0,2.2354,0.0,2.4722,2.6387,2.7181,2.6776,0.0,0.0,2.7486,2.7706,2.9397,3.0074,3.0683,3.143,3.297,3.4053,3.4218,3.5424,3.6254,3.6237,3.5571,3.5211,3.5549,3.5447,3.5397,3.5566,3.5616,3.5616,3.5616,3.5616,3.5616,3.5616,3.5616,3.5616,3.5616,3.5616,3.5616,3.5577,3.5161,3.4894,3.4871,3.4431,3.4014,3.3665,3.411,3.4376,3.3719,3.3332,3.3039,5.2488,5.1909,5.0608,4.9188,4.7577,4.5614,4.4029,4.283,4.2791,4.2868,4.3015,4.2771,4.2227,4.1486,4.1486,4.0882,3.9873,3.9843,3.9694,3.9388,3.9388,3.9388,3.9388,3.9388,3.9388,3.9388,3.9388,3.9215,3.8871,3.8841,3.8482,3.7793,3.7494,3.6447,3.4771,3.4861,3.4936,3.4936,3.5634,3.6368,3.7098,3.673,3.6756,3.717,3.548,3.4528,3.4501,3.2801,3.1838,3.1779,3.0311,2.9161,2.8484,2.6488,2.5067,0.0,0.0,0.0,0.0,0.0,0.0,0.0,0.0,0.0,0.0,0.0,2.4678,2.5306,2.7097,2.8535,2.9262,2.9228,2.9551,3.0381,3.0362,3.0683,3.1616,3.2256,3.2814,3.3241,3.459,3.5543,3.5537,3.6552,3.728,3.728,3.6907,3.6518,3.6197,3.6129,3.6011,3.565,3.5616,3.5616,3.5616,3.5616,3.5616,3.5616,3.5616,3.5616,3.5616,3.5616,3.5616,3.5577,3.5276,3.4941,3.4664,3.4333,3.3912,3.3355,3.3443,3.3531,3.3209,3.2868,3.2532,5.3416,5.323,5.2556,5.1645,5.0418,4.6594,4.4508,4.3814,4.3829,4.3945,4.4112,4.4347,4.3891,4.2931,4.2916,4.2052,4.0569,4.0442,4.0098,3.9559,3.9418,3.9388,3.9388,3.9388,3.9388,3.9388,3.9388,3.9379,3.9275,3.9275,3.9164,3.902,3.8527,3.7946,3.7135,3.6142,3.5651,3.5651,3.6275,3.7024,3.7905,3.784,3.7825,3.7834,3.6296,3.5101,3.4361,3.3007,3.1978,3.1371,3.0632,2.9666,2.8449,2.8027,2.7232,0.0,2.5778,0.0,0.0,0.0,0.0,0.0,0.0,0.0,0.0,2.7182,2.7655,2.8196,2.9616,3.0784,3.141,3.2073,3.2513,3.2716,3.3288,3.3491,3.3139,3.4172,3.4928,3.4945,3.6118,3.6948,3.6948,3.7584,3.8058,3.8058,3.8142,3.7922,3.7252,3.6914,3.6508,3.5819,3.5667,3.5616,3.5616,3.5616,3.5616,3.5616,3.5616,3.556,3.543,3.5447,3.5447,3.5316,3.5115,3.4911,3.4431,3.4219,3.3761,3.2668,3.2492,3.2504,3.2465,3.2437,3.2244,5.299,5.2189,5.2023,5.1093,4.9629,4.8795,4.7722,4.6529,4.6545,4.6242,4.5769,4.5802,4.4978,4.363,4.363,4.2741,4.1197,4.0636,4.0337,4.0187,3.9679,3.9388,3.9388,3.9388,3.9388,3.9388,3.9388,3.9125,3.8586,3.8586,3.8048,3.7094,3.7504,3.7107,3.5944,0.0,0.0,0.0,3.6538,3.7277,3.8603,3.8109,3.7825,3.7858,3.5361,0.0,3.3579,3.2302,3.1743,3.205,3.1376,0.0,0.0,0.0,0.0,0.0,0.0,0.0,0.0,0.0,0.0,0.0,2.9262,2.8466,2.7739,2.982,3.1041,3.0649,3.1918,3.2848,3.2983,3.3102,3.3677,3.4844,3.5092,3.5605,3.6671,3.7077,3.7263,3.7263,3.7516,3.7702,3.7736,3.8328,3.8785,3.8802,3.9292,3.9368,3.8691,3.7591,3.6778,3.6575,3.6045,3.565,3.5616,3.5616,3.5616,3.5616,3.5616,3.5385,3.4965,3.4807,3.4592,3.4202,3.3547,3.3224,3.3055,3.2516,3.2173,3.1768,3.1726,3.1682,3.1726,3.1726,3.1653,5.3195,0.0,5.2679,5.2184,0.0,5.1413,5.0787,4.9646,4.8,4.713,4.6918,4.7373,4.6604,4.4989,4.4973,4.3845,4.1886,4.1542,4.101,4.0397,4.0053,3.9723,3.9388,3.9388,3.9388,3.9388,3.9388,3.9065,3.8407,3.8377,3.7933,3.6956,3.7728,3.7569,3.6589,3.6969,3.701,3.66,3.735,3.8117,3.8864,3.894,3.8774,3.8406,0.0,0.0,0.0,0.0,0.0,0.0,0.0,0.0,0.0,0.0,0.0,3.0495,3.0226,2.9837,2.9551,3.048,3.1461,3.2222,3.2966,3.2611,3.0714,3.229,3.3541,3.3969,3.468,3.5233,3.5588,3.5622,3.5943,3.6631,3.6715,3.707,3.7753,3.7898,3.7898,3.7956,3.8227,3.843,3.8447,3.9073,3.952,3.9554,3.9859,3.996,3.9554,3.8606,3.7709,3.6948,3.6508,3.6079,3.5684,3.5616,3.5616,3.5577,3.5322,3.5144,3.5098,3.4807,3.4576,3.4496,3.4053,3.3521,3.3103,3.2532,3.1923,3.1611,3.1496,3.1496,3.1496,3.1496,3.1496,5.3518,5.3518,5.3518,5.3518,5.3518,5.3518,5.2976,5.1914,0.0,0.0,0.0,4.8656,4.8047,4.6454,4.6279,4.494,4.287,4.2533,4.1752,4.0576,4.0457,4.0053,3.9403,3.9388,3.9388,3.9388,3.9388,3.905,3.8407,3.8272,3.7987,3.7526,3.8123,3.8247,3.7855,3.7932,3.7674,3.7098,3.8241,3.8962,3.9113,3.9756,3.9757,3.9005,3.7703,3.6619,3.583,3.4708,3.3423,3.2084,3.1968,3.1968,3.1968,3.185,3.2374,3.366,3.3774,3.3575,3.3139,3.424,3.4709,3.4235,3.591,3.6146,3.415,3.4675,3.5605,3.6897,3.6998,3.7212,3.7838,3.7905,3.7956,3.8075,3.8108,3.8142,3.8278,3.8278,3.8362,3.8362,3.8853,3.9191,3.9208,3.9706,4.0113,4.0096,4.0079,4.0113,4.0011,3.9402,3.8413,3.7337,3.7009,3.6755,3.6248,3.609,3.5955,3.5904,3.5419,3.5108,3.5085,3.48,3.4592,3.4455,3.4382,3.3786,3.3287,3.268,3.2216,3.1611,3.1496,3.1496,3.1496,3.1496,3.1496,5.3518,5.3518,5.3518,5.3518,5.3518,5.3518,5.2689,5.1286,5.0166,4.936,4.8829,4.894,4.8401,4.7373,4.6574,4.557,4.4379,4.3007,4.1991,0.0,4.0666,4.0053,3.9403,3.9388,3.9388,3.9388,3.9388,3.905,3.8392,3.7823,3.7552,3.7602,3.7802,3.8206,3.8655,3.8723,3.8674,3.8591,3.8799,3.9236,3.9901,4.0045,3.9757,3.9022,3.8205,3.7405,3.6671,3.6432,3.5926,3.5042,3.4991,3.4974,3.4957,3.437,3.4404,3.5194,3.5278,3.5537,3.6101,3.6372,3.6705,3.7229,3.7584,3.733,3.6457,3.6992,3.7516,3.7753,3.777,3.777,3.7905,3.7973,3.8227,3.8734,3.8836,3.9056,3.9639,3.9706,3.969,3.969,3.9876,3.9926,3.9893,4.0011,4.0113,4.0113,4.0113,4.0113,4.0011,3.9486,3.87,3.7973,3.7736,3.7702,3.7449,3.7543,3.7229,3.6705,3.647,3.5764,3.4513,3.4106,3.3654,3.2453,3.249,3.2239,3.1999,3.1739,3.173,3.1615,3.16,3.1615,3.1615,3.1585,3.157,5.3518,5.3518,5.3518,5.3518,5.3518,5.3518,5.2875,5.1775,5.1014,5.005,4.9052,4.9018,4.8465,4.7556,4.6627,4.5706,4.4721,4.3454,4.2575,4.197,4.175,4.13,4.066,4.0263,4.0115,4.008,3.961,3.9065,3.8407,3.8078,3.7831,3.7653,3.811,3.8789,3.9489,3.9558,3.9542,3.9558,3.9542,3.9731,4.007,4.0113,3.996,3.9588,3.887,3.8345,3.8014,3.7584,3.7043,3.6282,3.6231,3.6248,3.6231,3.5949,3.6062,3.6789,3.6834,3.7009,3.7364,3.7777,3.8311,3.9005,3.9089,3.8979,3.8623,3.8539,3.8667,3.9039,3.9089,3.9114,3.9073,3.9089,3.9225,3.9571,3.9622,3.974,4.0028,4.0113,4.0113,4.0113,4.0113,4.0113,4.0113,4.0113,4.0113,4.0113,4.0113,4.0113,4.0113,3.9825,3.9351,3.8667,3.8497,3.8294,3.8024,3.7898,3.7753,3.7415,3.6712,3.6056,3.5185,3.4755,3.4015,3.3783,3.3387,3.3144,3.307,3.2809,3.2511,3.2108,3.2363,3.2422,3.2198,3.2317,3.2303,5.3518,5.3518,5.3518,5.3518,5.3518,5.3518,5.3044,5.2283,5.1708,5.0625,4.934,4.9086,4.8576,4.7868,4.6918,4.6119,4.5322,4.4167,4.3408,4.3046,4.2977,4.2605,4.2006,4.1482,4.1052,4.0672,4.0025,3.943,3.8967,3.8786,3.854,3.8275,3.8986,3.9673,4.007,4.0113,4.0113,4.0113,4.0113,4.0113,4.0113,4.0113,4.0113,4.0062,3.9571,3.9242,3.9208,3.8684,3.8058,3.7354,3.7303,3.728,3.7286,3.7303,3.7642,3.8294,3.8413,3.8396,3.8413,3.8945,3.9478,4.0045,4.0113,4.0163,4.0299,3.9834,3.9631,4.0045,4.0045,4.0062,4.0028,4.0062,4.0113,4.0113,4.0113,4.0079,4.0113,4.0113,4.0113,4.0113,4.0113,4.0113,4.0113,4.0113,4.0113,4.0113,4.0113,4.0113,4.0113,4.0113,3.9842,3.9469,3.9225,3.9073,3.8497,3.8447,3.8379,3.8203,3.7124,3.6466,3.6161,3.5257,3.4625,3.475,3.4494,3.4069,3.413,3.3819,3.3276,3.2856,3.3066,3.3245,3.2871,3.3066,3.317,5.3518,5.3518,5.3518,5.3518,5.3518,5.3518,5.3061,5.2367,5.2215,5.1369,5.005,4.9289,4.8956,4.875,4.7885,4.734,4.7104,4.5468,4.4741,4.4795,4.4064,4.3451,4.305,4.2925,4.2096,4.0904,4.0603,4.0454,4.0334,3.988,3.9692,3.9935,4.0638,4.0653,4.0197,4.0113,4.0113,4.0113,4.0113,4.0113,4.0113,4.0113,4.0113,4.0096,4.0045,3.9994,3.9943,3.9943,3.9554,3.887,3.8792,3.8768,3.8785,3.8768,3.9106,3.9791,3.9876,3.9893,3.9893,3.9977,4.0045,4.0096,4.018,4.0426,4.1018,4.1035,4.0696,4.035,4.0146,4.0163,4.0113,4.0113,4.0113,4.0113,4.0113,4.0113,4.0113,4.0113,4.0113,4.0113,4.0113,4.0113,4.0113,4.0113,4.0113,4.0113,4.0113,4.0113,4.0113,4.0096,4.0096,3.9994,3.9977,3.9926,3.9774,3.9893,3.952,3.8956,3.8151,3.7224,3.6275,3.5329,3.4442,3.447,3.397,3.3924,3.3818,3.3545,3.359,3.3484,3.3514,3.3514,3.341,3.3559,3.3499,5.3518,5.3518,5.3518,5.3518,5.3518,5.3518,5.3315,5.2976,5.252,5.1944,5.1285,5.0168,4.9407,4.8956,4.8015,4.7605,4.7489,4.624,4.5691,4.5779,4.553,4.532,4.5033,4.4202,4.3218,4.208,4.1182,4.0724,4.0769,4.0992,4.1235,4.1292,4.1255,4.1052,4.073,4.0333,4.0113,4.0113,4.0113,4.0113,4.0113,4.0113,4.0113,4.0113,4.0113,4.0113,4.0113,4.0113,3.996,3.969,3.9656,3.9656,3.9631,3.9656,3.9774,4.0079,4.0113,4.0299,4.0713,4.0747,4.0916,4.1339,4.1416,4.1542,4.1796,4.1847,4.1711,4.1433,4.1027,4.0747,4.0696,4.0367,4.0113,4.0113,4.0113,4.0113,4.0113,4.0113,4.0113,4.0113,4.0113,4.0113,4.0113,4.0113,4.0113,4.0113,4.0113,4.0113,4.0113,4.0113,4.0113,4.0113,4.0113,4.0113,4.0113,4.0113,3.9943,3.9564,3.8593,3.7436,3.6977,3.5839,3.4998,3.4668,3.464,3.464,3.4788,3.4651,3.4592,3.4322,3.4113,3.4173,3.4592,3.4681,3.4681,5.3518,5.3518,5.3518,5.3518,5.3518,5.3518,5.3518,5.345,5.2875,5.2503,5.2164,5.0963,4.9999,4.9229,4.8374,4.7982,4.7868,4.702,4.6747,4.6903,4.6881,4.683,4.6741,4.5642,4.437,4.3105,4.1976,4.1445,4.1513,4.2372,4.2738,4.2492,4.2034,4.161,4.1187,4.0629,4.0299,4.0113,4.0113,4.0113,4.0113,4.0113,4.0113,4.0113,4.0113,4.0113,4.0113,4.0113,4.0113,4.0096,4.0113,4.0113,4.0113,4.0113,4.0113,4.0113,4.0113,4.0434,4.1153,4.1204,4.1525,4.2185,4.2303,4.2388,4.254,4.2608,4.2591,4.2523,4.1948,4.1457,4.1153,4.0553,4.013,4.0113,4.0113,4.0113,4.0113,4.0113,4.0113,4.0113,4.0113,4.0113,4.0113,4.0113,4.0113,4.0113,4.0113,4.0113,4.0113,4.0113,4.0113,4.0113,4.0113,4.0113,4.0113,4.0113,4.0113,3.9773,3.8837,3.7844,3.7706,3.6446,3.5507,3.5147,3.5546,3.5638,3.5364,3.5359,3.5501,3.5015,3.4788,3.4861,3.522,3.5444,3.5459,5.3518,5.3518,5.3518,5.3518,5.3518,5.3518,5.3518,5.3501,5.3433,5.301,5.2317,5.1522,5.0744,5.0016,4.9263,4.8909,4.8798,4.7933,4.7982,4.8576,4.7948,4.7664,4.7777,4.7047,4.5455,4.3444,4.3146,4.305,4.3125,4.3985,4.4119,4.3371,4.3223,4.2547,4.1491,4.117,4.0781,4.0248,4.013,4.0113,4.0113,4.0113,4.0113,4.0113,4.0113,4.0113,4.0113,4.0113,4.0113,4.0113,4.0113,4.0113,4.013,4.0146,4.0214,4.018,4.0163,4.0502,4.117,4.1339,4.1644,4.2236,4.2422,4.2608,4.3166,4.3183,4.3122,4.3274,4.2489,4.183,4.1255,4.0553,4.0113,4.0113,4.0113,4.0113,4.0113,4.0113,4.0113,4.0113,4.0113,4.0113,4.0113,4.0113,4.0113,4.0113,4.0113,4.0113,4.0113,4.0113,4.0113,4.0113,4.0113,4.0113,4.0113,4.0113,4.0113,3.9679,3.8778,3.7764,3.7265,3.6692,3.599,3.5604,3.5926,3.5975,3.5782,3.5735,3.5832,3.5633,3.5344,3.5444,3.5474,3.5489,3.5489,5.3518,5.3518,5.3518,5.3518,5.3518,5.3518,5.3518,5.3518,5.3518,5.3365,5.2976,5.2249,5.1505,5.076,5.0033,4.9441,4.8987,4.8639,4.8671,4.894,4.8656,4.8536,4.8531,4.7868,4.6528,4.4846,4.4218,4.3765,4.3429,4.415,4.4479,4.413,4.3656,4.3115,4.254,4.1677,4.1052,4.0781,4.0367,4.0113,4.0113,4.0113,4.0113,4.0113,4.0113,4.0113,4.0113,4.0113,4.0113,4.0113,4.0113,4.0333,4.0781,4.1238,4.1517,4.1491,4.1534,4.1813,4.2489,4.2598,4.2946,4.3623,4.3284,4.3047,4.324,4.2997,4.2692,4.2574,4.2033,4.1441,4.117,4.0553,4.0113,4.0113,4.0113,4.0113,4.0113,4.0113,4.0113,4.0113,4.0113,4.0113,4.0113,4.0113,4.0113,4.0113,4.0113,4.0113,4.0113,4.0113,4.0113,4.0113,4.0113,4.0113,4.0113,4.0113,3.9927,3.9279,3.8458,3.7645,3.704,3.6321,3.5587,3.5537,3.5926,3.607,3.575,3.5636,3.5814,3.5718,3.5489,3.5489,3.5489,3.5489,3.5489,5.3518,5.3518,5.3518,5.3518,5.3518,5.3518,5.3518,5.3518,5.3518,5.3518,5.3365,5.2655,5.2012,5.1437,5.0541,4.9847,4.9357,4.912,4.9001,4.9018,4.9018,4.9018,4.89,4.8257,4.7203,4.5868,4.4851,4.412,4.3822,4.431,4.457,4.4547,4.4028,4.3656,4.3257,4.2378,4.1745,4.1221,4.0679,4.0383,4.0163,4.0113,4.0113,4.0113,4.0113,4.0113,4.0113,4.0113,4.0113,4.0113,4.0113,4.0451,4.1153,4.1897,4.2303,4.2286,4.2049,4.2269,4.2851,4.2817,4.3014,4.3724,4.3369,4.3047,4.3014,4.2591,4.2236,4.1897,4.1542,4.1153,4.0798,4.0383,4.0113,4.0113,4.0113,4.0113,4.0113,4.0113,4.0113,4.0113,4.0113,4.0113,4.0113,4.0113,4.0113,4.0113,4.0113,4.0113,4.0113,4.0113,4.0113,4.0113,4.0113,3.9927,3.9731,3.9584,3.9901,3.9358,3.8302,3.7499,3.6814,3.6053,3.5569,3.5569,3.5651,3.5797,3.5782,3.5651,3.5554,3.5489,3.5489,3.5489,3.5489,3.5489,3.5489,5.3518,5.3518,5.3518,5.3518,5.3518,5.3518,5.3518,5.3518,5.3518,5.3518,5.3399,5.2689,5.2367,5.1978,5.0913,5.0152,4.9881,4.9373,4.9069,4.9018,4.9018,4.9018,4.8968,4.8359,4.7516,4.6478,4.5127,4.4497,4.4519,4.457,4.4598,4.4598,4.4547,4.413,4.3453,4.3257,4.2581,4.1644,4.1238,4.0798,4.0214,4.013,4.0113,4.0113,4.0113,4.0113,4.0113,4.0113,4.0113,4.0113,4.0113,4.0426,4.1238,4.1931,4.232,4.2286,4.1694,4.1677,4.2151,4.1813,4.188,4.2371,4.2337,4.2286,4.2269,4.2134,4.1813,4.1305,4.1119,4.0882,4.0316,4.0146,4.0113,4.0113,4.0113,4.0113,4.0113,4.0113,4.0113,4.0113,4.0113,4.0113,4.0113,4.0113,4.0113,4.0113,4.0113,4.0113,4.0113,4.0113,4.0113,4.0113,4.007,3.9952,3.9437,3.8962,3.942,3.9542,3.8358,3.7368,3.6799,3.6116,3.5619,3.5522,3.575,3.5894,3.5863,3.5718,3.5554,3.5489,3.5489,3.5489,3.5489,3.5489,3.5489,5.3518,5.3518,5.3518,5.3518,5.3518,5.3518,5.3518,5.3518,5.3518,5.3518,5.3467,5.3247,5.2841,5.2317,5.1775,5.1048,5.0101,4.983,4.9475,4.9086,4.9018,4.9018,4.8968,4.8781,4.8,4.676,4.5773,4.505,4.4677,4.4615,4.4598,4.4598,4.4598,4.4479,4.4181,4.369,4.3071,4.2665,4.1711,4.1068,4.0798,4.0367,4.0113,4.0113,4.0113,4.0113,4.0113,4.0113,4.0113,4.0113,4.0113,4.0654,4.1711,4.2168,4.2523,4.2912,4.2371,4.2016,4.2202,4.2066,4.1948,4.2134,4.183,4.1576,4.1474,4.1085,4.0773,4.0485,4.0451,4.0316,4.0163,4.0113,4.013,4.0113,4.0113,4.0113,4.0113,4.0113,4.0113,4.0113,4.0113,4.0113,4.0113,4.0113,4.0113,4.0113,4.0113,4.0113,4.0113,4.0113,4.0113,4.0113,4.007,3.9901,3.9332,3.8772,3.8772,3.8718,3.7774,3.7144,3.6646,3.6179,3.5701,3.5554,3.5814,3.5894,3.5863,3.575,3.5554,3.5489,3.5489,3.5489,3.5489,3.5489,3.5489,5.3518,5.3518,5.3518,5.3518,5.3518,5.3518,5.3518,5.3518,5.3518,5.3518,5.3518,5.3501,5.323,5.2756,5.2435,5.1792,5.0896,5.0388,4.9847,4.939,4.9086,4.9018,4.9018,4.9018,4.8409,4.7344,4.6752,4.5991,4.5026,4.4993,4.4857,4.4649,4.4598,4.4581,4.4581,4.4113,4.3758,4.3335,4.2479,4.1897,4.1508,4.0882,4.0476,4.0485,4.0248,4.0113,4.0113,4.0113,4.0113,4.0163,4.035,4.0967,4.183,4.2117,4.2506,4.2726,4.2337,4.1863,4.1863,4.1559,4.1474,4.139,4.1052,4.0798,4.0713,4.0299,4.013,4.0113,4.013,4.0214,4.0409,4.0231,4.0333,4.0891,4.0417,4.0163,4.0113,4.0113,4.0113,4.0113,4.0113,4.0113,4.0113,4.0113,4.0113,4.0113,4.0113,4.0113,4.0113,4.0113,4.0096,4.007,4.0096,3.9756,3.9226,3.8707,3.8218,3.7687,3.7024,3.6707,3.6399,3.5958,3.5489,3.5489,3.5668,3.5668,3.5636,3.5604,3.5489,3.5489,3.5489,3.5489,3.5489,3.5489,3.5489,5.3518,5.3518,5.3518,5.3518,5.3518,5.3518,5.3518,5.3518,5.3518,5.3518,5.3518,5.3518,5.3484,5.3298,5.2756,5.2334,5.2029,5.0845,5.0152,4.9847,4.9373,4.9018,4.9018,4.9018,4.8545,4.7902,4.7753,4.7027,4.5805,4.5635,4.5348,4.479,4.4682,4.4598,4.4581,4.4553,4.4181,4.3656,4.3358,4.2946,4.2337,4.1644,4.1255,4.1255,4.0722,4.0417,4.0451,4.0468,4.0299,4.0214,4.0646,4.1018,4.1305,4.1847,4.2033,4.2151,4.1559,4.1221,4.1001,4.0663,4.0383,4.0476,4.0485,4.0197,4.0502,4.0603,4.0519,4.0485,4.0451,4.0595,4.0984,4.0781,4.101,4.1822,4.1018,4.0367,4.0197,4.018,4.0113,4.0113,4.0113,4.0113,4.0113,4.0113,4.0113,4.0113,4.0113,4.0113,4.0113,4.0096,4.007,3.9952,3.9808,3.9305,3.8695,3.8019,3.7541,3.7174,3.6538,3.6259,3.6134,3.575,3.5489,3.5489,3.5489,3.5489,3.5489,3.5489,3.5489,3.5489,3.5489,3.5489,3.5489,3.5489,3.5489,5.3518,5.3518,5.3518,5.3518,5.3518,5.3518,5.3518,5.3518,5.3518,5.3518,5.3518,5.3518,5.3518,5.3484,5.3281,5.2892,5.2215,5.1352,5.0557,5.0033,4.934,4.9035,4.9018,4.9001,4.8629,4.8007,4.7939,4.7428,4.6515,4.6058,4.5635,4.5399,4.4902,4.4615,4.4598,4.4598,4.453,4.4215,4.3673,4.3341,4.3064,4.2388,4.2016,4.1982,4.1779,4.166,4.1694,4.1711,4.1162,4.0197,4.0265,4.0646,4.117,4.1018,4.1136,4.1424,4.0916,4.0426,4.0434,4.0299,4.0358,4.0832,4.0899,4.1153,4.1677,4.1694,4.1711,4.1711,4.1737,4.1745,4.1914,4.1847,4.1999,4.2049,4.1508,4.095,4.0832,4.0426,4.0113,4.0113,4.0146,4.0163,4.0113,4.0113,4.0113,4.0113,4.0113,4.0113,4.0113,3.9927,3.9833,3.9368,3.9059,3.8624,3.8064,3.7352,3.6889,3.6646,3.6196,3.5782,3.5718,3.5604,3.5489,3.5489,3.5489,3.5489,3.5489,3.5489,3.5489,3.5489,3.5489,3.5489,3.5489,3.5489,3.5489,5.3518,5.3518,5.3518,5.3518,5.3518,5.3518,5.3518,5.3518,5.3518,5.3518,5.3518,5.3518,5.3518,5.3518,5.3501,5.3264,5.2739,5.2029,5.1268,5.049,4.9509,4.9052,4.9018,4.9001,4.8765,4.8426,4.8359,4.7953,4.7327,4.6819,4.6329,4.572,4.528,4.4908,4.4598,4.4598,4.4598,4.4513,4.4113,4.391,4.3842,4.3166,4.2811,4.2675,4.2506,4.2303,4.2286,4.2286,4.1847,4.1187,4.106,4.1221,4.1559,4.1271,4.1221,4.1627,4.1238,4.106,4.1027,4.1027,4.1187,4.1559,4.166,4.1863,4.2151,4.2303,4.2303,4.2236,4.2303,4.2439,4.276,4.3047,4.3064,4.2811,4.2388,4.2016,4.1728,4.1348,4.0908,4.0705,4.0544,4.0409,4.0197,4.013,4.013,4.0113,4.0113,4.0113,4.007,3.9825,3.9487,3.9007,3.843,3.7962,3.7528,3.6889,3.643,3.6165,3.5991,3.5522,3.5489,3.5489,3.5489,3.5489,3.5489,3.5489,3.5489,3.5489,3.5489,3.5489,3.5489,3.5489,3.5489,3.5489,3.5489,5.3518,5.3518,5.3518,5.3518,5.3518,5.3518,5.3518,5.3518,5.3518,5.3518,5.3518,5.3518,5.3518,5.3518,5.3518,5.3484,5.3416,5.2553,5.1843,5.093,4.9915,4.9221,4.9221,4.9069,4.8984,4.89,4.8984,4.8612,4.8071,4.7902,4.7162,4.6346,4.5957,4.5399,4.4976,4.4801,4.4682,4.4598,4.453,4.4462,4.4378,4.3859,4.3555,4.347,4.3081,4.2794,4.2743,4.2675,4.2601,4.254,4.2388,4.2185,4.2236,4.2252,4.2236,4.2202,4.2117,4.21,4.2202,4.2066,4.2269,4.2354,4.2422,4.2489,4.2675,4.2794,4.2794,4.2828,4.2557,4.2997,4.347,4.4147,4.4079,4.3656,4.3487,4.3183,4.2692,4.2414,4.2033,4.1457,4.1322,4.0967,4.0603,4.0316,4.0383,4.0925,4.0772,4.0686,4.0411,3.9971,3.9353,3.8622,3.8008,3.7338,3.6889,3.6446,3.6086,3.5782,3.5718,3.5489,3.5489,3.5489,3.5489,3.5489,3.5489,3.5489,3.5489,3.5489,3.5489,3.5489,3.5489,3.5489,3.5489,3.5489,3.5489,5.3518,5.3518,5.3518,5.3518,5.3518,5.3518,5.3518,5.3518,5.3518,5.3518,5.3518,5.3518,5.3518,5.3518,5.3518,5.3518,5.3416,5.2689,5.1928,5.1117,5.0321,4.9881,4.9695,4.9306,4.9018,4.9018,4.9018,4.89,4.8663,4.8206,4.777,4.7382,4.6735,4.6194,4.5568,4.5365,4.5128,4.4716,4.4615,4.4598,4.4598,4.4445,4.4248,4.4231,4.4107,4.4073,4.4107,4.4107,4.4107,4.3809,4.3031,4.2489,4.2472,4.2439,4.2455,4.2472,4.2405,4.2354,4.2337,4.2455,4.2574,4.3115,4.3217,4.3436,4.4073,4.4005,4.4039,4.4107,4.4124,4.4073,4.4242,4.4434,4.4434,4.4265,4.4231,4.4198,4.3938,4.3031,4.2414,4.2134,4.2066,4.1982,4.1796,4.166,4.1677,4.1805,4.1639,4.1453,4.0844,4.0139,3.9328,3.8531,3.7727,3.7142,3.6813,3.6493,3.633,3.6099,3.5989,3.5714,3.5714,3.5624,3.5669,3.5594,3.5489,3.5489,3.5489,3.5489,3.5489,3.5489,3.5489,3.5489,3.5489,3.5489,3.5489,5.3518,5.3518,5.3518,5.3518,5.3518,5.3518,5.3518,5.3518,5.3518,5.3518,5.3518,5.3518,5.3518,5.3518,5.3518,5.3518,5.3315,5.2672,5.2114,5.1522,5.0676,5.0101,4.9949,4.9407,4.9018,4.9018,4.9018,4.9018,4.8883,4.8612,4.8244,4.7906,4.7513,4.6938,4.621,4.5906,4.5517,4.5128,4.4767,4.4598,4.4598,4.4598,4.4598,4.4598,4.4598,4.4598,4.4564,4.4564,4.4581,4.4395,4.3836,4.3379,4.3352,4.3396,4.3352,4.3369,4.3379,4.3379,4.3413,4.3413,4.3582,4.3893,4.3961,4.4181,4.4496,4.4598,4.4598,4.4598,4.4564,4.4581,4.4598,4.4598,4.4598,4.4598,4.4598,4.4598,4.4462,4.3853,4.3166,4.2963,4.2811,4.2574,4.2472,4.2523,4.2371,4.2211,4.2064,4.1849,4.0998,4.0246,3.942,3.8575,3.7648,3.7023,3.6773,3.6652,3.6793,3.6705,3.6735,3.6402,3.6178,3.6043,3.5893,3.5714,3.5489,3.5489,3.5489,3.5489,3.5489,3.5489,3.5489,3.5489,3.5519,3.5564,3.5534,5.3518,5.3518,5.3518,5.3518,5.3518,5.3518,5.3518,5.3518,5.3518,5.3518,5.3518,5.3518,5.3518,5.3518,5.3518,5.3518,5.3331,5.2959,5.2536,5.235,5.1031,5.049,5.0168,4.9543,4.9018,4.9018,4.9018,4.9018,4.9018,4.8968,4.8646,4.8173,4.8075,4.7682,4.6972,4.6397,4.5974,4.5602,4.5111,4.4733,4.4632,4.4598,4.4598,4.4598,4.4598,4.4598,4.4598,4.4598,4.4598,4.4598,4.4598,4.4598,4.4598,4.4598,4.4598,4.4547,4.4412,4.4344,4.431,4.4412,4.4462,4.4598,4.4581,4.4564,4.4598,4.4598,4.4598,4.4598,4.4598,4.4598,4.4598,4.4598,4.4598,4.4598,4.4598,4.4598,4.4598,4.4598,4.413,4.3758,4.3589,4.342,4.3132,4.3031,4.2794,4.2598,4.2483,4.2132,4.1288,4.0333,3.9487,3.8645,3.7725,3.7261,3.6993,3.7015,3.7105,3.7195,3.73,3.706,3.6716,3.6626,3.6402,3.5729,3.5489,3.5549,3.5534,3.5489,3.5489,3.5489,3.5534,3.5579,3.5609,3.5639,3.5744,5.3518,5.3518,5.3518,5.3518,5.3518,5.3518,5.3518,5.3518,5.3518,5.3518,5.3518,5.3518,5.3518,5.3518,5.3518,5.3518,5.345,5.323,5.3213,5.2959,5.1758,5.1031,5.0693,4.9712,4.9103,4.9018,4.9018,4.9018,4.9018,4.8984,4.8883,4.8815,4.8765,4.8376,4.7885,4.7483,4.6802,4.6092,4.5652,4.528,4.4835,4.4632,4.4598,4.4598,4.4598,4.4598,4.4598,4.4598,4.4598,4.4598,4.4598,4.4598,4.4598,4.4598,4.4598,4.4598,4.4598,4.4598,4.4598,4.4598,4.4598,4.4598,4.4598,4.4598,4.4598,4.4598,4.4598,4.4632,4.4649,4.4649,4.4598,4.4716,4.4666,4.4649,4.4615,4.4649,4.4649,4.4598,4.4564,4.4248,4.4265,4.4293,4.3921,4.3718,4.3684,4.3423,4.3126,4.2593,4.177,4.0642,3.953,3.8681,3.7831,3.7533,3.7315,3.7404,3.7494,3.7599,3.7659,3.7599,3.736,3.7285,3.6926,3.6282,3.5848,3.5789,3.5729,3.5699,3.5759,3.5938,3.5848,3.5744,3.6028,3.6327,3.6552,5.3518,5.3518,5.3518,5.3518,5.3518,5.3518,5.3518,5.3518,5.3518,5.3518,5.3518,5.3518,5.3518,5.3518,5.3518,5.3518,5.3518,5.3518,5.3518,5.3213,5.235,5.1539,5.12,5.005,4.9407,4.912,4.9018,4.9018,4.9018,4.9018,4.9018,4.9001,4.9018,4.8815,4.8413,4.8007,4.7551,4.6836,4.643,4.5906,4.5179,4.4857,4.4649,4.4615,4.4615,4.4598,4.4598,4.4598,4.4598,4.4598,4.4598,4.4598,4.4598,4.4615,4.4615,4.4632,4.4615,4.4598,4.4598,4.4598,4.4598,4.4598,4.4615,4.4598,4.4598,4.4598,4.4682,4.4716,4.5043,4.5162,4.5196,4.5162,4.5348,4.5512,4.5156,4.4902,4.4959,4.479,4.4722,4.4699,4.4581,4.453,4.4513,4.4429,4.453,4.4253,4.3756,4.2939,4.2078,4.1012,3.9767,3.9087,3.8407,3.8317,3.8103,3.8123,3.8123,3.8167,3.8167,3.8108,3.8003,3.7943,3.7509,3.6896,3.6552,3.6507,3.6507,3.6671,3.6552,3.6432,3.6522,3.6626,3.6806,3.703,3.7225,5.3518,5.3518,5.3518,5.3518,5.3518,5.3518,5.3518,5.3518,5.3518,5.3518,5.3518,5.3518,5.3518,5.3518,5.3518,5.3518,5.3518,5.3518,5.3518,5.3331,5.2638,5.1944,5.1386,5.0524,4.9779,4.939,4.9052,4.9018,4.9018,4.9018,4.9018,4.9018,4.9018,4.9018,4.8832,4.843,4.8125,4.7703,4.7378,4.6667,4.5957,4.5382,4.5055,4.4987,4.4891,4.484,4.4891,4.4682,4.4615,4.4666,4.475,4.4801,4.4666,4.475,4.4852,4.4818,4.4699,4.4615,4.4598,4.4598,4.4682,4.4919,4.4869,4.4919,4.5122,4.5292,4.519,4.5173,4.55,4.5923,4.5923,4.5906,4.6177,4.6312,4.5771,4.5213,4.5585,4.5551,4.5213,4.5077,4.4886,4.4767,4.475,4.4514,4.4514,4.4035,4.3502,4.2614,4.1772,4.1213,4.0232,3.9622,3.9179,3.9179,3.9074,3.8985,3.8925,3.8865,3.8865,3.8805,3.8721,3.8601,3.8123,3.7778,3.7868,3.7823,3.7749,3.7419,3.7105,3.7015,3.7285,3.7464,3.7554,3.7659,3.7823,5.3518,5.3518,5.3518,5.3518,5.3518,5.3518,5.3518,5.3518,5.3518,5.3518,5.3518,5.3518,5.3518,5.3518,5.3518,5.3518,5.3518,5.3518,5.3518,5.3382,5.2773,5.2317,5.1928,5.0693,5.0202,4.9796,4.9306,4.9052,4.9018,4.9018,4.9018,4.9018,4.9018,4.9018,4.8984,4.8798,4.8545,4.8037,4.7834,4.7394,4.6769,4.6481,4.6397,4.6244,4.5906,4.5551,4.5483,4.5173,4.4852,4.4807,4.5297,4.5213,4.4852,4.5246,4.55,4.5382,4.5026,4.4615,4.475,4.4869,4.5089,4.5466,4.5568,4.5923,4.6092,4.6261,4.6278,4.6532,4.6633,4.6667,4.6667,4.665,4.6735,4.6752,4.6599,4.6397,4.6583,4.621,4.5872,4.572,4.5568,4.5179,4.4976,4.4654,4.4355,4.3814,4.3185,4.2332,4.1478,4.0894,4.0363,3.9666,3.9388,3.9388,3.9388,3.9388,3.9433,3.9418,3.9373,3.9343,3.9164,3.9035,3.9134,3.8895,3.894,3.8661,3.8182,3.7808,3.7539,3.7629,3.7913,3.8093,3.8212,3.8317,3.8422,5.3518,5.3518,5.3518,5.3518,5.3518,5.3518,5.3518,5.3518,5.3518,5.3518,5.3518,5.3518,5.3518,5.3518,5.3518,5.3518,5.3518,5.3518,5.3518,5.3518,5.3095,5.2739,5.2249,5.1623,5.1082,5.0185,4.9763,4.9373,4.9204,4.9052,4.9018,4.9018,4.9018,4.9018,4.9018,4.9018,4.8832,4.8494,4.8125,4.7767,4.7411,4.7056,4.6802,4.6802,4.6481,4.6346,4.6227,4.6092,4.5867,4.5889,4.6227,4.6177,4.6003,4.6143,4.6312,4.6295,4.6058,4.5872,4.5872,4.585,4.5991,4.6177,4.6346,4.6447,4.6735,4.6836,4.6853,4.6769,4.7192,4.7394,4.7428,4.7428,4.7716,4.7733,4.7361,4.7327,4.7242,4.6853,4.6549,4.6413,4.6261,4.5923,4.55,4.5083,4.4697,4.4143,4.3506,4.2682,4.1573,4.055,4.0025,3.9538,3.9388,3.9388,3.9388,3.9388,3.9493,3.9493,3.9448,3.9403,3.9388,3.9358,3.9388,3.9388,3.9224,3.8916,3.8497,3.8482,3.8431,3.8512,3.8556,3.8676,3.8781,3.8916,3.902,5.3518,5.3518,5.3518,5.3518,5.3518,5.3518,5.3518,5.3518,5.3518,5.3518,5.3518,5.3518,5.3518,5.3518,5.3518,5.3518,5.3518,5.3518,5.3518,5.3518,5.345,5.3145,5.2706,5.2334,5.1674,5.0608,5.049,5.0168,4.983,4.9593,4.9526,4.9052,4.9018,4.9018,4.9018,4.9018,4.8934,4.8883,4.8477,4.821,4.8075,4.7682,4.7479,4.7344,4.7192,4.7073,4.7056,4.6769,4.6718,4.6718,4.6955,4.6938,4.6718,4.687,4.7056,4.7073,4.6972,4.7124,4.7073,4.7005,4.6955,4.7056,4.731,4.7479,4.7445,4.7344,4.7361,4.753,4.7868,4.8139,4.8189,4.8189,4.8359,4.8342,4.8071,4.8037,4.7953,4.7665,4.7361,4.7141,4.7005,4.6836,4.6346,4.5686,4.5101,4.4506,4.38,4.302,4.186,4.0554,3.9935,3.9544,3.9768,3.9798,3.9813,3.9768,3.9717,3.9717,3.9723,3.9694,3.9783,3.9553,3.9388,3.9388,3.9493,3.9254,3.8945,3.9164,3.9373,3.9134,3.902,3.9164,3.9298,3.9388,3.9388,5.3518,5.3518,5.3518,5.3518,5.3518,5.3518,5.3518,5.3518,5.3518,5.3518,5.3518,5.3518,5.3518,5.3518,5.3518,5.3518,5.3518,5.3518,5.3518,5.3518,5.3484,5.3416,5.3112,5.2706,5.2249,5.1894,5.142,5.1099,5.0948,5.0676,5.0067,4.9221,4.9255,4.9103,4.9052,4.9086,4.9018,4.9001,4.8798,4.8815,4.8815,4.8697,4.8663,4.8562,4.8189,4.7804,4.777,4.7344,4.7073,4.7107,4.7547,4.7614,4.7361,4.7614,4.7817,4.7851,4.7851,4.8054,4.8189,4.7716,4.7344,4.78,4.8274,4.8545,4.846,4.8714,4.8798,4.8595,4.8646,4.8748,4.8832,4.8934,4.8866,4.8765,4.8595,4.8595,4.8578,4.8646,4.8325,4.797,4.775,4.7614,4.7083,4.6388,4.546,4.4832,4.3784,4.2997,4.2056,4.0863,4.0109,3.9813,4.0172,4.0322,4.0412,4.0457,4.0576,4.0546,4.0472,4.0397,4.0367,4.0068,3.9888,3.9813,3.9948,3.9679,3.9508,3.9843,3.9933,3.9538,3.9388,3.9388,3.9388,3.9388,3.9388,5.3518,5.3518,5.3518,5.3518,5.3518,5.3518,5.3518,5.3518,5.3518,5.3518,5.3518,5.3518,5.3518,5.3518,5.3518,5.3518,5.3518,5.3518,5.3518,5.3518,5.3518,5.3518,5.3331,5.3162,5.2807,5.2384,5.1961,5.1572,5.1168,5.1354,5.1016,5.0388,4.9965,4.9712,4.9593,4.9289,4.9086,4.9035,4.9018,4.9018,4.9018,4.9018,4.9018,4.8951,4.8849,4.8595,4.8545,4.8325,4.8206,4.8189,4.8409,4.824,4.8071,4.8392,4.8494,4.8528,4.8511,4.8697,4.8883,4.8443,4.8342,4.846,4.8849,4.9018,4.9018,4.9018,4.9018,4.8984,4.9018,4.9018,4.9001,4.8984,4.8984,4.9001,4.9018,4.9018,4.9018,4.9018,4.8934,4.8443,4.846,4.8494,4.7814,4.709,4.6075,4.5098,4.4006,4.2962,4.2078,4.1349,4.0654,4.0367,4.0741,4.0935,4.104,4.122,4.1467,4.1392,4.1235,4.1138,4.1048,4.1018,4.0801,4.0636,4.0502,4.0487,4.0502,4.0591,4.0412,3.9963,3.9597,3.9388,3.9388,3.9523,3.9612,5.3518,5.3518,5.3518,5.3518,5.3518,5.3518,5.3518,5.3518,5.3518,5.3518,5.3518,5.3518,5.3518,5.3518,5.3518,5.3518,5.3518,5.3518,5.3518,5.3518,5.3518,5.3518,5.3518,5.3416,5.3162,5.2723,5.2621,5.2367,5.208,5.1928,5.1944,5.1725,5.115,5.0777,5.0253,4.9729,4.934,4.9306,4.9086,4.9018,4.9018,4.9018,4.9018,4.9018,4.8951,4.8934,4.8917,4.8815,4.8849,4.8849,4.8934,4.8968,4.8984,4.9001,4.9018,4.9018,4.9018,4.9018,4.9018,4.9001,4.9001,4.8934,4.8951,4.9018,4.9018,4.9018,4.9018,4.9018,4.9018,4.9018,4.9035,4.9018,4.9018,4.9018,4.9018,4.9018,4.9018,4.9018,4.9018,4.8866,4.8793,4.8428,4.8171,4.7276,4.575,4.4691,4.3536,4.2766,4.2397,4.1745,4.1318,4.119,4.1429,4.1617,4.1722,4.2013,4.2282,4.2222,4.2073,4.1811,4.1707,4.1677,4.1482,4.1153,4.1123,4.1362,4.1317,4.11,4.0711,4.0277,4.0127,4.0098,4.0247,4.0412,4.0307,5.3518,5.3518,5.3518,5.3518,5.3518,5.3518,5.3518,5.3518,5.3518,5.3518,5.3518,5.3518,5.3518,5.3518,5.3518,5.3518,5.3518,5.3518,5.3518,5.3518,5.3518,5.3518,5.3518,5.3467,5.3416,5.3484,5.3331,5.3213,5.3247,5.3061,5.3162,5.3027,5.2384,5.1725,5.1166,5.0439,5.0084,4.9965,4.9441,4.9204,4.9137,4.9103,4.9018,4.9018,4.9018,4.9018,4.9018,4.9018,4.9018,4.9018,4.9018,4.9018,4.9018,4.9018,4.9018,4.9018,4.9018,4.9018,4.9018,4.9018,4.9086,4.9035,4.9018,4.9018,4.9018,4.9018,4.9018,4.9018,4.9103,4.912,4.9086,4.9137,4.9255,4.934,4.9407,4.9441,4.9509,4.9526,4.9627,4.961,4.862,4.7852,4.7869,4.7339,4.5541,4.4165,4.2999,4.2518,4.2522,4.234,4.1976,4.1983,4.2192,4.2252,4.2432,4.288,4.3065,4.3045,4.2851,4.2506,4.2261,4.2102,4.1863,4.1617,4.1713,4.2013,4.1758,4.1444,4.1384,4.1369,4.1115,4.107,4.1205,4.1145,4.092,5.3518,5.3518,5.3518,5.3518,5.3518,5.3518,5.3518,5.3518,5.3518,5.3518,5.3518,5.3518,5.3518,5.3518,5.3518,5.3518,5.3518,5.3518,5.3518,5.3518,5.3518,5.3518,5.3518,5.3518,5.3518,5.3518,5.3518,5.3518,5.345,5.3518,5.3518,5.3365,5.3129,5.2418,5.1505,5.0896,5.0845,5.071,5.0202,4.9746,4.9678,4.934,4.9069,4.9086,4.9069,4.9052,4.9018,4.9018,4.9018,4.9018,4.9018,4.9018,4.9018,4.9018,4.9018,4.9018,4.9018,4.9018,4.9171,4.9306,4.9458,4.9255,4.9137,4.9171,4.9035,4.9018,4.9018,4.9204,4.9543,4.9661,4.9746,5.027,5.0507,5.0574,5.0608,5.0608,5.0642,5.0608,5.0625,5.049,4.9817,4.8395,4.789,4.7874,4.6391,4.5292,4.4327,4.3413,4.3193,4.3082,4.2811,4.2865,4.2916,4.2985,4.312,4.3215,4.3275,4.317,4.314,4.3065,4.2865,4.2596,4.2611,4.2491,4.2596,4.2671,4.2462,4.2342,4.2596,4.2611,4.2117,4.1713,4.1624,4.1489,4.1302,5.3518,5.3518,5.3518,5.3518,5.3518,5.3518,5.3518,5.3518,5.3518,5.3518,5.3518,5.3518,5.3518,5.3518,5.3518,5.3518,5.3518,5.3518,5.3518,5.3518,5.3518,5.3518,5.3518,5.3518,5.3518,5.3518,5.3518,5.3518,5.3518,5.3518,5.3518,5.3518,5.3501,5.2976,5.2215,5.1877,5.1606,5.1403,5.093,5.049,5.0371,5.0101,4.9712,4.9526,4.939,4.9306,4.9103,4.9018,4.9018,4.9035,4.9018,4.9018,4.9018,4.9018,4.9018,4.9018,4.9018,4.9137,4.9475,4.9729,4.9881,4.9965,4.9779,4.9763,4.9763,4.9932,4.9915,5.005,5.0236,5.0371,5.0591,5.1151,5.1252,5.1286,5.1302,5.1285,5.1251,5.12,5.1151,5.105,5.0525,4.9166,4.8101,4.7906,4.7456,4.6595,4.578,4.491,4.4031,4.3756,4.3603,4.3469,4.3394,4.3305,4.3245,4.3245,4.329,4.3305,4.3394,4.3499,4.326,4.2976,4.3185,4.3305,4.311,4.3006,4.3155,4.323,4.311,4.2961,4.2677,4.2357,4.2073,4.1953,4.1863,5.3484,5.3501,5.3518,5.3518,5.3518,5.3518,5.3518,5.3518,5.3518,5.3518,5.3518,5.3518,5.3518,5.3518,5.3518,5.3518,5.3518,5.3518,5.3518,5.3518,5.3518,5.3518,5.3518,5.3518,5.3518,5.3518,5.3518,5.3518,5.3518,5.3518,5.3518,5.3518,5.3518,5.3281,5.2993,5.2672,5.2384,5.2164,5.1657,5.1302,5.1166,5.1031,5.0574,5.0287,5.0118,4.9864,4.9576,4.9306,4.9204,4.912,4.9035,4.9018,4.9018,4.9018,4.9018,4.9069,4.912,4.9509,5.0033,5.0287,5.0659,5.098,5.1234,5.1251,5.1014,5.0811,5.0727,5.0828,5.1048,5.1166,5.132,5.1455,5.1574,5.1574,5.1589,5.1572,5.1555,5.1539,5.1555,5.1293,5.0709,4.977,4.9076,4.8703,4.8615,4.8288,4.7569,4.685,4.5906,4.4621,4.4361,4.3858,4.3753,4.3574,4.3574,4.3768,4.3858,4.4077,4.3858,4.3858,4.3604,4.3484,4.3574,4.3589,4.3379,4.3305,4.3305,4.3305,4.3275,4.3125,4.2976,4.2916,4.2671,4.2836,4.2811,5.2976,5.3484,5.3518,5.3518,5.3518,5.3518,5.3518,5.3518,5.3518,5.3518,5.3518,5.3518,5.3518,5.3518,5.3518,5.3518,5.3518,5.3518,5.3518,5.3518,5.3518,5.3518,5.3518,5.3518,5.3518,5.3518,5.3518,5.3518,5.3518,5.3518,5.3518,5.3518,5.3518,5.3518,5.3433,5.3264,5.3145,5.2909,5.2334,5.2097,5.1843,5.1623,5.1234,5.0997,5.0896,5.0642,5.0422,4.9965,4.983,4.9779,4.9272,4.9052,4.9018,4.9035,4.912,4.9729,4.9864,5.0101,5.0811,5.1352,5.1725,5.2029,5.2418,5.2013,5.1624,5.1369,5.1403,5.1589,5.1843,5.1978,5.2131,5.2249,5.2334,5.2435,5.2418,5.2418,5.2418,5.2418,5.2385,5.2219,5.161,5.0909,5.0161,4.9811,4.9706,4.9664,4.9349,4.8695,4.759,4.6221,4.529,4.4775,4.4392,4.4287,4.4526,4.4751,4.4766,4.4781,4.4556,4.4436,4.4481,4.4362,4.4152,4.3988,4.3843,4.3574,4.3305,4.3409,4.3723,4.3409,4.3245,4.3275,4.3305,4.3349,4.3334,5.2587,5.3061,5.3382,5.3518,5.3518,5.3518,5.3518,5.3518,5.3518,5.3518,5.3518,5.3518,5.3518,5.3518,5.3518,5.3518,5.3518,5.3518,5.3518,5.3518,5.3518,5.3518,5.3518,5.3518,5.3518,5.3518,5.3518,5.3518,5.3518,5.3518,5.3518,5.3518,5.3518,5.3518,5.3484,5.345,5.3467,5.3315,5.3061,5.2824,5.2553,5.2283,5.2063,5.1691,5.1657,5.1555,5.1268,5.071,5.0591,5.0541,4.9999,4.9898,4.9915,4.9932,4.9982,5.0524,5.0557,5.0947,5.1539,5.1944,5.2384,5.279,5.3196,5.2942,5.2621,5.235,5.2317,5.2384,5.2604,5.2807,5.2993,5.3145,5.3298,5.345,5.345,5.345,5.345,5.345,5.3399,5.3298,5.2806,5.2086,5.1531,5.1097,5.0906,5.1001,5.0936,5.0559,4.9158,4.7408,4.6516,4.596,4.544,4.508,4.5334,4.5469,4.5349,4.5229,4.505,4.502,4.52,4.5095,4.4781,4.4586,4.4451,4.4227,4.4007,4.4112,4.4317,4.4018,4.3943,4.4152,4.3977,4.3574,4.3499,5.2181,5.2418,5.3179,5.3518,5.3518,5.3518,5.3518,5.3518,5.3518,5.3518,5.3518,5.3518,5.3518,5.3518,5.3518,5.3518,5.3518,5.3518,5.3518,5.3518,5.3518,5.3518,5.3518,5.3518,5.3518,5.3518,5.3518,5.3518,5.3518,5.3518,5.3518,5.3518,5.3518,5.3518,5.3518,5.3518,5.3518,5.3467,5.3416,5.3298,5.3365,5.3331,5.3179,5.2536,5.2334,5.2181,5.1624,5.1337,5.1302,5.1302,5.1166,5.1033,5.1014,5.0997,5.1033,5.1236,5.1285,5.1742,5.2181,5.2536,5.2841,5.3196,5.3501,5.3382,5.3145,5.3027,5.2976,5.2959,5.3145,5.3179,5.3298,5.3331,5.345,5.3518,5.3518,5.3518,5.3518,5.3518,5.3467,5.3433,5.3281,5.2684,5.2477,5.2032,5.2086,5.2252,5.2217,5.2028,5.1001,4.903,4.7794,4.7088,4.6431,4.596,4.5903,4.5963,4.5768,4.5618,4.5589,4.5693,4.5963,4.5738,4.5379,4.511,4.484,4.502,4.5005,4.4945,4.487,4.4885,4.4885,4.511,4.484,4.4257,4.4062,5.1285,5.2367,5.3179,5.3518,5.3518,5.3518,5.3518,5.3518,5.3518,5.3518,5.3518,5.3518,5.3518,5.3518,5.3518,5.3518,5.3518,5.3518,5.3518,5.3518,5.3518,5.3518,5.3518,5.3518,5.3518,5.3518,5.3518,5.3518,5.3518,5.3518,5.3518,5.3518,5.3518,5.3518,5.3518,5.3518,5.3518,5.3518,5.3518,5.3518,5.3518,5.3501,5.3331,5.3179,5.3112,5.3061,5.2638,5.23,5.2147,5.1995,5.1454,5.1219,5.1217,5.1219,5.1539,5.1894,5.2046,5.2452,5.2841,5.3078,5.3264,5.3348,5.3518,5.3518,5.3484,5.3518,5.3518,5.3518,5.3518,5.3518,5.3518,5.3518,5.3518,5.3518,5.3518,5.3518,5.3518,5.3518,5.3518,5.3518,5.3518,5.3348,5.3161,5.3144,5.3264,5.3264,5.3247,5.3009,5.2544,5.1067,4.9103,4.8224,4.7361,4.6916,4.6794,4.6531,4.6367,4.6486,4.6561,4.6651,4.6711,4.6381,4.5992,4.5499,4.5229,4.5544,4.5633,4.5319,4.5289,4.5544,4.5618,4.5753,4.5618,4.514,4.499,5.0574,5.1437,5.252,5.3179,5.3467,5.3518,5.3518,5.3518,5.3518,5.3518,5.3518,5.3518,5.3518,5.3518,5.3518,5.3518,5.3518,5.3518,5.3518,5.3518,5.3518,5.3518,5.3518,5.3518,5.3518,5.3518,5.3518,5.3518,5.3518,5.3518,5.3518,5.3518,5.3518,5.3518,5.3518,5.3518,5.3518,5.3518,5.3518,5.3518,5.3518,5.3501,5.3501,5.3518,5.3518,5.3518,5.3399,5.3027,5.2942,5.2807,5.2486,5.2367,5.2367,5.2351,5.2503,5.2723,5.2892,5.301,5.3365,5.3518,5.3518,5.3518,5.3518,5.3518,5.3518,5.3518,5.3518,5.3518,5.3518,5.3518,5.3518,5.3518,5.3518,5.3518,5.3518,5.3518,5.3518,5.3518,5.3518,5.3518,5.3518,5.3467,5.3314,5.3314,5.3433,5.3433,5.3484,5.311,5.28,5.2749,5.0892,4.9432,4.8584,4.803,4.7871,4.7492,4.7055,4.7219,4.7309,4.7189,4.6995,4.6875,4.6606,4.6232,4.6082,4.6292,4.6262,4.5992,4.6142,4.6471,4.6411,4.6337,4.6142,4.6037,4.6022,5.0067,5.0422,5.1742,5.2773,5.3433,5.3518,5.3518,5.3518,5.3518,5.3518,5.3518,5.3518,5.3518,5.3518,5.3518,5.3518,5.3518,5.3518,5.3518,5.3518,5.3518,5.3518,5.3518,5.3518,5.3518,5.3518,5.3518,5.3518,5.3518,5.3518,5.3518,5.3518,5.3518,5.3518,5.3518,5.3518,5.3518,5.3518,5.3518,5.3518,5.3518,5.3518,5.3518,5.3518,5.3518,5.3518,5.3501,5.3501,5.3484,5.3416,5.3298,5.323,5.3196,5.3145,5.3213,5.3331,5.3315,5.3382,5.3518,5.3518,5.3518,5.3518,5.3518,5.3518,5.3518,5.3518,5.3518,5.3518,5.3518,5.3518,5.3518,5.3518,5.3518,5.3518,5.3518,5.3518,5.3518,5.3518,5.3518,5.3518,5.3518,5.3518,5.3518,5.3518,5.3534,5.3534,5.3348,5.2835,5.2576,5.2749,5.201,5.0779,4.9852,4.9416,4.8825,4.821,4.7609,4.7309,4.7309,4.7309,4.7264,4.7115,4.707,4.7145,4.7085,4.695,4.6995,4.6875,4.71,4.713,4.6995,4.6785,4.6845,4.68,4.701,4.9915,5.1082,5.1944,5.2756,5.345,5.3518,5.3518,5.3518,5.3518,5.3518,5.3518,5.3518,5.3518,5.3518,5.3518,5.3518,5.3518,5.3518,5.3518,5.3518,5.3518,5.3518,5.3518,5.3518,5.3518,5.3518,5.3518,5.3518,5.3518,5.3518,5.3518,5.3518,5.3518,5.3518,5.3518,5.3518,5.3518,5.3518,5.3518,5.3518,5.3518,5.3518,5.3518,5.3518,5.3518,5.3518,5.3518,5.3518,5.3501,5.3501,5.3518,5.3518,5.3518,5.3518,5.3518,5.3518,5.3518,5.3518,5.3518,5.3518,5.3518,5.3518,5.3518,5.3518,5.3518,5.3518,5.3518,5.3518,5.3518,5.3518,5.3518,5.3518,5.3518,5.3518,5.3518,5.3518,5.3518,5.3518,5.3518,5.3518,5.3518,5.3518,5.3518,5.3568,5.367,5.3704,5.3805,5.3396,5.3462,5.326,5.3022,5.2119,5.1118,4.9891,4.8988,4.8553,4.803,4.7609,4.7309,4.7309,4.7309,4.7309,4.7309,4.7309,4.7309,4.7204,4.7294,4.7309,4.7294,4.7234,4.7264,4.7234,4.7309,4.7309,4.7309]}]]